[[{"header":{"parameterUnit":"m.s-1","parameterCategory":1,"la1":30.6,"la2":28.766,"lo1":-90.7593,"lo2":-88.6598,"dy":0.0162,"dx":0.0183,"nx":116,"ny":114,"refTime":"2023-06-02T06:00:00:Z","depth":0,"parameterNumber":2,"parameterNumberName":"U-component_of_WINDS"},"data":[0.0,0.0,0.0,0.0,0.0,0.0,0.0,0.0,0.0,0.0,0.0,0.0,0.0,0.0,0.0,0.0,0.0,0.0,0.0,0.0,0.0,0.0,0.0,0.0,0.0,0.0,0.0,0.0,0.0,0.0,0.0,0.0,0.0,0.0,0.0,0.0,0.0,0.0,0.0,0.0,0.0,0.0,0.0,0.0,0.0,0.0,0.0,0.0,0.0,0.0,0.0,0.0,0.0,0.0,0.0,0.0,0.0,0.0,0.0,0.0,0.0,0.0,0.0,0.0,0.0,0.0,0.0,0.0,0.0,0.0,0.0,0.0,0.0,0.0,0.0,0.0,0.0,0.0,0.0,0.0,0.0,0.0,0.0,0.0,0.0,0.0,0.0,0.0,0.0,0.0,0.0,0.0,0.0,0.0,0.0,0.0,0.0,0.0,0.0,0.0,0.0,0.0,0.0,0.0,0.0,0.0,0.0,0.0,0.0,0.0,0.0,0.0,0.0,0.0,0.0,0.0,0.0,0.0,0.0,0.0,0.0,0.0,0.0,0.0,0.0,0.0,0.0,0.0,0.0,0.0,0.0,0.0,0.0,0.0,0.0,0.0,0.0,0.0,0.0,0.0,0.0,0.0,0.0,0.0,0.0,0.0,0.0,0.0,0.0,0.0,0.0,0.0,0.0,0.0,0.0,0.0,0.0,0.0,0.0,0.0,0.0,0.0,0.0,0.0,0.0,0.0,0.0,0.0,0.0,0.0,0.0,0.0,0.0,0.0,0.0,0.0,0.0,0.0,0.0,0.0,0.0,0.0,0.0,0.0,0.0,0.0,0.0,0.0,0.0,0.0,0.0,0.0,0.0,0.0,0.0,0.0,0.0,0.0,0.0,0.0,0.0,0.0,0.0,0.0,0.0,0.0,0.0,0.0,0.0,0.0,0.0,0.0,0.0,0.0,0.0,0.0,0.0,0.0,0.0,0.0,0.0,0.0,0.0,0.0,0.0,0.0,0.0,0.0,0.0,0.0,0.0,0.0,0.0,0.0,0.0,0.0,0.0,0.0,0.0,0.0,0.0,0.0,0.0,0.0,0.0,0.0,0.0,0.0,0.0,0.0,0.0,0.0,0.0,0.0,0.0,0.0,0.0,0.0,0.0,0.0,0.0,0.0,0.0,0.0,0.0,0.0,0.0,0.0,0.0,0.0,0.0,0.0,0.0,0.0,0.0,0.0,0.0,0.0,0.0,0.0,0.0,0.0,0.0,0.0,0.0,0.0,0.0,0.0,0.0,0.0,0.0,0.0,0.0,0.0,0.0,0.0,0.0,0.0,0.0,0.0,0.0,0.0,0.0,0.0,0.0,0.0,0.0,0.0,0.0,0.0,0.0,0.0,0.0,0.0,0.0,0.0,0.0,0.0,0.0,0.0,0.0,0.0,0.0,0.0,0.0,0.0,0.0,0.0,0.0,0.0,0.0,0.0,0.0,0.0,0.0,0.0,0.0,0.0,0.0,0.0,0.0,0.0,0.0,0.0,0.0,0.0,0.0,0.0,0.0,0.0,0.0,0.0,0.0,0.0,0.0,0.0,0.0,0.0,0.0,0.0,0.0,0.0,0.0,0.0,0.0,0.0,0.0,0.0,0.0,0.0,0.0,0.0,0.0,0.0,0.0,0.0,0.0,0.0,0.0,0.0,0.0,0.0,0.0,0.0,0.0,0.0,0.0,0.0,0.0,0.0,0.0,0.0,0.0,0.0,0.0,0.0,0.0,0.0,0.0,0.0,0.0,0.0,0.0,0.0,0.0,0.0,0.0,0.0,0.0,0.0,0.0,0.0,0.0,0.0,0.0,0.0,0.0,0.0,0.0,0.0,0.0,0.0,0.0,0.0,0.0,0.0,0.0,0.0,0.0,0.0,0.0,0.0,0.0,0.0,0.0,0.0,0.0,0.0,0.0,0.0,0.0,0.0,0.0,0.0,0.0,0.0,0.0,0.0,0.0,0.0,0.0,0.0,0.0,0.0,0.0,0.0,0.0,0.0,0.0,0.0,0.0,0.0,0.0,0.0,0.0,0.0,0.0,0.0,0.0,0.0,0.0,0.0,0.0,0.0,0.0,0.0,0.0,0.0,0.0,0.0,0.0,0.0,0.0,0.0,0.0,0.0,0.0,0.0,0.0,0.0,0.0,0.0,0.0,0.0,0.0,0.0,0.0,0.0,0.0,0.0,0.0,0.0,0.0,0.0,0.0,0.0,0.0,0.0,0.0,0.0,0.0,0.0,0.0,0.0,0.0,0.0,0.0,0.0,0.0,0.0,0.0,0.0,0.0,0.0,0.0,0.0,0.0,0.0,0.0,0.0,0.0,0.0,0.0,0.0,0.0,0.0,0.0,0.0,0.0,0.0,0.0,0.0,0.0,0.0,0.0,0.0,0.0,0.0,0.0,0.0,0.0,0.0,0.0,0.0,0.0,0.0,0.0,0.0,0.0,0.0,0.0,0.0,0.0,0.0,0.0,0.0,0.0,0.0,0.0,0.0,0.0,0.0,0.0,0.0,0.0,0.0,0.0,0.0,0.0,0.0,0.0,0.0,0.0,0.0,0.0,0.0,0.0,0.0,0.0,0.0,0.0,0.0,0.0,0.0,0.0,0.0,0.0,0.0,0.0,0.0,0.0,0.0,0.0,0.0,0.0,0.0,0.0,0.0,0.0,0.0,0.0,0.0,0.0,0.0,0.0,0.0,0.0,0.0,0.0,0.0,0.0,0.0,0.0,0.0,0.0,0.0,0.0,0.0,0.0,0.0,0.0,0.0,0.0,0.0,0.0,0.0,0.0,0.0,0.0,0.0,0.0,0.0,0.0,0.0,0.0,0.0,0.0,0.0,0.0,0.0,0.0,0.0,0.0,0.0,0.0,0.0,0.0,0.0,0.0,0.0,0.0,0.0,0.0,0.0,0.0,0.0,0.0,0.0,0.0,0.0,0.0,0.0,0.0,0.0,0.0,0.0,0.0,0.0,0.0,0.0,0.0,0.0,0.0,0.0,0.0,0.0,0.0,0.0,0.0,0.0,0.0,0.0,0.0,0.0,0.0,0.0,0.0,0.0,0.0,0.0,0.0,0.0,0.0,0.0,0.0,0.0,0.0,0.0,0.0,0.0,0.0,0.0,0.0,0.0,0.0,0.0,0.0,0.0,0.0,0.0,0.0,0.0,0.0,0.0,0.0,0.0,0.0,0.0,0.0,0.0,0.0,0.0,0.0,0.0,0.0,0.0,0.0,0.0,0.0,0.0,0.0,0.0,0.0,0.0,0.0,0.0,0.0,0.0,0.0,0.0,0.0,0.0,0.0,0.0,0.0,0.0,0.0,0.0,0.0,0.0,0.0,0.0,0.0,0.0,0.0,0.0,0.0,0.0,0.0,0.0,0.0,0.0,0.0,0.0,0.0,0.0,0.0,0.0,0.0,0.0,0.0,0.0,0.0,0.0,0.0,0.0,0.0,0.0,0.0,0.0,0.0,0.0,0.0,0.0,0.0,0.0,0.0,0.0,0.0,0.0,0.0,0.0,0.0,0.0,0.0,0.0,0.0,0.0,0.0,0.0,0.0,0.0,0.0,0.0,0.0,0.0,0.0,0.0,0.0,0.0,0.0,0.0,0.0,0.0,0.0,0.0,0.0,0.0,0.0,0.0,0.0,0.0,0.0,0.0,0.0,0.0,0.0,0.0,0.0,0.0,0.0,0.0,0.0,0.0,0.0,0.0,0.0,0.0,0.0,0.0,0.0,0.0,0.0,0.0,0.0,0.0,0.0,0.0,0.0,0.0,0.0,0.0,0.0,0.0,0.0,0.0,0.0,0.0,0.0,0.0,0.0,0.0,0.0,0.0,0.0,0.0,0.0,0.0,0.0,0.0,0.0,0.0,0.0,0.0,0.0,0.0,0.0,0.0,0.0,0.0,0.0,0.0,0.0,0.0,0.0,0.0,0.0,0.0,0.0,0.0,0.0,0.0,0.0,0.0,0.0,0.0,0.0,0.0,0.0,0.0,0.0,0.0,0.0,0.0,0.0,0.0,0.0,0.0,0.0,0.0,0.0,0.0,0.0,0.0,0.0,0.0,0.0,0.0,0.0,0.0,0.0,0.0,0.0,0.0,0.0,0.0,0.0,0.0,0.0,0.0,0.0,0.0,0.0,0.0,0.0,0.0,0.0,0.0,0.0,0.0,0.0,0.0,0.0,0.0,0.0,0.0,0.0,0.0,0.0,0.0,0.0,0.0,0.0,0.0,0.0,0.0,0.0,0.0,0.0,0.0,0.0,0.0,0.0,0.0,0.0,0.0,0.0,0.0,0.0,0.0,0.0,0.0,0.0,0.0,0.0,0.0,0.0,0.0,0.0,0.0,0.0,0.0,0.0,0.0,0.0,0.0,0.0,0.0,0.0,0.0,0.0,0.0,0.0,0.0,0.0,0.0,0.0,0.0,0.0,0.0,0.0,0.0,0.0,0.0,0.0,0.0,0.0,0.0,0.0,0.0,0.0,0.0,0.0,0.0,0.0,0.0,0.0,0.0,0.0,0.0,0.0,0.0,0.0,0.0,0.0,0.0,0.0,0.0,0.0,0.0,0.0,0.0,0.0,0.0,0.0,0.0,0.0,0.0,0.0,0.0,0.0,0.0,0.0,0.0,0.0,0.0,0.0,0.0,0.0,0.0,0.0,0.0,0.0,0.0,0.0,0.0,0.0,0.0,0.0,0.0,0.0,0.0,0.0,0.0,0.0,0.0,0.0,0.0,0.0,0.0,0.0,0.0,0.0,0.0,0.0,0.0,0.0,0.0,0.0,0.0,0.0,0.0,0.0,0.0,0.0,0.0,0.0,0.0,0.0,0.0,0.0,0.0,0.0,0.0,0.0,0.0,0.0,0.0,0.0,0.0,0.0,0.0,0.0,0.0,0.0,0.0,0.0,0.0,0.0,0.0,0.0,0.0,0.0,0.0,0.0,0.0,0.0,0.0,0.0,0.0,0.0,0.0,0.0,0.0,0.0,0.0,0.0,0.0,0.0,0.0,0.0,0.0,0.0,0.0,0.0,0.0,0.0,0.0,0.0,0.0,0.0,0.0,0.0,0.0,0.0,0.0,0.0,0.0,0.0,0.0,0.0,0.0,0.0,0.0,0.0,0.0,0.0,0.0,0.0,0.0,0.0,0.0,0.0,0.0,0.0,0.0,0.0,0.0,0.0,0.0,0.0,0.0,0.0,0.0,0.0,0.0,0.0,0.0,0.0,0.0,0.0,0.0,0.0,0.0,0.0,0.0,0.0,0.0,0.0,0.0,0.0,0.0,0.0,0.0,0.0,0.0,0.0,0.0,0.0,0.0,0.0,0.0,0.0,0.0,0.0,0.0,0.0,0.0,0.0,0.0,0.0,0.0,0.0,0.0,0.0,0.0,0.0,0.0,0.0,0.0,0.0,0.0,0.0,0.0,0.0,0.0,0.0,0.0,0.0,0.0,0.0,0.0,0.0,0.0,0.0,0.0,0.0,0.0,0.0,0.0,0.0,0.0,0.0,0.0,0.0,0.0,0.0,0.0,0.0,0.0,0.0,0.0,0.0,0.0,0.0,0.0,0.0,0.0,0.0,0.0,0.0,0.0,0.0,0.0,0.0,0.0,0.0,0.0,0.0,0.0,0.0,0.0,0.0,0.0,0.0,0.0,0.0,0.0,0.0,0.0,0.0,0.0,0.0,0.0,0.0,0.0,0.0,0.0,0.0,0.0,0.0,0.0,0.0,0.0,0.0,0.0,0.0,0.0,0.0,0.0,0.0,0.0,0.0,0.0,0.0,0.0,0.0,0.0,0.0,0.0,0.0,0.0,0.0,0.0,0.0,0.0,0.0,0.0,0.0,0.0,0.0,0.0,0.0,0.0,0.0,0.0,0.0,0.0,0.0,0.0,0.0,0.0,0.0,0.0,0.0,0.0,0.0,0.0,0.0,0.0,0.0,0.0,0.0,0.0,0.0,0.0,0.0,0.0,0.0,0.0,0.0,0.0,0.0,0.0,0.0,0.0,0.0,0.0,0.0,0.0,0.0,0.0,0.0,0.0,0.0,0.0,0.0,0.0,0.0,0.0,-0.0441,0.3206,0.0,0.0,0.0,0.0,0.0,0.0,0.0,0.0,0.0,0.0,0.0,0.0,0.0,0.0,0.0,0.0,0.0,0.0,0.0,0.0,0.0,0.0,0.0,0.0,0.0,0.0,0.0,0.0,0.0,0.0,0.0,0.0,0.0,0.0,0.0,0.0,0.0,1.3932,1.1995,1.0361,0.9082,1.1318,1.4203,1.7485,0.0,0.0,0.0,0.0,0.0,0.0,0.0,0.0,0.0,0.0,0.0,0.0,0.0,0.0,0.0,0.0,0.0,0.0,0.0,0.0,0.0,0.0,0.0,0.0,0.0,0.0,0.0,0.0,0.0,0.0,0.0,0.0,0.0,0.0,0.0,0.0,0.0,0.0,0.0,0.0,0.0,0.0,0.0,0.0,0.0,0.0,0.0,0.0,0.0,0.0,0.0,0.0,0.0,0.0,0.0,0.0,0.0,0.0,0.0,0.0,0.0,0.0,0.0,0.0,0.0,0.0,0.0,0.0,0.0,0.0,-0.7815,-0.3799,0.0,0.0,0.0,0.0,0.0,0.0,0.0,0.0,0.0,0.0,0.0,0.0,0.0,0.0,0.0,0.0,0.0,0.0,0.0,0.0,0.0,0.0,0.0,1.9965,1.9836,2.0333,2.0333,2.0526,0.0,0.0,0.0,0.0,0.0,0.0,0.0,1.4166,1.1566,0.9331,0.5835,0.3765,0.3008,0.2782,0.5964,1.1997,1.4026,0.0,0.0,0.0,0.0,0.0,0.0,0.0,0.0,0.0,0.0,0.0,0.0,0.0,0.0,0.0,0.0,0.0,0.0,0.0,0.0,0.0,0.0,0.0,0.0,0.0,0.0,0.0,0.0,0.0,0.0,0.0,0.0,0.0,0.0,0.0,0.0,0.0,0.0,0.0,0.0,0.0,0.0,0.0,0.0,0.0,0.0,0.0,0.0,0.0,0.0,0.0,0.0,0.0,0.0,0.0,0.0,0.0,0.0,0.0,0.0,0.0,0.0,0.0,-2.0205,-2.0945,-2.252,-2.1771,-2.072,-1.9309,-1.459,-1.1179,-0.869,-0.6013,0.0,0.0,0.0,0.0,0.0,0.0,0.0,0.0,0.0,0.0,0.0,0.0,0.0,0.0,0.0,0.0,0.0,0.0,0.0,0.0,0.0,1.7426,1.7793,1.8435,1.8854,1.9357,1.9814,0.0,0.0,0.0,0.0,0.0,1.26,1.0635,0.766,0.3747,-0.1049,-0.3515,-0.37,-0.3985,-0.3081,-0.0944,0.6584,1.1006,1.2856,0.0,0.0,0.0,0.0,0.0,0.0,0.0,0.0,0.0,0.0,0.0,0.0,0.0,0.0,0.0,0.0,0.0,0.0,0.0,0.0,0.0,0.0,0.0,0.0,0.0,0.0,0.0,0.0,0.0,0.0,0.0,0.0,0.0,0.0,0.0,0.0,0.0,0.0,0.0,0.0,0.0,-1.2089,-1.3465,0.0,0.0,0.0,0.0,0.0,0.0,0.0,0.0,0.0,0.0,0.0,0.0,0.0,-1.952,-1.9723,-2.041,-2.1109,-2.1872,-2.2505,-2.2585,-2.2173,-2.2458,-2.2004,-2.0933,-2.0165,0.0,-1.3389,-1.1153,0.0,0.0,0.0,0.0,0.0,0.0,0.0,0.0,0.0,0.0,0.0,0.0,0.0,0.0,0.0,0.0,0.0,0.0,0.0,0.0,0.0,1.2486,1.2897,1.4498,1.5223,1.626,1.7784,1.7436,0.0,0.0,0.0,1.1559,0.8739,0.5593,0.1191,-0.4353,-0.7877,-0.9656,-0.9807,-1.0799,-1.0621,-0.9339,-0.557,-0.0213,0.6085,0.8877,0.0,0.0,0.0,0.0,0.0,0.0,0.0,0.0,0.0,0.0,0.0,0.0,0.0,0.0,0.0,0.0,0.0,0.0,0.0,0.0,0.0,0.0,0.0,0.0,0.0,0.0,0.0,0.0,0.0,0.0,0.0,0.0,0.0,0.0,0.0,0.0,0.0,0.0,0.0,-1.4595,-1.7415,-1.7642,-1.7627,-1.6888,0.0,0.0,0.0,0.0,0.0,0.0,0.0,0.0,0.0,-2.1951,-2.2499,-2.2858,-2.2925,-2.2828,-2.322,-2.403,-2.4159,-2.4207,-2.4335,-2.4524,-2.4017,-2.2857,-2.2658,-2.1131,-1.8572,-1.6728,-1.5083,-1.3761,0.0,0.0,0.0,0.0,-1.2699,-1.1506,0.0,0.0,0.0,0.0,0.0,0.0,0.0,0.0,0.0,0.0,0.0,0.0,0.8061,0.73,0.7694,0.988,1.1051,1.2637,1.4817,1.4643,1.3945,1.2656,1.0053,0.7368,0.4517,-0.015,-0.519,-1.0572,-1.3071,-1.4465,-1.48,-1.6333,-1.6689,-1.6049,-1.6175,-1.0873,-0.1661,0.1353,0.4637,0.825,0.0,0.0,0.0,0.0,0.0,0.0,0.0,0.0,0.0,0.0,0.0,0.0,0.0,0.0,0.0,0.0,0.0,0.0,0.0,0.0,0.0,0.0,0.0,0.0,0.0,0.0,0.0,0.0,0.0,0.0,0.0,0.0,0.0,0.0,0.0,0.0,0.0,-1.9887,-2.182,-2.133,-2.2127,-2.1548,0.0,0.0,0.0,0.0,0.0,0.0,-2.2334,-2.3504,-2.4436,-2.4907,-2.4966,-2.5039,-2.5134,-2.439,-2.435,-2.5144,-2.4715,-2.4805,-2.5373,-2.5373,-2.4786,-2.38,-2.3601,-2.302,-2.2097,-2.0712,-1.9399,-1.8294,-1.8267,-1.7953,-1.761,-1.7374,-1.6458,-1.5053,0.0,0.0,0.0,0.0,0.0,0.0,0.0,0.0,0.0,0.0,0.0,0.4916,0.2772,0.2481,0.316,0.4966,0.6921,0.8846,1.0755,1.123,1.0527,0.8596,0.5982,0.2971,-0.0538,-0.6317,-1.0463,-1.2767,-1.548,-1.729,-1.8295,-1.9706,-2.0887,-2.187,-2.2351,-1.7885,-0.995,-0.7599,-0.3992,0.0626,0.4501,0.0,0.0,0.0,0.0,0.0,0.0,0.0,0.0,0.0,0.0,0.0,0.0,0.0,0.0,0.0,0.0,0.0,0.0,0.0,0.0,0.0,0.0,0.0,0.0,0.0,0.0,0.0,0.0,0.0,0.0,0.0,0.0,0.0,0.0,0.0,0.0,0.0,0.0,-2.5861,-2.6032,0.0,0.0,0.0,0.0,-2.208,-2.3493,-2.4586,-2.5292,-2.6271,-2.6822,-2.673,-2.5818,-2.5467,-2.5952,-2.4619,-2.4061,-2.4061,-2.3651,-2.3538,-2.3538,-2.3538,-2.3338,-2.3038,-2.3038,-2.2837,-2.2518,-2.1528,-2.1065,-2.0982,-2.1022,-2.0857,-2.0532,-1.9852,-1.871,-1.7252,0.0,0.0,0.0,0.0,0.0,0.0,0.0,0.0,0.8512,0.4989,0.2005,-0.0599,-0.2456,-0.3456,-0.3092,-0.0827,0.1222,0.3622,0.6324,0.6587,0.6008,0.4746,0.1891,-0.1908,-0.6655,-1.0103,-1.2785,-1.473,-1.7591,-1.9312,-1.9922,-2.248,-2.3917,-2.4391,-2.6462,-2.5375,-2.1687,-1.6881,-1.1874,-0.6808,-0.201,0.333,0.0,0.0,0.0,0.0,0.0,0.0,0.0,0.0,0.0,0.0,0.0,0.0,0.0,0.0,0.0,0.0,0.0,0.0,0.0,0.0,0.0,0.0,0.0,0.0,0.0,0.0,0.0,0.0,0.0,0.0,0.0,0.0,0.0,0.0,0.0,0.0,0.0,-2.7217,-2.8143,0.0,-2.506,-2.422,-2.3485,-2.2348,-2.4013,-2.5,-2.4735,-2.6247,-2.7181,-2.7207,-2.6626,-2.6497,-2.6943,-2.5581,-2.4954,-2.4832,-2.4263,-2.3854,-2.3655,-2.3655,-2.3555,-2.3256,-2.3038,-2.2955,-2.2736,-2.1577,-2.1309,-2.1745,-2.1049,-2.0625,-2.024,-1.9017,-1.786,-1.6698,0.0,0.0,0.0,0.0,0.0,0.0,0.0,0.0,0.6233,0.2592,-0.0832,-0.3667,-0.5754,-0.7127,-0.6972,-0.4725,-0.2897,-0.0784,0.1998,0.2169,0.1806,0.097,-0.2506,-0.6331,-1.046,-1.2728,-1.4584,-1.5964,-1.8965,-2.0655,-2.1014,-2.4038,-2.5646,-2.615,-2.8338,-2.9281,-2.8826,-2.4348,-1.9641,-1.4676,-0.9548,-0.3717,0.2371,0.0,0.0,0.0,0.0,0.0,0.0,0.0,0.0,0.0,0.0,0.0,0.0,0.0,0.0,0.0,0.0,0.0,0.0,0.0,0.0,0.0,0.0,0.0,0.0,0.0,0.0,0.0,0.0,0.0,0.0,0.0,0.0,0.0,0.0,-2.5738,-2.7393,-2.6847,-2.825,-2.8235,-2.5563,-2.5178,-2.4609,-2.3372,-2.4809,-2.5644,-2.5586,-2.6911,-2.7765,-2.802,-2.7419,-2.7201,-2.7493,-2.6068,-2.5307,-2.5161,-2.4482,-2.4152,-2.3954,-2.3538,-2.3238,-2.2937,-2.2434,-2.2131,-2.1928,-2.0877,-2.0775,-2.1216,-2.0524,-2.0091,-1.9775,-1.8397,-1.7261,-1.6316,0.0,0.0,0.0,0.0,0.0,0.0,0.0,0.7449,0.4525,0.0297,-0.198,-0.4151,-0.6841,-0.8262,-0.8219,-0.636,-0.5298,-0.3926,-0.2072,-0.1838,-0.2051,-0.27,-0.7064,-1.0239,-1.1779,-1.4347,-1.5912,-1.6418,-1.9704,-2.1432,-2.1682,-2.4226,-2.605,-2.7305,-2.8071,-2.9349,-3.0849,-2.9694,-2.6882,-2.2814,-1.7919,-1.2189,-0.5888,0.0,0.0,0.0,0.0,0.0,0.0,0.0,0.0,0.0,0.0,0.0,0.0,0.0,0.0,0.0,0.0,0.0,0.0,0.0,0.0,0.0,0.0,0.0,0.0,0.0,0.0,0.0,0.0,0.0,0.0,0.0,0.0,0.0,-2.2238,-2.4342,-2.572,-2.5043,-2.6682,-2.7109,-2.5093,-2.5538,-2.5786,-2.5566,-2.6048,-2.6804,-2.7925,-2.8246,-2.8572,-2.9126,-2.8014,-2.7513,-2.7617,-2.6191,-2.5197,-2.4812,-2.439,-2.4189,-2.4089,-2.3073,-2.2367,-2.2063,-2.1027,-2.0411,-2.0101,-1.9776,-1.9554,-1.9628,-1.9607,-1.9619,-1.94,-1.7981,-1.7139,-1.6332,0.0,0.0,0.0,0.0,0.0,0.0,0.0,0.6611,0.3499,0.0597,-0.2509,-0.4909,-0.6286,-0.7759,-0.809,-0.6569,-0.5996,-0.5176,-0.3993,-0.4323,-0.5247,-0.695,-0.901,-1.0932,-1.258,-1.4722,-1.6265,-1.7098,-2.0094,-2.1667,-2.2039,-2.459,-2.5965,-2.638,-2.8282,-2.9205,-2.9275,-2.9139,-2.8082,-2.6022,-2.1463,-1.6705,-1.1739,0.0,0.0,0.0,0.0,0.0,0.0,0.0,0.0,0.0,0.0,0.0,0.0,0.0,0.0,0.0,0.0,0.0,0.0,0.0,0.0,0.0,0.0,0.0,0.0,0.0,0.0,0.0,0.0,0.0,0.0,0.0,-2.179,-2.2845,-2.4193,-2.5427,-2.6465,-2.7058,-2.7221,-2.7168,-2.6615,-2.6172,-2.5823,-2.5422,-2.6391,-2.6836,-2.6481,-2.7379,-2.7782,-2.7513,-2.7113,-2.7055,-2.7125,-2.6411,-2.5518,-2.4314,-2.4801,-2.4189,-2.2485,-2.3026,-2.28,-2.1851,-2.1321,-2.0969,-2.0662,-1.9735,-1.9297,-1.8944,-1.8345,-1.8143,-1.8036,-1.6547,-1.5304,-1.4161,0.0,0.0,0.0,0.0,0.0,0.0,0.0,0.6442,0.3534,0.1198,-0.1677,-0.3764,-0.4646,-0.6242,-0.679,-0.565,-0.5676,-0.5625,-0.5243,-0.6016,-0.7459,-0.9511,-1.0731,-1.2002,-1.3448,-1.5549,-1.7004,-1.7677,-2.0182,-2.1565,-2.1877,-2.3773,-2.4834,-2.5245,-2.6386,-2.7313,-2.7932,-2.6973,-2.6859,-2.6988,-2.3229,-1.9805,-1.6513,-1.1817,-0.7885,-0.4466,-0.1183,0.0421,0.1517,0.3845,0.0,0.0,0.0,0.0,0.0,0.0,0.0,0.0,0.0,0.0,0.0,0.0,0.0,0.0,0.0,0.0,0.0,0.0,0.0,0.0,0.0,0.0,0.0,0.0,-2.068,-2.1734,-2.2926,-2.4645,-2.6041,-2.6807,-2.6824,-2.6774,-2.671,-2.6268,-2.5964,-2.5848,-2.6541,-2.6598,-2.5751,-2.6473,-2.6692,-2.6313,-2.5883,-2.5793,-2.619,-2.5523,-2.4558,-2.3419,-2.3857,-2.3313,-2.1818,-2.2033,-2.1695,-2.1063,-2.0426,-2.0033,-1.9648,-1.9002,-1.8163,-1.7359,0.0,0.0,0.0,0.0,-1.3851,-1.2871,0.0,0.0,0.0,0.0,0.0,0.0,0.0,0.6681,0.4313,0.2173,0.0153,-0.1392,-0.2178,-0.3658,-0.4332,-0.3809,-0.4412,-0.515,-0.5899,-0.7134,-0.8656,-1.0538,-1.1767,-1.2865,-1.4042,-1.6227,-1.7445,-1.7687,-1.9792,-2.0968,-2.1158,-2.225,-2.3153,-2.3858,-2.3398,-2.4406,-2.6364,-2.3841,-2.4067,-2.5735,-2.3163,-2.145,-2.0042,-1.5967,-1.3021,-1.0426,-0.5958,-0.4218,-0.3657,-0.0464,0.0,0.0,0.0,0.0,0.0,0.0,0.0,0.0,0.0,0.0,0.0,0.0,0.0,0.0,0.0,0.0,0.0,0.0,0.0,0.0,0.0,0.0,0.0,0.0,-1.9328,-2.0149,-2.0362,-2.2641,-2.4607,-2.5094,-2.5504,-2.5702,-2.5613,-2.5809,-2.5916,-2.6023,-2.6236,-2.608,-2.5551,-2.5569,0.0,0.0,0.0,-2.4276,-2.5039,-2.3955,-2.2901,-2.2145,-2.2253,-2.2037,-2.1496,-2.0624,-2.0186,-1.9981,-1.9015,-1.8313,-1.7939,-1.8007,-1.6833,-1.531,-1.6511,-1.6356,-1.5108,-1.3274,-1.2525,-1.2161,0.0,0.0,0.0,0.0,0.0,0.0,0.0,0.6988,0.5243,0.3689,0.2415,0.1486,0.0955,0.0298,-0.0229,-0.0312,-0.1447,-0.3332,-0.6213,-0.7258,-0.8356,-0.9541,-1.0387,-1.1378,-1.2631,-1.4057,-1.5172,-1.5972,-1.8145,-1.9356,-1.9629,-2.0654,-2.1478,-2.2104,-2.1837,-2.1916,-2.2202,-2.1449,-2.1085,-2.0941,-2.0171,-2.042,-2.0957,-1.8196,-1.5639,-1.3141,-0.949,-0.761,-0.6513,-0.3981,-0.1883,-0.0097,0.0691,0.2416,0.0,0.0,0.0,0.0,0.0,0.0,0.0,0.0,0.0,0.0,0.0,0.0,0.0,0.0,0.0,0.0,0.0,0.0,0.0,-1.9076,-2.0019,-2.0707,-2.1148,-2.2054,-2.2656,-2.2702,-2.2938,-2.3288,-2.3517,-2.4437,-2.4786,-2.3994,-2.5116,-2.548,-2.465,-2.4744,-2.4855,-2.4855,-2.4616,-2.4488,-2.4437,-2.3994,-2.3071,-2.1759,-2.2432,0.0,-1.9873,-2.0643,-2.043,-1.953,-1.9314,-1.8441,-1.7264,-1.7535,-1.6448,-1.4621,-1.3999,-1.369,-1.326,-1.1966,-1.1446,-1.1302,0.0,0.0,0.0,0.0,0.0,0.0,0.0,0.889,0.7548,0.622,0.5274,0.4574,0.4132,0.3238,0.2568,0.2182,-0.0308,-0.2825,-0.5126,-0.6648,-0.7935,-0.8981,-0.9564,-1.0363,-1.1518,-1.2527,-1.3332,-1.3997,-1.5553,-1.6402,-1.6674,-1.7245,-1.7903,-1.8479,-1.7843,-1.8108,-1.8853,-1.775,-1.7134,-1.6879,-1.6641,-1.6445,-1.6374,-1.6474,-1.5389,-1.3375,-1.0362,-0.8984,-0.8217,-0.5847,-0.4287,-0.3075,-0.2328,-0.0825,0.0626,0.0,0.0,0.0,0.0,0.0,0.0,0.0,0.0,0.0,0.0,0.0,0.0,0.0,0.0,-1.4261,-1.5479,0.0,-1.6735,-1.7747,-1.8565,-1.9163,-1.9236,-1.9709,-2.0699,-2.2386,-2.2593,-2.2784,-2.2958,-2.3536,-2.376,-2.3407,-2.4078,-2.4206,-2.3199,-2.3295,-2.3407,-2.3407,-2.2846,-2.2733,-2.3199,-2.1813,-2.0673,-1.9754,-1.9625,-1.8829,-1.7467,-1.8144,-1.804,-1.7479,-1.7599,-1.695,-1.5781,-1.4971,-1.4143,-1.3269,-1.1896,-1.1711,-1.2181,-1.0894,-1.0472,-1.0419,0.0,0.0,0.0,0.0,0.0,0.0,0.0,1.1272,1.0306,0.8946,0.8282,0.7659,0.6979,0.5909,0.4904,0.402,0.054,-0.2146,-0.331,-0.5296,-0.6829,-0.7779,-0.8144,-0.8792,-0.9757,-1.0317,-1.084,-1.1388,-1.2315,-1.2888,-1.3069,-1.3341,-1.3767,-1.4268,-1.3341,-1.369,-1.4737,-1.3478,-1.2857,-1.2829,-1.2725,-1.1629,-1.0218,-1.2349,-1.2892,-1.2213,-0.9644,-0.8691,-0.8532,-0.6651,-0.5641,-0.517,-0.4357,-0.3268,-0.2335,-0.2408,-0.1993,0.0,0.0,0.0,0.0,0.0,0.0,0.0,0.0,-1.4406,-1.4094,-1.4256,-1.4193,-1.4119,-1.4298,-1.4977,-1.5528,-1.5602,-1.631,-1.6724,-1.6511,-1.6894,-1.8263,-2.1045,-2.1858,-2.2184,-2.2297,-2.2523,-2.2652,-2.2812,-2.2974,-2.2523,-2.1476,-2.1417,-2.1259,-2.1031,-2.0127,-2.0012,-2.1016,-1.8958,-1.7793,-1.7547,-1.6492,-1.5795,-1.558,-1.5612,-1.5515,-1.5525,-1.5387,-1.4911,-1.4212,-1.2294,-1.1663,-1.1663,-1.0065,-1.0058,-1.0778,-1.0058,-0.9572,-0.9207,0.0,0.0,0.0,0.0,0.0,0.0,0.0,0.0,1.2818,1.1306,1.112,1.0692,0.9409,0.873,0.7466,0.5127,0.2033,-0.0151,-0.0976,-0.2691,-0.3895,-0.4509,-0.4763,-0.522,-0.6108,-0.6087,-0.6486,-0.7408,-0.8413,-0.9061,-0.9449,-0.9801,-1.0109,-1.034,-0.9838,-0.9135,-0.8317,-0.9,-0.8684,-0.7673,-0.817,-0.7261,-0.5643,-0.5657,-0.7339,-0.946,-0.7204,-0.6467,-0.6366,-0.6116,-0.5082,-0.4147,-0.5145,-0.4445,-0.3368,-0.3471,-0.3969,-0.4559,-0.4755,-0.735,-1.0272,-1.1062,-1.2994,-1.4842,0.0,-1.5278,-1.4751,-1.3635,-1.3393,-1.3142,-1.2445,-1.2498,-1.2931,-1.3442,-1.3846,-1.4212,-1.441,-1.4538,-1.4878,-1.5565,-1.7929,-1.9461,-1.9822,-2.0716,-2.1176,-2.0662,-2.132,-2.1046,-1.9207,-1.8985,-1.826,-1.7184,-1.695,-1.695,-1.7184,-1.6609,-1.6256,-1.6256,-1.5795,-1.5569,-1.558,-1.5413,-1.5377,-1.5266,-1.4014,-1.3332,-1.3154,-1.1402,-1.0623,-1.05,-0.8757,-0.7978,-0.8094,-0.9329,-0.8836,-0.7606,0.0,0.0,0.0,0.0,0.0,0.0,0.0,0.0,0.0,1.3481,1.3477,1.3092,1.1757,1.0561,0.8875,0.6395,0.4304,0.2441,0.0917,-0.0618,-0.1761,-0.2439,-0.2447,-0.2702,-0.3229,-0.2702,-0.2715,-0.3351,-0.3817,-0.4181,-0.4592,-0.4849,-0.4737,-0.4414,-0.4115,-0.3515,-0.2681,-0.3034,-0.2852,-0.2342,-0.2869,-0.231,-0.108,-0.1197,-0.1784,-0.2664,-0.3228,-0.3691,0.0,-0.391,-0.43,-0.4845,-0.5235,-0.5367,-0.5491,-0.5543,-0.59,-0.6389,-0.6581,-0.8804,-1.1045,-1.0492,-1.2255,-1.3918,-1.3388,-1.3122,-1.2892,-1.263,-1.2465,-1.2293,-1.2037,-1.2298,-1.2568,-1.3014,-1.3301,-1.363,-1.3996,-1.4023,-1.4144,-1.4592,-1.5645,-1.6563,-1.6816,-1.7276,-1.7443,-1.7196,-1.7673,-1.7565,-1.6857,-1.6759,-1.6503,-1.6031,-1.5784,-1.5666,-1.5666,-1.4599,-1.4123,-1.4123,-1.3295,-1.2933,-1.2835,-1.2899,-1.2966,-1.3069,-1.217,-1.1837,-1.178,-0.9716,-0.8775,-0.8632,-0.6878,-0.6093,-0.6085,-0.6898,-0.6634,-0.5896,0.0,0.0,0.0,0.0,0.0,0.0,0.0,0.0,0.0,0.0,1.5315,1.4807,1.3153,1.1822,1.0211,0.8251,0.6769,0.5206,0.3407,0.2013,0.0918,0.0148,0.0146,0.0144,0.0209,0.0767,0.1061,0.0949,0.0892,0.0686,0.0392,0.0319,0.0482,0.0961,0.1362,0.1762,0.2164,0.228,0.2313,0.2435,0.1853,0.2171,0.3018,0.2821,0.3364,0.371,0.0784,-0.0693,-0.1104,-0.1318,-0.2583,-0.4005,-0.4239,-0.5096,-0.597,-0.6403,-0.6843,-0.722,-0.7519,-0.9215,-1.0747,-0.9849,-1.1319,-1.2776,-1.1938,-1.1574,-1.1409,-1.1069,-1.0775,-1.0475,-0.9962,-1.0096,-1.0601,-1.124,-1.1128,-1.1215,-1.2105,-1.1884,-1.1728,-1.2154,-1.2178,-1.2581,-1.3147,-1.4317,-1.5027,-1.5087,-1.5145,-1.5136,-1.4779,-1.4821,-1.468,-1.4262,-1.4013,-1.3923,-1.3981,-1.2776,-1.2206,-1.2256,-1.1418,-1.1046,-1.0934,-1.1099,-1.0927,-1.0534,-1.0128,-0.9761,-0.9341,-0.7596,-0.6905,-0.6787,-0.5008,-0.4345,-0.4212,-0.4151,-0.4151,-0.418,0.0,0.0,0.0,0.0,0.0,0.0,0.0,0.0,0.0,0.0,0.0,0.0,0.0,1.2388,1.1735,1.084,0.935,0.7922,0.6912,0.5739,0.4639,0.3627,0.3556,0.3921,0.4813,0.4665,0.4921,0.5689,0.5536,0.5352,0.5181,0.5181,0.5099,0.493,0.5816,0.6159,0.6116,0.6172,0.6179,0.6099,0.5441,0.5735,0.66,0.6868,0.7744,0.828,0.4004,0.2513,0.2429,0.1464,0.0418,-0.0518,-0.1685,-0.2863,-0.3943,-0.5098,-0.6289,-0.7182,-0.7312,-0.8439,-0.9618,-0.9761,-1.089,-1.1996,-1.1872,-1.1872,-1.117,-0.8672,-0.806,-0.7297,-0.4628,-0.4371,-0.5137,-0.6554,-0.5906,-0.5642,-0.7061,-0.6417,-0.5804,-0.5893,-0.6296,-0.7121,-0.8684,-1.257,-1.5097,-1.5433,-1.5242,-1.451,-1.3519,-1.3217,-1.2411,-1.1035,-1.0906,-1.0989,-1.1155,-1.1031,-1.1113,-1.1277,-1.115,-1.115,-1.115,-1.1056,-0.9895,-0.8153,-0.8039,-0.713,-0.5608,-0.5245,-0.5196,-0.4986,-0.3554,-0.2891,-0.2404,-0.1067,-0.1442,-0.2585,0.0,0.0,0.0,0.0,0.0,0.0,0.0,0.0,0.0,0.0,0.0,0.0,0.0,0.0,0.0,0.0,1.1682,1.074,0.9503,0.8899,0.8095,0.7001,0.7712,0.8144,0.8369,0.9216,0.9728,0.9966,1.0373,1.0365,0.9956,1.0564,1.1259,1.2075,1.1702,1.1977,1.2828,1.2024,1.1423,1.1013,1.085,1.06,1.0268,1.0087,1.0194,1.0088,0.0,0.6029,0.4986,0.3699,0.185,-0.0104,-0.0632,-0.1999,-0.3467,-0.3892,-0.4966,-0.6074,-0.6244,-0.7914,-0.9387,-0.8684,-0.8928,-0.9032,-0.8248,-0.7434,-0.661,-0.5792,-0.5504,-0.5209,-0.4305,-0.4305,-0.4565,-0.5349,-0.4956,-0.4968,-0.5807,-0.5504,-0.524,-0.545,-0.5594,-0.5871,-0.6431,-0.8212,-1.0143,-1.2188,-1.1379,-1.077,-1.0392,-1.0376,-0.9764,-0.8335,-0.8084,-0.798,-0.8023,-0.777,-0.7536,-0.7444,-0.7184,-0.7089,-0.7288,-0.7121,-0.6739,-0.6251,-0.6284,-0.5889,-0.5342,-0.402,-0.3484,-0.3333,-0.1629,-0.0864,-0.0489,-0.012,0.0,-0.0359,0.0,0.0,0.0,0.0,0.0,0.0,0.0,0.0,0.0,0.0,0.0,0.0,0.0,0.0,0.0,0.0,0.0,1.3673,1.2531,1.2176,1.1564,1.0587,1.1502,1.2157,1.2335,1.336,1.4046,1.4436,1.4667,1.4687,1.456,1.5092,1.5801,1.6645,1.6507,1.6653,1.698,1.6354,1.5618,1.4764,1.454,1.3975,1.3093,1.2506,1.2062,0.0,0.896,0.7434,0.6585,0.5137,0.3058,0.1028,0.0104,-0.1894,-0.3928,-0.3602,-0.4697,-0.5965,-0.5208,-0.6635,-0.8066,-0.6799,-0.6607,-0.6415,-0.5597,-0.4365,-0.3502,-0.356,-0.2753,-0.2079,-0.2071,-0.2078,-0.2342,-0.3105,-0.312,-0.3279,-0.4121,-0.3831,-0.3567,-0.3617,-0.3775,-0.4057,-0.4594,-0.4594,-0.5662,-0.8579,-0.8101,-0.752,-0.7476,-0.7537,-0.7222,-0.6285,-0.603,-0.5921,-0.5953,-0.5824,-0.558,-0.5479,-0.5188,-0.5202,-0.5377,-0.53,-0.4881,-0.4497,-0.4386,-0.4128,-0.3344,-0.2057,-0.1539,-0.1403,-0.0125,0.0494,0.0611,0.1075,0.1412,0.1405,0.0,0.0,0.0,0.0,0.0,0.0,0.0,0.0,0.0,0.0,0.0,0.0,0.0,0.0,0.0,0.0,0.0,0.0,1.5873,1.5576,1.5034,1.4267,1.5048,1.5804,1.6621,1.6955,1.7714,1.907,1.8378,1.8357,1.8897,1.8813,1.8752,1.8867,2.009,1.997,1.8806,1.9195,1.8617,1.7383,1.6606,1.5844,1.5096,1.408,1.3383,1.2394,0.8499,0.7169,0.7124,0.5435,0.4096,0.2638,0.0412,-0.2549,-0.4943,-0.3795,-0.5276,-0.6749,-0.4389,-0.4843,-0.5651,-0.4273,-0.3896,-0.3896,-0.3773,-0.2635,-0.1636,-0.1666,0.0385,0.2041,0.2018,0.2039,0.1538,0.0,-0.0128,-0.0521,-0.1845,-0.1057,-0.0531,-0.0539,-0.0819,-0.1513,-0.2884,-0.1787,-0.2187,-0.4977,-0.5235,-0.5202,-0.5001,-0.4994,-0.4959,-0.4762,-0.4759,-0.4794,-0.486,-0.486,-0.4895,-0.5095,-0.5159,-0.5122,-0.5112,-0.5171,-0.4109,-0.2564,-0.253,-0.1524,0.0129,0.05,0.0623,0.0629,0.11,0.1207,0.1322,0.244,0.2868,0.2649,0.0,0.0,0.0,0.0,0.0,0.0,0.0,0.0,0.0,0.0,0.0,0.0,0.0,0.0,0.0,0.0,0.0,0.0,1.7826,1.7785,1.7674,1.7566,1.836,1.9254,2.0212,2.0494,2.0886,2.1209,2.1473,2.1527,2.1369,2.1827,2.2369,2.2766,2.2312,2.2287,2.2569,2.1114,2.0377,2.0145,1.852,1.7304,1.6263,1.485,1.3674,1.2413,0.8835,0.7611,0.7328,0.4583,0.2307,0.0321,-0.0982,-0.2021,-0.2657,-0.1277,-0.2121,-0.3236,-0.2659,-0.3427,-0.4203,-0.2841,-0.1729,-0.0495,0.1371,0.2874,0.4145,0.509,0.5069,0.4906,0.4893,0.3306,0.1806,0.1429,0.0665,-0.0136,-0.0551,-0.0276,-0.0138,-0.0139,-0.0279,-0.0419,-0.0837,-0.0558,-0.0557,-0.1386,-0.2853,-0.377,-0.3661,-0.3624,-0.3199,-0.2128,-0.2128,-0.2132,-0.2139,-0.1872,-0.1741,-0.1748,-0.1473,-0.1323,-0.1426,-0.1162,-0.0764,-0.025,0.0,0.0377,0.0875,0.1879,0.2371,0.2477,0.3559,0.4007,0.4318,0.4464,0.463,0.4825,0.0,0.0,0.0,0.0,0.0,0.0,0.0,0.0,0.0,0.0,0.0,0.0,0.0,0.0,0.0,0.0,0.0,0.0,0.0,2.0876,2.1035,2.1217,2.2041,2.2548,2.2767,2.3649,2.3885,2.3481,2.4077,2.4067,2.3548,2.3829,2.4094,2.4346,2.4284,2.4185,2.3966,2.2926,2.2264,0.0,0.0,1.8134,1.672,1.4791,1.3203,1.1487,0.8445,0.6582,0.5255,0.3149,0.0873,-0.1218,-0.2156,-0.2573,-0.2401,-0.1202,-0.1708,-0.2477,-0.0738,-0.1241,-0.1755,0.025,0.124,0.2096,0.387,0.5481,0.6832,0.7127,0.7475,0.7675,0.7006,0.491,0.3346,0.3224,0.1729,0.0547,0.0555,0.0556,0.0557,0.0561,0.0564,0.0566,0.0566,0.1131,0.1275,0.0571,-0.0974,-0.1786,-0.1799,-0.1777,-0.1492,-0.0679,-0.0675,-0.0539,-0.0404,0.0,0.0269,0.0269,0.0401,0.0529,0.0521,0.0647,0.0767,0.0755,0.1513,0.1884,0.1993,0.3489,0.4094,0.4183,0.5039,0.5358,0.5638,0.6016,0.6152,0.6412,0.0,0.0,0.0,0.0,0.0,0.0,0.0,0.0,0.0,0.0,0.0,0.0,0.0,0.0,0.0,0.0,0.0,0.0,0.0,0.0,2.4359,2.4808,2.5335,2.5394,2.4945,2.6139,2.6252,2.53,2.5886,2.5791,2.5111,2.4992,2.4823,2.4653,2.5816,2.552,2.4116,2.4378,2.3691,2.23,2.0362,1.8415,1.6549,0.0,1.2228,1.0343,0.7692,0.5178,0.2963,0.1951,0.0229,-0.1824,-0.2467,-0.3024,-0.3094,-0.1736,-0.2145,-0.2308,0.139,0.1523,0.128,0.4229,0.4771,0.481,0.5504,0.7182,0.8441,0.7696,0.9297,1.0485,0.9248,0.7084,0.5496,0.5456,0.3282,0.1765,0.1519,0.1524,0.1392,0.1268,0.1425,0.1434,0.1434,0.2863,0.3305,0.1894,0.1142,0.0563,0.0141,0.0139,0.0138,0.0137,0.0136,0.0269,0.0539,0.0943,0.1077,0.1077,0.1064,0.1188,0.1317,0.143,0.1549,0.1802,0.2923,0.3408,0.3522,0.5084,0.579,0.5778,0.6267,0.6337,0.6372,0.7455,0.7685,0.7783,0.0,0.0,0.0,0.0,0.0,0.0,0.0,0.0,0.0,0.0,2.2827,2.2794,0.0,0.0,0.0,0.0,0.0,0.0,0.0,0.0,0.0,2.7384,2.682,2.6763,2.7557,2.6848,2.6139,2.5535,2.5535,2.537,2.5253,2.5492,2.5559,2.5362,2.5814,2.5521,2.4648,2.4237,2.3113,2.149,2.0119,1.811,1.5658,1.3656,0.0,0.0,0.8023,0.6097,0.4436,0.3855,0.1557,-0.0971,-0.0123,-0.0754,-0.1405,0.0766,0.1282,0.1539,0.3663,0.4527,0.5405,0.7416,0.8301,0.9201,1.0841,1.2101,1.3048,1.3159,1.3526,1.3756,1.347,1.0494,0.8248,0.8394,0.6317,0.4284,0.3295,0.3169,0.2596,0.1304,0.232,0.3045,0.3045,0.449,0.5361,0.5084,0.4921,0.3738,0.1141,0.0986,0.0974,0.0962,0.0949,0.0943,0.0943,0.1077,0.1077,0.1077,0.1074,0.1731,0.2894,0.3148,0.3904,0.5141,0.5514,0.5724,0.5655,0.7017,0.7578,0.7612,0.8714,0.931,0.9513,0.9618,0.9697,0.9788,0.0,0.0,0.0,0.0,0.0,0.0,0.0,0.0,2.4155,2.5041,2.5699,2.6144,2.6232,2.6423,0.0,0.0,0.0,0.0,0.0,0.0,0.0,0.0,2.7801,2.7448,2.7596,2.7341,2.6771,2.6019,0.0,2.6406,2.5733,2.6139,2.611,2.5725,2.6558,2.6084,2.4682,2.4861,2.3602,2.1326,2.0111,1.8309,1.6064,0.0,0.0,0.0,1.0002,0.8984,0.8335,0.7974,0.6408,0.4386,0.2933,0.2719,0.314,0.4288,0.4717,0.5277,0.7463,0.7975,0.8408,1.0721,1.1495,1.1776,1.296,1.3761,1.449,1.4738,1.4847,1.4847,1.4847,1.2403,1.044,1.0739,0.9123,0.7584,0.6425,0.6312,0.5757,0.4358,0.4942,0.5373,0.5373,0.6677,0.7259,0.6532,0.7115,0.6372,0.3749,0.3558,0.3511,0.3603,0.3691,0.3677,0.3839,0.3785,0.3907,0.407,0.3907,0.4278,0.491,0.5046,0.5554,0.6169,0.6983,0.7165,0.7239,0.8493,0.902,0.9201,0.9815,1.0258,1.0419,1.0346,1.0332,1.0301,0.0,0.0,0.0,0.0,0.0,0.0,0.0,2.4428,2.5616,2.6691,2.8319,2.9324,2.9173,2.8779,2.8559,0.0,0.0,0.0,0.0,0.0,0.0,0.0,0.0,0.0,2.7691,0.0,0.0,2.6651,2.7507,0.0,0.0,0.0,0.0,0.0,2.7472,2.6819,2.5037,2.5227,2.3805,0.0,0.0,1.8447,1.6455,0.0,0.0,0.0,0.0,1.194,1.2023,1.1979,1.1311,1.012,0.7098,0.6688,0.7544,0.7722,0.7985,0.8789,1.1185,1.1497,1.1615,1.3831,1.4196,1.4071,1.4098,1.4679,1.5084,1.5203,1.5451,1.5569,1.5569,1.4013,1.2699,1.3088,1.2057,1.0752,0.945,0.9636,0.9117,0.7246,0.7544,0.7833,0.7548,0.8853,0.9291,0.8131,0.9147,0.8709,0.6242,0.6026,0.6096,0.603,0.6226,0.6344,0.6395,0.6417,0.6509,0.6677,0.6488,0.6585,0.6836,0.6836,0.7102,0.736,0.8378,0.8799,0.8753,0.9777,1.0264,1.0472,1.0436,1.059,1.0725,1.0725,1.062,1.0585,0.0,0.0,0.0,0.0,0.0,0.0,0.0,2.5573,2.6799,2.9174,3.0423,3.1416,3.2549,3.0814,2.9915,0.0,0.0,0.0,0.0,0.0,0.0,0.0,0.0,0.0,0.0,0.0,0.0,2.736,2.7335,0.0,0.0,0.0,0.0,0.0,0.0,2.7589,2.6288,2.4614,0.0,0.0,0.0,0.0,0.0,0.0,0.0,0.0,0.0,1.3644,1.3509,1.3573,1.3555,1.3295,1.3163,1.1464,0.9632,1.0656,1.1264,1.2022,1.3718,1.5007,1.5923,1.6244,1.6614,1.664,1.5908,1.6288,1.6537,1.5688,1.6526,1.7244,1.7244,1.6205,1.5366,1.5887,1.4993,1.3325,1.1253,1.216,1.1516,0.7531,0.9407,1.0699,0.9285,1.0455,1.1325,1.1181,1.1325,1.0017,0.7115,0.6888,0.6839,0.6831,0.6881,0.6798,0.6719,0.6789,0.6739,0.6447,0.6656,0.7328,0.844,0.844,0.9111,1.0313,1.069,1.0857,1.0711,1.1068,1.1158,1.1001,1.0852,1.0899,1.1253,1.1253,1.1264,1.1358,0.0,0.0,0.0,0.0,0.0,0.0,0.0,2.6897,2.8425,3.0228,3.1223,3.2129,3.3043,3.2326,3.1879,0.0,0.0,0.0,0.0,0.0,0.0,0.0,0.0,0.0,0.0,0.0,2.81,2.8,2.809,0.0,0.0,0.0,0.0,0.0,0.0,2.7406,2.5212,2.4488,0.0,0.0,0.0,0.0,0.0,0.0,0.0,0.0,0.0,0.0,1.8764,1.8749,1.8669,1.8488,1.8407,1.7721,1.6597,1.5679,1.5703,1.6308,1.7956,1.7851,1.7566,1.8415,1.8501,1.8218,1.7679,1.7608,1.7434,1.6796,1.7126,1.7479,1.7479,1.7126,1.6601,1.6334,1.5794,1.5022,1.3713,1.4069,1.3497,1.1127,1.2009,1.2194,1.0875,1.1181,1.1619,1.1619,1.1619,1.1038,0.9873,0.9684,0.9798,0.9798,0.9677,0.9619,0.9648,0.9469,0.9365,0.9336,0.9367,0.9692,1.018,1.0445,1.0843,1.138,1.141,1.146,1.1386,1.1359,1.1321,1.1279,1.121,1.137,1.1647,1.1647,1.1607,1.1663,0.0,0.0,0.0,0.0,0.0,2.5678,2.7164,2.844,2.9762,3.1272,3.2042,3.2616,3.3043,3.3068,3.3068,3.3068,0.0,0.0,0.0,0.0,0.0,0.0,0.0,0.0,0.0,0.0,2.8872,2.8889,2.9273,2.9278,0.0,0.0,2.9324,2.8317,0.0,0.0,0.0,0.0,0.0,0.0,0.0,0.0,0.0,0.0,0.0,0.0,0.0,0.0,0.0,0.0,0.0,2.1965,2.1743,2.1757,2.173,1.982,1.9663,2.0307,2.1603,2.0984,2.0255,2.1098,2.0876,2.0387,2.009,1.9588,1.8979,1.8345,1.8177,1.8034,1.7608,1.7479,1.7387,1.6975,1.6977,1.6746,1.5944,1.6349,1.6141,1.4595,1.4363,1.4022,1.3216,1.2858,1.2466,1.2043,1.19,1.19,1.19,1.19,1.1907,1.1763,1.1796,1.1768,1.1837,1.1559,1.1427,1.1572,1.1489,1.1495,1.1445,1.1666,1.1776,1.1769,1.1788,1.1988,1.2362,1.2314,1.2296,1.2424,1.2862,1.2725,1.2448,1.2933,1.2776,1.2371,0.0,0.0,0.0,0.0,0.0,0.0,0.0,3.0121,3.0845,3.2832,3.3068,3.3068,3.3068,3.3068,3.3068,3.3068,0.0,0.0,0.0,0.0,0.0,0.0,0.0,0.0,0.0,0.0,3.1029,3.0263,3.0565,3.067,3.0396,2.9706,2.9412,2.9235,0.0,0.0,0.0,0.0,0.0,0.0,0.0,0.0,0.0,0.0,0.0,0.0,0.0,0.0,0.0,0.0,0.0,0.0,0.0,2.2849,2.3331,2.2364,2.2661,2.349,2.381,2.451,2.492,2.4583,2.4027,2.3471,2.3245,2.2686,2.1785,2.0155,1.9865,1.9417,1.7762,1.7479,1.7693,1.8332,1.8604,1.858,1.7931,1.9277,1.9412,1.6685,1.6466,1.6556,1.6746,1.5728,1.4298,1.2896,1.2753,1.2753,1.2753,1.2753,1.2617,1.2194,1.261,1.2678,1.2522,1.2671,1.2581,1.2268,1.2261,1.2171,1.2008,1.1851,1.1776,1.1784,1.2173,1.3087,1.4362,1.4538,1.4581,1.469,1.5857,1.5391,1.4099,1.5429,1.5052,1.3665,0.0,0.0,0.0,0.0,0.0,0.0,0.0,2.9861,3.0785,3.1838,3.224,3.2641,3.3043,3.3068,3.3068,3.3068,0.0,0.0,0.0,0.0,0.0,0.0,0.0,0.0,0.0,0.0,3.1229,3.0835,3.1132,3.0955,3.042,3.0117,2.9396,2.8305,2.6436,2.5217,0.0,0.0,0.0,0.0,0.0,0.0,2.4111,0.0,0.0,0.0,0.0,0.0,0.0,0.0,0.0,0.0,0.0,0.0,0.0,2.6148,2.588,2.5521,2.6124,2.5881,2.5421,2.5313,2.4464,2.3471,2.3149,2.2877,2.2238,2.0842,2.1012,2.1033,1.9679,1.9965,1.9929,1.8663,1.8532,1.8408,1.8058,1.8617,1.8742,1.805,1.6451,1.5961,1.6997,1.4964,1.3737,1.4307,1.3317,1.2753,1.2753,1.3039,1.3039,1.2617,1.2753,1.2731,1.2678,1.2619,1.2537,1.244,1.2597,1.2589,1.2419,1.2633,1.3203,1.3875,1.4271,1.5035,1.6213,1.6713,1.6619,1.6347,1.6958,1.685,1.6245,1.6463,1.6355,1.5773,0.0,0.0,0.0,0.0,0.0,0.0,0.0,3.0338,3.111,3.1637,3.219,3.2667,3.3043,3.3068,3.3169,3.337,0.0,0.0,0.0,0.0,0.0,0.0,0.0,0.0,0.0,3.1913,3.1955,3.1872,3.208,3.1809,3.1135,3.0466,2.9401,2.8054,2.6349,2.5139,0.0,0.0,0.0,0.0,0.0,0.0,2.5551,0.0,0.0,0.0,0.0,0.0,0.0,0.0,0.0,0.0,0.0,0.0,0.0,0.0,2.8407,2.8056,2.8612,2.813,2.742,2.742,2.6165,2.5015,2.4797,2.4608,2.4022,2.2132,2.2301,2.2318,2.0914,2.0753,2.0571,1.9879,1.9402,1.915,1.9103,1.9395,1.9531,1.9131,1.8287,1.7544,1.6718,1.5671,1.4867,1.4591,1.3745,1.3468,1.403,1.4173,1.4591,1.4867,1.3745,1.3182,1.3182,1.3082,1.331,1.3866,1.3964,1.4182,1.4522,1.4718,1.5101,1.5694,1.5823,1.664,0.0,1.8358,1.8347,1.8154,1.8888,1.8629,1.7976,1.8242,1.7952,1.7213,0.0,0.0,0.0,0.0,0.0,0.0,0.0,0.0,0.0,3.2089,3.2692,3.3068,3.3068,3.3068,3.3294,3.3847,0.0,0.0,0.0,0.0,0.0,0.0,0.0,0.0,0.0,3.2757,3.3057,3.3107,3.3104,3.2871,3.23,3.0726,2.9479,2.8328,2.6256,2.543,0.0,0.0,0.0,0.0,0.0,0.0,0.0,0.0,0.0,0.0,0.0,0.0,0.0,0.0,0.0,0.0,0.0,0.0,0.0,0.0,0.0,0.0,0.0,3.0857,3.018,3.0057,2.88,2.7693,2.7693,2.7539,0.0,2.4037,2.3733,2.3505,2.1958,2.0591,2.0241,2.1675,2.0971,2.0539,2.1096,2.143,2.1346,2.0256,2.136,2.0712,1.6847,1.7586,1.7288,1.4625,1.4332,1.4884,1.615,1.6291,1.6987,1.8379,1.5726,1.4181,1.4181,1.4181,1.4884,1.6291,1.6091,1.6716,1.7712,1.7464,1.7358,1.713,1.713,1.8159,1.9671,1.9707,1.9866,2.0182,2.115,2.0631,1.9328,2.0341,1.9794,1.857,0.0,0.0,0.0,0.0,0.0,0.0,0.0,0.0,0.0,0.0,3.2466,3.3068,3.3068,3.3068,3.3294,0.0,0.0,0.0,0.0,0.0,0.0,0.0,0.0,0.0,0.0,3.2512,3.2689,3.2759,3.2695,3.2134,3.1337,2.9706,2.8471,2.7791,2.6097,2.543,0.0,0.0,0.0,0.0,0.0,0.0,0.0,0.0,0.0,0.0,2.8095,2.8315,0.0,0.0,0.0,0.0,0.0,0.0,0.0,0.0,3.0393,3.1281,3.1616,0.0,3.0878,3.0168,2.8919,2.792,0.0,2.7832,2.7504,2.604,2.6402,2.6542,2.5201,2.4404,2.3925,2.3564,2.2428,2.159,2.1504,2.2084,2.2443,2.2225,2.1837,2.1629,2.157,1.9899,1.8932,1.9368,1.8065,1.7539,1.783,1.7819,1.7959,1.8379,1.7679,1.7409,1.7409,1.7409,1.7549,1.7819,1.7767,1.7909,1.7949,1.7712,1.8139,1.8948,1.8948,1.9653,2.0732,2.1163,2.1385,2.1267,2.1686,2.17,2.1346,2.1328,2.1168,2.068,0.0,0.0,0.0,0.0,0.0,0.0,0.0,0.0,0.0,0.0,0.0,0.0,0.0,0.0,0.0,0.0,0.0,0.0,0.0,0.0,0.0,0.0,0.0,0.0,3.1666,3.2031,3.2319,3.2294,3.2509,3.1991,3.0745,2.9597,2.8735,2.7949,2.7065,2.6835,0.0,0.0,0.0,0.0,2.8706,0.0,0.0,0.0,0.0,0.0,2.8315,2.8517,0.0,2.892,2.8874,2.8755,0.0,0.0,0.0,0.0,3.049,3.0956,3.1073,3.1093,3.0779,3.0306,2.9232,2.8286,2.8286,2.8264,2.79,2.6762,2.7021,2.7091,2.5786,2.4907,2.4161,2.3673,2.2572,2.1905,2.2002,2.2472,2.2913,2.306,2.2639,2.2345,2.2333,2.0745,1.9838,1.9853,1.9016,1.8659,1.9367,1.9367,1.9785,2.0479,2.0479,1.9785,1.8379,1.8379,1.8798,1.9367,1.9367,1.9646,2.0083,1.9939,2.0148,2.0679,2.0551,2.0877,2.1523,2.171,2.1857,2.1951,2.1977,2.2071,2.2151,2.1857,2.183,2.1793,0.0,0.0,0.0,0.0,0.0,0.0,0.0,0.0,0.0,0.0,0.0,0.0,0.0,0.0,0.0,0.0,0.0,0.0,0.0,0.0,0.0,0.0,0.0,3.1666,3.0739,3.1344,3.1644,3.1703,3.215,3.1628,3.0329,2.991,2.9318,2.8398,2.8457,2.8652,0.0,0.0,0.0,0.0,2.9163,0.0,0.0,0.0,0.0,0.0,0.0,0.0,0.0,2.9213,2.9331,2.9331,2.9331,0.0,0.0,0.0,0.0,0.0,3.0351,3.0181,3.0102,2.9971,2.9143,2.8447,2.8394,2.825,2.79,2.6762,2.6762,2.6658,2.5365,2.4022,2.3164,2.3223,2.2368,2.1871,2.2405,2.2779,2.31,2.3367,2.3474,2.291,2.1666,2.1525,2.0838,1.9296,1.91,1.9646,2.0906,2.0906,2.1609,2.2859,2.2859,2.1734,1.9077,1.9077,1.9646,2.0906,2.0906,2.1483,2.2485,2.2445,2.2285,2.2031,2.1697,2.1697,2.1897,2.1697,2.1911,2.2338,2.2124,2.2231,2.2458,2.2164,2.2231,2.2485,0.0,0.0,0.0,0.0,0.0,0.0,0.0,0.0,0.0,0.0,0.0,0.0,0.0,0.0,0.0,0.0,0.0,0.0,0.0,0.0,0.0,0.0,3.1414,3.0947,3.0251,2.9833,3.01,3.0965,3.0456,3.0282,3.0512,2.9567,2.8917,2.8848,2.9199,2.9199,2.8965,0.0,0.0,0.0,3.0161,0.0,0.0,0.0,0.0,0.0,0.0,0.0,0.0,3.0138,3.047,3.047,3.047,0.0,0.0,0.0,0.0,0.0,2.986,2.9133,2.8268,2.7748,2.7713,2.7607,2.7297,2.7177,2.7142,2.7021,2.7004,2.6621,2.5577,2.4356,2.3574,2.3866,2.3008,2.2405,2.2752,2.3273,2.3647,2.3701,2.4142,2.409,2.3456,2.3417,2.3143,2.2562,2.2302,2.2297,2.2585,2.2585,2.2722,2.2859,2.2859,2.2722,2.216,2.216,2.2297,2.2585,2.2585,2.2696,2.2779,2.2539,2.2392,2.2325,2.179,2.1577,2.163,2.1844,2.1977,2.2071,2.2271,2.2539,2.2752,2.2458,2.2539,2.2832,0.0,0.0,0.0,0.0,0.0,0.0,0.0,0.0,0.0,0.0,0.0,0.0,0.0,0.0,0.0,0.0,0.0,0.0,0.0,0.0,0.0,3.142,3.0471,2.9645,2.8726,2.9138,2.9415,2.9659,2.9973,3.0113,3.0028,2.9479,2.9277,2.9277,2.9473,2.959,2.9629,3.0019,0.0,0.0,0.0,0.0,0.0,0.0,0.0,0.0,0.0,0.0,0.0,0.0,3.1381,3.082,3.082,0.0,0.0,0.0,0.0,0.0,2.8456,2.8044,2.7368,2.553,2.61,2.6881,2.6463,2.6208,2.6208,2.6208,2.606,2.5724,2.4884,2.4223,2.3797,2.3672,2.3229,2.3006,2.3313,2.3594,2.3834,2.3981,2.4235,2.4434,2.4309,2.4147,2.4059,2.3899,2.3584,2.3543,2.3543,2.3543,2.3543,2.3543,2.3543,2.3543,2.3543,2.3543,2.327,2.2859,2.3133,2.3133,2.3133,2.327,2.3201,2.3174,2.2869,2.2772,2.291,2.2717,2.2841,2.313,2.2969,2.3242,2.3653,2.3542,2.3593,2.3877,0.0,0.0,0.0,0.0,0.0,0.0,0.0,0.0,0.0,0.0,0.0,0.0,0.0,0.0,0.0,0.0,0.0,0.0,0.0,0.0,3.2909,3.0643,2.9411,2.8492,2.7661,2.8346,2.8676,2.8545,2.9595,3.0037,2.9726,2.9824,2.9824,2.9726,2.9824,3.0,3.0195,3.0312,3.0625,0.0,0.0,0.0,0.0,0.0,0.0,0.0,0.0,0.0,0.0,0.0,0.0,0.0,0.0,0.0,0.0,2.9094,2.8737,2.8379,2.7367,2.6856,2.6189,2.4052,2.4698,2.5763,2.5405,2.5264,2.5233,2.5184,2.4983,2.4589,2.3826,2.378,2.3722,2.3485,2.352,2.3668,2.4106,2.4147,2.4255,2.4553,2.4593,2.4698,2.4919,2.4644,2.4482,2.4442,2.4134,2.3966,2.3966,2.3966,2.3966,2.3966,2.3966,2.3966,2.3966,2.3966,2.3679,2.3133,2.3406,2.3543,2.3543,2.3816,2.3966,2.3938,2.363,2.363,2.3826,2.342,2.3532,2.3938,2.377,2.3994,2.4442,2.4468,2.4589,2.4795,0.0,0.0,0.0,0.0,0.0,0.0,0.0,0.0,0.0,0.0,0.0,0.0,0.0,0.0,0.0,0.0,0.0,0.0,0.0,0.0,3.0665,2.939,2.8304,2.7663,2.7604,2.7122,2.7226,2.8062,2.8668,2.9447,3.0156,3.0586,3.0566,3.0176,3.0605,3.0566,3.0234,3.0664,3.1074,3.1445,0.0,0.0,0.0,0.0,0.0,0.0,0.0,0.0,0.0,0.0,0.0,0.0,0.0,0.0,3.047,2.9331,2.8122,2.7211,2.7432,2.5657,2.3799,2.3701,2.373,2.405,2.4349,2.4247,2.4245,2.4408,2.4452,2.4055,2.278,2.2983,2.3525,2.3858,2.409,2.452,2.5124,2.531,2.5422,2.5583,2.5611,2.566,2.5366,2.5058,2.475,2.4428,2.4134,2.3966,2.3966,2.3966,2.3966,2.3966,2.3966,2.3966,2.3966,2.3966,2.3952,2.3966,2.3966,2.3952,2.3952,2.3952,2.3966,2.3938,2.363,2.3504,2.3546,2.3798,2.3924,2.398,2.4246,2.4372,2.4456,2.4609,2.4734,2.4762,0.0,0.0,0.0,0.0,0.0,0.0,0.0,0.0,0.0,0.0,0.0,0.0,0.0,0.0,0.0,0.0,0.0,0.0,0.0,3.0896,3.0464,2.9351,2.8271,2.769,2.769,2.737,2.8095,3.0138,3.1588,3.2176,3.1755,3.1937,3.1476,3.0644,3.082,3.0801,3.0664,3.1094,3.1367,3.1504,3.1348,0.0,0.0,0.0,0.0,0.0,0.0,0.0,0.0,0.0,3.1822,3.082,3.082,3.0236,2.9431,2.8122,2.7383,2.6726,2.5469,2.4305,2.3391,2.3028,2.2724,2.2655,2.289,2.3292,2.361,2.3513,2.3665,2.3667,2.3379,2.3707,2.4121,2.4634,2.48,2.5124,2.5576,2.5632,2.5674,2.5786,2.58,2.5904,2.6082,2.5783,2.547,2.5437,2.512,2.4847,2.466,2.4645,2.4645,2.4645,2.4645,2.4645,2.4645,2.4645,2.4645,2.4645,2.4374,2.4374,2.436,2.451,2.4645,2.4631,2.4516,2.4573,2.4746,2.4674,2.4761,2.4948,2.5063,2.5106,2.512,2.4972,2.4988,2.513,0.0,0.0,0.0,0.0,0.0,0.0,0.0,0.0,0.0,0.0,0.0,0.0,0.0,0.0,0.0,0.0,0.0,0.0,2.9445,2.9916,2.9711,2.8654,2.8133,2.7999,2.8222,2.823,2.9124,3.0929,3.286,3.3459,3.2685,3.2342,3.1672,3.0898,3.0898,3.0898,3.0918,3.1191,3.1406,3.1504,3.1367,3.1268,0.0,0.0,0.0,0.0,0.0,0.0,0.0,0.0,3.1265,3.0274,3.0409,2.9498,2.8335,2.7591,2.675,2.5686,2.403,2.3449,2.3049,2.2576,2.2471,2.2576,2.2753,2.3147,2.3566,2.3583,2.3651,2.3732,2.3997,2.4358,2.4694,2.527,2.5496,2.5707,2.6064,2.6239,2.6239,2.6239,2.6239,2.6239,2.6546,2.6157,2.5968,2.6032,2.5622,2.5286,2.5066,2.5052,2.5052,2.5052,2.5052,2.5052,2.5052,2.5052,2.5052,2.5052,2.4781,2.4645,2.4645,2.4916,2.5052,2.5052,2.5052,2.5183,2.5359,2.5154,2.5183,2.5374,2.5374,2.5374,2.5374,2.5099,2.5164,2.5408,0.0,0.0,0.0,0.0,0.0,0.0,0.0,0.0,0.0,0.0,0.0,0.0,0.0,0.0,0.0,0.0,0.0,0.0,2.9328,2.8831,2.8188,2.716,2.7583,2.833,2.9263,2.9789,3.0008,3.0028,3.1871,3.2685,3.2685,3.1441,3.0898,3.0898,3.0898,3.0898,3.0898,3.0898,3.1133,3.1484,3.1074,3.1152,0.0,0.0,0.0,0.0,0.0,0.0,0.0,0.0,3.0255,2.9067,2.9452,2.8587,2.7548,2.7906,2.6104,2.3941,2.3941,2.3289,2.2517,2.2517,2.3015,2.3658,2.4274,2.4136,2.4093,2.482,2.4638,2.4414,2.4414,2.4666,2.5017,2.5455,2.5984,2.6531,2.6983,2.6983,2.6983,2.6983,2.6983,2.6983,2.6983,2.6413,2.6032,2.6018,2.5432,2.5066,2.5066,2.5052,2.5052,2.5052,2.5052,2.5052,2.5052,2.5052,2.5052,2.5052,2.5052,2.5052,2.5052,2.5052,2.5052,2.5052,2.5052,2.5052,2.5052,2.5052,2.5052,2.5052,2.5066,2.5066,2.5066,2.5066,2.5271,2.5397,0.0,0.0,0.0,0.0,0.0,0.0,0.0,0.0,0.0,0.0,0.0,0.0,0.0,0.0,0.0,0.0,0.0,0.0,2.7926,2.7883,2.8219,2.8974,2.9106,3.0016,3.1739,3.2827,3.3741,3.4317,3.4623,3.445,3.3888,3.2333,3.1351,3.0898,3.0898,3.0898,3.0918,3.1211,3.1406,3.1504,3.2076,3.1978,0.0,0.0,0.0,0.0,0.0,0.0,0.0,0.0,0.0,0.0,2.8818,2.823,2.7621,2.5689,2.4705,2.3855,2.3426,2.3084,2.3006,2.3495,2.391,2.4587,2.5981,2.5389,2.4734,2.5408,2.6222,2.6384,2.5297,2.6334,2.6968,2.6018,2.6226,2.6576,2.6954,2.6983,2.6983,2.6983,2.6983,2.6983,2.6983,2.6822,2.6603,2.6383,2.5974,2.5637,2.5403,2.5183,2.5052,2.5052,2.5052,2.5052,2.5052,2.5052,2.5052,2.5052,2.5052,2.5052,2.5052,2.5052,2.5052,2.5052,2.5052,2.5052,2.5052,2.5052,2.5052,2.5081,2.5301,2.5388,2.5418,2.5652,2.5798,2.5871,0.0,0.0,0.0,0.0,0.0,0.0,0.0,0.0,0.0,0.0,0.0,0.0,0.0,0.0,0.0,0.0,0.0,0.0,0.0,2.8411,2.9168,3.0213,3.0686,3.1891,3.3907,3.4644,3.5405,3.6231,3.5069,3.4225,3.3364,3.1973,3.0997,3.0625,3.082,3.0898,3.0918,3.1152,3.1269,3.1269,3.1838,3.182,3.1484,0.0,0.0,0.0,0.0,0.0,0.0,0.0,0.0,0.0,2.8576,2.7594,2.6327,2.4788,2.4055,2.37,2.3226,2.3403,2.3756,2.42,2.4549,2.5135,2.6481,2.6489,2.6594,2.6982,2.7244,2.6884,2.6052,2.6758,2.7321,2.6349,2.6486,2.6764,2.6969,2.6983,2.6983,2.6983,2.6983,2.6983,2.6983,2.6866,2.672,2.6515,2.6193,2.593,2.574,2.5549,2.5432,2.5432,2.5432,2.5432,2.5432,2.5432,2.5432,2.5432,2.5432,2.5432,2.5432,2.5169,2.5052,2.5066,2.5183,2.5315,2.5432,2.5432,2.5432,2.5461,2.5652,2.5725,2.5754,2.5944,2.6091,2.6208,0.0,0.0,0.0,0.0,0.0,0.0,0.0,0.0,0.0,0.0,3.2264,0.0,0.0,0.0,0.0,0.0,0.0,0.0,0.0,0.0,3.0759,3.1154,3.2443,3.4012,3.5769,3.5557,3.5596,3.6013,3.3896,3.2576,3.1961,3.0704,3.0156,3.0215,3.0684,3.0898,3.0898,3.0898,3.1015,3.0995,3.1035,3.129,3.1642,3.1682,0.0,0.0,0.0,0.0,0.0,0.0,0.0,0.0,2.852,2.6676,2.4509,2.4785,2.421,2.3406,2.3543,2.398,2.461,2.4911,2.544,2.5973,2.6438,2.7725,2.8853,2.8996,2.7855,2.6816,2.6515,2.6801,2.6816,2.65,2.6778,2.6983,2.6983,2.6983,2.6983,2.6983,2.6983,2.6983,2.6983,2.672,2.6544,2.6544,2.6237,2.6061,2.6061,2.6032,2.6018,2.6018,2.6018,2.6018,2.6158,2.6018,2.6018,2.6158,2.6018,2.6018,2.6003,2.5418,2.514,2.5154,2.5447,2.574,2.6018,2.6018,2.6018,2.6018,2.6047,2.6061,2.6061,2.6091,2.6296,2.6544,0.0,0.0,0.0,0.0,0.0,0.0,0.0,0.0,0.0,0.0,0.0,0.0,0.0,0.0,0.0,0.0,0.0,0.0,0.0,0.0,3.1577,3.3078,3.5081,3.6422,3.6868,3.5875,3.5143,3.4781,3.2724,3.1835,3.194,3.0406,2.9883,3.0215,3.0684,3.0898,3.0898,3.0898,3.1344,3.1923,3.2266,3.2351,3.2235,3.2575,3.2387,0.0,0.0,0.0,0.0,0.0,0.0,0.0,2.7785,2.6229,2.4651,2.3924,2.3543,2.3543,2.4088,2.4545,2.5034,2.5382,2.6737,2.8458,2.9921,2.9644,2.8806,2.735,2.8854,2.9612,2.6974,2.8664,2.9612,2.6959,2.6778,2.6983,2.6983,2.6983,2.6983,2.6983,2.6983,2.6983,2.6983,2.6925,2.6881,2.6881,2.6588,2.6398,2.6398,2.6149,2.6018,2.6018,2.6018,2.6564,2.7786,2.6564,2.6564,2.7786,2.6564,2.6018,2.6018,2.5871,2.5813,2.5813,2.5886,2.5944,2.6018,2.6018,2.6018,2.6047,2.6296,2.6398,2.6427,2.6691,2.6822,2.6881,0.0,0.0,0.0,0.0,0.0,0.0,0.0,0.0,0.0,0.0,0.0,0.0,0.0,0.0,0.0,0.0,0.0,0.0,0.0,0.0,3.3053,3.4923,3.6398,3.7092,3.6697,3.5352,3.4273,3.3572,3.2065,3.1182,3.0873,3.0201,2.9883,2.9922,3.0586,3.0898,3.0898,3.0898,3.123,3.1876,3.1998,3.2097,3.2391,3.2363,3.2219,3.21,3.1865,0.0,0.0,0.0,0.0,0.0,0.0,0.0,2.5143,2.4602,2.4839,2.55,2.6448,2.6709,2.6478,2.6084,2.7473,2.9296,3.0184,3.0376,3.0042,2.9154,2.9676,3.0042,2.9154,3.0244,3.0876,2.9138,2.8996,2.8963,2.8114,2.8114,2.784,2.7129,2.6983,2.6983,2.6983,2.6983,2.6983,2.6983,2.6837,2.6735,2.6735,2.6574,2.6486,2.6486,2.6486,2.6899,2.7737,2.6899,2.6899,2.7737,2.6899,2.6486,2.6471,2.6164,2.6105,2.6252,2.6252,2.6339,2.6486,2.6486,2.6486,2.65,2.6676,2.6735,2.6764,2.6925,2.7086,2.7217,0.0,0.0,0.0,0.0,0.0,0.0,0.0,0.0,0.0,0.0,0.0,0.0,0.0,0.0,0.0,0.0,0.0,0.0,0.0,0.0,0.0,3.6218,3.6566,3.6543,3.6094,3.436,3.3304,3.3006,3.201,3.1105,3.0122,3.032,3.028,2.9931,3.0486,3.0858,3.1112,3.0954,3.1171,3.1742,3.1287,3.1455,3.1988,3.1846,3.1841,3.1978,3.1854,3.1782,3.1782,3.1506,0.0,0.0,0.0,0.0,2.5935,2.592,2.6656,2.7685,2.8893,2.8956,2.8435,2.7611,2.8473,2.9663,2.9949,3.0801,3.1649,3.1789,3.0943,3.0233,3.1367,3.1649,3.1789,3.1508,3.1226,3.066,2.9377,2.8963,2.8403,2.7129,2.6983,2.6983,2.6983,2.6983,2.6983,2.6983,2.6983,2.6983,2.6983,2.6983,2.6983,2.6983,2.6983,2.7129,2.742,2.742,2.742,2.742,2.7129,2.6983,2.6969,2.6427,2.6339,2.6588,2.6588,2.6735,2.6983,2.6983,2.6983,2.6998,2.7056,2.7071,2.7086,2.713,2.7335,2.7554,0.0,0.0,0.0,0.0,0.0,0.0,0.0,0.0,0.0,0.0,2.9988,2.8817,0.0,0.0,0.0,0.0,0.0,0.0,3.3095,0.0,0.0,3.5713,3.538,3.5248,3.5543,3.3398,3.2839,3.4112,3.2767,3.2158,3.2272,3.1622,3.1236,3.1248,3.0201,3.0611,3.1957,3.1167,3.1646,3.2768,3.1828,3.1327,3.0975,3.1238,3.0983,3.0567,3.1267,3.1506,3.1506,3.1377,3.0455,0.0,0.0,0.0,2.7387,2.78,2.8097,2.8659,2.9053,2.9713,3.0275,3.0691,3.1051,3.1508,3.2927,3.2351,3.193,3.3206,3.3345,3.2788,3.1649,3.263,3.3067,3.1649,3.0376,2.9377,2.925,2.8114,2.7274,2.6983,2.6983,2.6983,2.6983,2.6983,2.6983,2.6983,2.6983,2.6983,2.6983,2.6983,2.6983,2.6983,2.6983,2.755,2.8963,2.8963,2.8963,2.8963,2.755,2.6983,2.6983,2.6896,2.6881,2.6925,2.6925,2.6954,2.6983,2.6983,2.6983,2.7013,2.7305,2.7408,2.7437,2.7715,2.7847,2.7891,0.0,0.0,0.0,0.0,0.0,0.0,0.0,0.0,0.0,0.0,0.0,2.9349,0.0,0.0,0.0,3.0789,3.1692,3.2533,3.3173,3.3959,3.4268,3.4223,3.4208,3.3997,3.3464,3.2496,3.2525,3.3459,3.3092,3.3444,3.4615,3.3364,3.2301,3.1142,3.0344,3.0571,3.1686,3.0366,3.069,3.186,3.0839,3.0255,3.0135,3.0568,3.0328,2.9947,3.0754,3.1047,3.1084,3.1304,3.0991,3.0325,2.9787,0.0,0.0,0.0,3.004,3.0715,3.1159,3.1666,3.1802,3.1511,3.2211,3.2927,3.3623,3.39,3.4195,3.4883,3.504,3.4883,3.4176,3.4609,3.4746,3.4176,3.3484,3.277,3.193,3.1226,3.0233,2.8676,2.8547,2.8259,2.771,2.7565,2.7565,2.7565,2.7565,2.7565,2.7565,2.7565,2.7565,2.7565,2.7565,2.8259,2.952,2.952,2.9806,3.0518,2.9806,2.9107,2.8259,2.8259,2.784,2.6983,2.6983,2.6983,2.6998,2.7188,2.7261,2.7291,2.7613,2.7744,2.7759,2.7905,2.8066,2.8227,0.0,0.0,0.0,0.0,0.0,0.0,0.0,0.0,0.0,0.0,0.0,0.0,0.0,0.0,0.0,0.0,3.196,3.2385,3.326,3.3098,3.2959,3.3155,3.2938,3.259,3.2051,3.1961,3.2301,3.3027,3.3566,3.4759,3.6274,3.4997,3.3663,3.2036,3.078,3.0695,3.1451,2.9898,3.0035,3.0948,2.9815,2.9273,2.909,2.9591,2.9544,2.9397,3.0314,3.0699,3.0846,3.1249,3.1377,3.1249,3.0567,3.0567,0.0,0.0,0.0,3.2357,3.2661,3.3071,3.3237,3.2105,3.3206,3.4501,3.4501,3.5425,3.6348,3.6348,3.6348,3.6309,3.6211,3.6094,3.6016,3.6016,3.5743,3.504,3.3918,3.3484,3.2491,3.0518,3.0233,2.9806,2.8691,2.8547,2.8418,2.813,2.813,2.813,2.813,2.8418,2.8547,2.8547,2.8835,2.9393,3.0233,3.0233,3.0801,3.207,3.1367,3.0376,2.925,2.9473,2.8671,2.7115,2.7115,2.7115,2.7144,2.7466,2.7598,2.7627,2.7949,2.8066,2.8095,2.8256,2.8417,2.8564,0.0,0.0,0.0,0.0,0.0,0.0,0.0,0.0,0.0,0.0,0.0,0.0,2.9988,3.08,3.127,3.1383,3.2244,3.2889,3.326,3.2418,3.2264,3.3078,3.1176,0.0,3.1828,3.1961,3.2616,3.3909,3.4891,3.5848,3.6697,3.5979,3.5533,3.5269,3.1938,3.0917,3.1552,3.0373,3.0502,3.125,2.9536,2.848,2.7875,2.8315,2.848,2.8608,2.98,3.0479,3.0846,3.1249,3.1377,3.1506,3.1653,3.2038,3.2422,0.0,0.0,0.0,3.2134,3.3218,3.4296,3.3219,3.4765,3.6502,3.6502,3.6934,3.7226,3.7226,3.7226,3.7109,3.6719,3.6289,3.6016,3.6016,3.4902,3.3918,3.3762,3.2491,3.1508,3.1367,3.1367,3.0943,2.9806,2.9663,2.925,2.813,2.813,2.813,2.813,2.9107,2.9663,2.9663,3.0801,3.1367,3.1367,3.1367,3.2211,3.3623,3.1084,2.9663,2.925,3.0018,2.932,2.7452,2.7452,2.7452,2.7481,2.7803,2.792,2.7964,2.8286,2.8417,2.8476,2.9076,2.912,2.8915,0.0,0.0,0.0,0.0,0.0,0.0,0.0,0.0,0.0,0.0,0.0,0.0,0.0,3.1713,3.2089,3.1737,3.193,3.183,3.1363,3.1228,3.0993,3.0557,3.035,3.0756,3.194,3.2271,3.3402,3.5135,3.5356,3.607,3.7198,3.6407,3.5923,3.5648,3.2363,3.16,3.2468,2.9629,2.9122,3.0062,2.8975,2.805,2.749,2.8425,2.8443,2.815,2.936,3.0057,3.0479,3.1117,3.1559,3.1782,3.2422,3.2676,3.2804,3.3165,3.3292,3.3389,3.3283,3.3772,3.4342,3.4509,3.5413,3.625,3.625,3.6797,3.7226,3.6953,3.7109,3.7246,3.709,3.6719,3.6348,3.6074,3.5606,3.5177,3.5177,3.4746,3.4176,3.3327,3.3327,3.291,3.1807,3.096,3.0818,3.1384,2.9838,2.9552,3.1243,3.0818,3.096,3.1666,3.2088,3.2648,3.3327,3.4038,3.4609,3.5177,3.4594,3.3567,3.2596,3.3107,3.2415,3.0844,3.1072,2.9868,2.7803,2.8125,2.8256,2.83,2.8608,2.8856,2.9047,2.9061,2.912,2.9222,0.0,0.0,0.0,0.0,0.0,0.0,0.0,0.0,0.0,0.0,0.0,0.0,0.0,0.0,3.2288,3.1937,3.1472,3.0984,3.0422,3.0001,2.9699,2.9539,3.0178,3.0983,3.2168,3.3177,3.4357,3.5708,3.5659,3.6059,3.7136,3.6386,3.6117,3.6072,3.2938,3.2055,3.2711,2.9795,2.8913,2.9583,2.8774,2.815,2.7875,2.8682,2.8737,2.8517,2.9599,3.0272,3.071,3.1225,3.172,3.1997,3.2619,3.2912,3.3165,3.3292,3.3418,3.3496,3.3769,3.3965,3.4277,3.5176,3.5605,3.5918,3.6348,3.6777,3.709,3.709,3.7324,3.75,3.7661,3.7426,3.7093,3.6661,3.6602,3.6681,3.666,3.664,3.6289,3.5295,3.5275,3.4865,3.3762,3.2927,3.2491,3.2648,3.1525,3.1384,3.2508,3.2491,3.3049,3.4176,3.4038,3.4314,3.5002,3.5724,3.6016,3.6016,3.6031,3.5508,3.4385,3.506,3.4577,3.2973,3.3961,3.2574,2.9756,3.0097,3.0314,3.0438,3.005,3.0121,3.016,2.97,2.9844,3.0348,0.0,0.0,0.0,0.0,0.0,0.0,0.0,0.0,0.0,0.0,0.0,0.0,0.0,0.0,0.0,3.1834,3.0871,3.0422,3.0764,2.8988,2.8631,3.0319,3.0615,3.1366,3.2758,3.4692,3.5685,3.5466,3.5772,3.6117,3.6208,3.5749,3.6071,3.6744,3.3519,3.2289,3.2453,3.087,3.0167,3.0075,2.8783,2.8527,2.8856,2.9012,2.9232,2.9654,3.0479,3.1025,3.1351,3.1761,3.1903,3.191,3.2689,3.3184,3.3418,3.3418,3.3418,3.3418,0.0,0.0,0.0,3.5137,3.5371,3.5703,3.6953,3.6934,3.6894,3.7734,3.791,3.8053,3.8521,3.8541,3.8402,3.7966,3.7887,3.7868,3.7823,3.7743,3.7582,3.7139,3.7079,3.6654,3.5549,3.5412,3.4433,3.193,3.2874,3.3152,3.1789,3.402,3.5976,3.7079,3.6654,3.6519,3.6519,3.6132,3.6016,3.6016,3.5319,3.4808,3.4544,3.5824,3.5303,3.3517,3.5389,3.5186,3.3534,3.3597,3.3957,3.4146,3.2463,3.2028,3.1951,3.0896,3.1213,3.2139,0.0,0.0,0.0,0.0,0.0,0.0,0.0,0.0,0.0,0.0,0.0,0.0,3.1139,3.183,3.2653,3.3308,3.1739,3.083,3.0896,2.9261,2.8656,2.9283,3.0295,3.1719,3.3551,3.4914,3.5636,3.5856,3.5931,3.5746,3.5221,3.5795,3.5772,3.5135,3.3938,3.3048,3.2152,2.983,2.8612,2.8218,2.7905,2.7037,2.6205,2.7744,2.8289,2.8353,3.0057,3.1159,3.1671,3.2055,3.2562,3.3239,3.3611,3.3544,3.3418,3.3418,3.3418,3.3418,3.3418,0.0,0.0,0.0,0.0,0.0,3.6012,3.6463,3.6858,3.7987,3.8327,3.8527,3.9289,3.9389,3.9249,3.9111,3.8628,3.8266,3.7823,3.7743,3.7582,3.7139,3.7079,3.6944,3.6654,3.5821,3.5549,3.5957,3.4552,3.4415,3.5802,3.6384,3.6789,3.7079,3.6944,3.6944,3.6944,3.6809,3.6674,3.6403,3.6738,3.6828,3.6566,3.7576,3.7651,3.7194,3.7766,3.7601,3.6901,3.4601,3.3802,3.3922,3.3754,3.3869,3.4121,3.3851,3.4125,3.4559,0.0,0.0,0.0,0.0,0.0,0.0,0.0,0.0,0.0,0.0,0.0,0.0,3.171,3.2337,3.2787,3.2771,3.1479,3.0452,2.992,2.9488,2.929,2.9411,3.1454,3.3159,3.4274,3.5376,3.5916,3.5968,3.5653,3.5294,3.4808,3.4622,3.4445,3.4074,3.2913,3.182,3.0629,2.8947,2.8026,2.7685,2.7186,2.6885,2.6885,2.8247,2.9098,2.9774,3.1202,3.21,3.2524,3.2497,3.3135,3.3766,3.3652,3.373,3.3887,3.3535,3.3555,3.3652,3.3476,3.3418,3.3574,3.418,0.0,0.0,3.5924,3.6216,3.6569,3.7903,3.8125,3.8346,3.9192,3.9617,3.9658,3.9839,3.9575,3.9249,3.8275,3.8173,3.8072,3.7807,3.7766,3.7766,3.7766,3.7205,3.6853,3.6944,3.6073,3.6228,3.777,3.7636,3.7502,3.7502,3.7348,3.7348,3.7348,3.7213,3.6944,3.6809,3.7569,3.7847,3.7606,3.8472,3.872,3.8574,3.8574,3.8574,3.8428,3.6775,3.6044,3.6225,3.5851,3.5863,3.6217,3.559,3.5852,3.6587,0.0,0.0,0.0,0.0,0.0,0.0,0.0,0.0,0.0,0.0,0.0,3.2252,3.3431,3.3335,3.277,0.0,3.0607,2.9728,2.8894,2.9621,3.0139,3.0294,3.318,3.4679,3.4531,3.5785,3.6348,3.5968,3.5212,3.4749,3.4576,3.3077,3.2705,3.3157,3.1103,2.9602,2.8628,2.8009,2.7809,2.7882,2.652,2.7131,2.8931,2.9422,3.0732,3.2332,3.2876,3.3268,3.356,3.3104,3.3475,3.3887,3.3223,3.3711,3.4434,3.375,3.3769,3.3945,3.3652,3.3535,3.3691,3.4492,3.4379,0.0,3.6157,3.6274,3.6294,3.757,3.7793,3.8072,3.8993,3.9286,3.9552,3.9853,4.0365,4.0261,3.9144,3.8999,3.8978,3.8937,3.8916,3.8895,3.8854,3.8854,3.8106,3.6268,3.7482,3.8191,3.8191,3.8191,3.8191,3.8191,3.7904,3.7616,3.7616,3.7348,3.7213,3.7233,3.8122,3.8267,3.7887,3.8779,3.903,3.872,3.8574,3.8574,3.8613,3.8984,3.9414,3.9674,3.8176,3.7958,3.8172,3.6976,3.7381,3.8557,0.0,2.9907,2.9781,3.0171,0.0,0.0,0.0,3.0144,2.9851,2.8964,2.9851,3.166,3.482,3.3593,3.2961,3.3968,3.157,3.0326,3.1227,3.0245,3.0034,3.1127,3.2212,3.3247,3.4206,3.489,3.535,3.5626,3.5428,3.4622,3.3241,3.3311,3.2437,3.0857,3.0758,2.9554,2.7642,2.68,2.6793,2.725,2.6017,2.6067,2.7057,2.8494,2.99,3.1525,3.3005,3.3463,3.3467,3.372,3.3769,3.3633,3.416,3.4023,3.3769,3.4297,3.4023,3.3672,3.4277,3.4457,3.4448,3.5111,3.5371,0.0,3.6192,3.6725,3.7465,3.8766,3.8809,3.8809,3.969,3.9151,3.845,3.8585,3.8957,3.9392,3.9868,3.9951,3.9827,3.9454,3.9413,3.9268,3.8895,3.8854,3.8532,3.7791,3.8037,3.8191,3.8191,3.8191,3.8191,3.8191,3.8171,3.8037,3.8037,3.8037,3.777,3.7502,3.8397,3.8685,3.8287,3.8923,3.9176,3.903,3.872,3.8574,3.8574,3.8672,3.8945,3.9394,3.9794,3.997,4.0086,4.02,4.0315,4.0627,2.8881,2.8634,2.8479,2.8936,0.0,0.0,0.0,2.9147,2.9147,2.9147,3.0643,3.2522,3.4939,3.3726,3.2818,3.2814,3.1077,0.0,0.0,3.0265,3.0369,3.079,3.2533,3.3507,3.3614,3.4888,3.5568,3.552,3.4854,3.4159,3.3247,3.239,3.1268,3.0176,2.9947,2.8473,2.6301,2.7165,2.7068,2.6376,2.582,2.6803,2.8706,2.9436,3.0965,3.2687,3.3239,3.3486,3.3496,3.3926,3.4062,3.4062,3.4062,3.4219,3.4394,3.4394,3.4238,3.4101,3.4575,3.4626,3.4764,3.5111,3.5268,0.0,0.0,3.7506,3.8292,4.0011,3.9456,3.8991,3.9711,3.8717,3.7839,3.7839,3.8398,3.8999,3.9454,3.9723,3.9889,3.9868,3.9868,3.9702,3.9226,3.9185,3.8916,3.8233,3.8191,3.8191,3.8191,3.8191,3.8191,3.8191,3.8191,3.8295,3.8523,3.8523,3.8491,3.8582,3.9281,3.945,3.9029,3.9576,3.961,3.9176,3.903,3.872,3.8613,3.9043,3.9355,3.959,4.0039,4.0469,4.0879,4.1094,4.1172,4.123,2.7631,2.7302,2.7148,2.7598,2.7734,0.0,0.0,0.0,2.8589,2.9891,3.1825,3.34,3.4335,3.3429,3.2107,3.0795,2.9931,2.9268,2.892,2.9843,3.0494,3.0557,3.2874,3.3807,3.3321,3.4944,3.5694,3.5176,3.4272,3.3638,3.3087,3.1184,3.0064,2.9604,2.8928,2.7364,2.5391,2.7706,2.7899,2.6728,2.6679,2.8471,3.1027,3.1027,3.23,3.4023,3.3574,3.3418,3.3496,3.3926,3.4297,3.4492,3.3965,3.4473,3.5156,3.472,3.4701,3.4799,3.5012,3.5022,3.524,3.5814,3.5889,3.6332,0.0,0.0,0.0,4.0992,3.9972,3.8971,3.9346,3.8125,3.7161,3.7566,3.8214,3.88,3.9319,3.9563,3.9729,3.9992,4.0096,3.9909,3.9454,3.9247,3.8874,3.8233,3.8109,3.8088,3.8171,3.8191,3.8191,3.8191,3.8191,3.8398,3.8854,3.8854,3.9081,3.9537,4.0013,4.0079,3.9798,4.0106,4.0083,3.9585,3.944,3.9188,3.9033,3.9609,3.9941,4.0019,4.0117,4.0566,4.1191,4.1269,4.1289,4.1348,2.6586,2.682,2.7148,2.7598,2.7969,2.8242,2.8281,2.7988,2.8445,3.0248,3.1828,3.2924,3.3224,3.1817,3.0579,2.9787,2.8396,2.7957,2.8694,2.9172,3.0089,3.1381,3.1806,3.2555,3.3891,3.4235,3.425,3.3944,3.4274,3.324,3.109,3.0858,2.9554,2.7314,2.7246,2.6932,2.6587,2.7035,2.8432,3.0302,3.0573,3.1099,3.1891,3.1891,3.2841,3.4023,3.3574,3.3418,3.3496,3.3926,3.4101,3.4258,3.4961,3.498,3.4902,3.5969,3.5785,3.5409,3.6523,3.6708,3.7143,3.8805,3.9067,3.9165,4.0185,0.0,4.1305,4.1205,0.0,3.9163,3.9231,0.0,0.0,3.7579,3.8043,3.8919,4.1347,4.0713,3.9944,3.9633,3.962,3.9433,3.8978,3.8191,3.786,3.8171,3.7798,3.7757,3.8171,3.8191,3.8191,3.8191,3.8191,3.8398,3.8854,3.8854,3.9081,3.9537,4.0013,4.022,4.01,4.0248,4.0534,4.0776,4.0045,3.9969,4.0176,3.9994,4.0117,4.0488,4.0879,4.1094,4.1211,4.1582,4.1738,4.1797,2.6348,2.6719,2.7148,2.7598,2.7812,2.793,2.793,2.8672,2.9863,3.1359,3.2163,3.269,3.3005,3.1051,2.9601,2.9367,2.7871,2.74,2.8291,2.8281,2.8652,2.9597,3.0909,3.1826,3.2097,3.3749,3.424,3.3726,3.3262,3.2282,3.0704,2.9517,2.8197,2.6918,2.7349,2.717,2.6703,2.8835,3.0244,3.1025,3.2068,3.2606,3.2777,3.2777,3.3181,3.3711,3.3769,3.3633,3.3457,3.3633,3.4023,3.4414,3.4277,3.476,3.5495,3.5746,3.5838,3.6214,3.7743,3.8224,3.8573,3.9974,3.9971,4.0059,4.1065,4.1329,4.1692,4.2479,0.0,0.0,0.0,0.0,0.0,0.0,3.8949,3.9232,3.9712,3.944,3.9584,4.0174,3.9437,3.8667,3.8481,3.7881,3.7695,3.815,3.7757,3.7695,3.815,3.8191,3.8191,3.8191,3.8191,3.8523,3.9247,3.9247,3.9599,4.0323,4.051,4.0613,4.0613,4.0657,4.0556,4.0616,4.059,4.0372,4.0127,4.0492,4.0504,4.0566,4.0996,4.1328,4.1562,4.1738,4.1953,4.2226,2.6152,2.6543,2.6973,2.7422,2.7578,2.7656,2.7552,2.9065,3.0419,3.1142,3.1578,3.1732,3.1663,2.9808,2.8521,2.8226,2.6998,2.6655,2.7474,2.7283,2.7618,2.8648,3.0442,3.127,3.1148,3.3232,3.3804,3.2717,3.1973,3.1257,3.0428,2.8792,2.7747,2.7241,2.7954,2.7985,2.7628,3.0314,3.1539,3.1696,3.2903,3.3418,3.3418,3.3418,3.3418,3.3457,3.3789,3.3691,3.3437,3.3555,3.4004,3.4434,3.4054,3.4674,3.5647,3.5591,3.6233,3.7281,3.8787,3.9449,3.9996,4.1107,4.1033,4.0997,4.2059,4.219,4.2389,4.3312,4.1721,0.0,0.0,0.0,3.8134,3.9731,0.0,3.9771,3.9205,3.8942,3.9236,4.017,3.9411,3.8696,3.8303,3.7884,3.7733,3.7943,3.757,3.757,3.815,3.8191,3.8191,3.8191,3.8191,3.8626,3.9537,3.9413,3.9868,4.0882,4.0758,4.0758,4.0882,4.0882,4.0801,4.0658,4.0861,4.0833,4.0524,4.1012,4.1025,4.0876,4.1055,4.1504,4.1973,4.1973,4.2246,4.2676,2.5762,2.6113,2.6543,2.6973,2.7383,2.7552,2.7323,2.858,2.9225,2.8301,2.9435,2.985,2.8321,2.7759,2.7012,2.6041,2.5424,2.5414,2.6019,2.6461,2.7638,2.9702,3.0261,3.1042,3.2119,3.2659,3.2032,3.0176,3.0586,3.0428,2.9665,2.9562,2.9028,2.8134,2.9003,2.9415,2.9796,3.0591,3.1944,3.3272,3.3418,3.3418,3.3418,3.3418,3.3418,3.3418,3.3437,3.3437,3.3496,3.3906,3.4082,0.0,3.4922,3.521,3.5361,3.603,3.7168,3.8398,3.9213,4.0338,4.1568,4.2946,4.2928,4.2756,4.3572,4.4077,4.4152,4.3212,4.2897,4.2495,4.199,3.9966,3.9152,4.1444,4.1004,0.0,0.0,4.027,3.9055,3.8832,3.9814,4.0062,3.8794,3.8233,3.7863,3.7577,3.7094,3.7218,3.8129,3.8191,3.8191,3.8191,3.8191,3.8626,3.9537,3.9102,3.9537,4.0862,4.0448,4.0468,4.0882,4.0882,4.111,4.1545,4.1129,4.1494,4.2139,4.1403,4.1376,4.1753,4.1327,4.168,4.2402,4.2402,4.2676,4.3125,2.5637,2.5882,2.6327,2.6666,2.6821,2.7195,2.8074,2.8331,2.8709,2.9164,2.8834,2.8376,2.8114,2.6883,2.5966,2.557,2.5338,2.5374,2.5546,2.6206,2.7206,2.8754,2.9451,3.0146,3.1021,3.1461,3.1298,3.049,3.0645,3.0634,3.0369,2.9493,2.9038,2.9258,2.9502,2.9829,3.0573,3.1753,3.2642,3.3418,3.3418,3.3594,3.3828,3.3535,3.3418,3.3418,3.3418,3.3418,3.3437,3.3594,3.3956,3.4428,3.4398,3.5012,3.5949,3.5794,3.7382,3.9274,0.0,0.0,4.3521,4.4569,4.4314,4.3862,4.3801,4.4217,4.4317,4.3212,4.2922,4.2802,4.2593,4.1595,4.1109,4.2421,4.194,4.1109,0.0,3.9267,3.9081,4.0104,4.0163,3.962,3.8393,3.8117,3.782,3.7556,3.7074,3.7198,3.8129,3.8191,3.8316,3.8605,3.8336,3.8626,3.9537,3.9392,3.9682,4.0448,4.0593,4.0903,4.1338,4.1338,4.1421,4.1607,4.206,4.203,4.1963,4.2556,4.2537,4.2229,4.2368,4.2663,4.2832,4.2539,4.2891,4.3516,2.5737,2.5767,2.6002,2.6359,2.6615,2.694,2.7951,2.7815,2.7949,2.8628,2.7766,2.7084,2.7351,2.6039,2.5161,2.5161,2.5289,2.5362,2.5362,2.6133,2.7098,2.8116,2.8797,2.9459,3.0086,3.0812,3.0928,3.0367,3.0686,3.0964,3.0992,3.0099,3.0036,3.0763,3.0753,3.1084,3.1579,3.2777,3.332,3.3418,3.3418,3.3594,3.3809,3.3535,3.3516,3.3633,3.3476,3.3418,3.3418,3.3544,3.3867,3.4318,3.4452,3.5073,3.5927,3.6561,3.8118,4.0038,4.1746,4.3453,0.0,4.5335,4.5221,0.0,4.3966,4.4392,4.4618,4.3489,4.3565,4.3757,4.3876,4.3103,4.2799,4.3475,4.2806,4.1716,0.0,3.9523,3.9776,4.0937,4.0874,4.0176,3.8841,3.8642,3.832,3.7556,3.7218,3.7384,3.815,3.8191,3.8316,3.8605,3.8336,3.8543,3.9288,3.9288,3.9599,4.0241,4.051,4.0882,4.1338,4.1483,4.1565,4.1607,4.2352,4.2452,4.2112,4.2841,4.2927,4.2604,4.2724,4.288,4.3047,4.2754,4.3105,4.373,2.6012,2.5767,2.5534,2.5947,2.636,2.6774,2.6806,2.6881,2.6772,2.6573,2.6206,2.5931,2.5931,2.5234,2.4757,2.4776,2.5142,2.5381,2.5399,2.6169,2.7135,2.8155,2.8622,2.9069,2.9458,3.0626,3.0705,2.9654,3.0809,3.1396,3.1433,3.1414,3.1875,3.2525,3.2916,3.3077,3.295,3.3759,3.3828,3.3418,3.3418,3.3437,3.3457,3.3437,3.3691,3.4023,3.3574,3.3418,3.3418,3.3796,3.3942,3.4147,3.522,3.5309,3.5645,3.8114,3.9411,4.0634,4.2975,4.4519,4.5522,4.5522,4.5497,0.0,0.0,0.0,4.5221,4.4066,4.4744,4.5522,4.5447,4.4568,4.4016,4.4493,4.3664,4.2513,4.1215,4.1076,4.1076,4.1215,4.1681,4.1531,3.9979,3.9831,3.9165,3.7645,3.7467,3.7674,3.815,3.8212,3.8233,3.8253,3.8253,3.846,3.8916,3.8916,3.9351,4.022,4.0282,4.053,4.0965,4.1421,4.1628,4.1669,4.2124,4.2559,4.2932,4.2522,4.2616,4.3094,4.2624,4.2683,4.3105,4.3105,4.3379,4.3808,2.5607,2.4966,2.4347,2.3854,2.4665,2.4989,2.4189,2.4761,2.5331,2.5238,2.5415,2.5527,2.5527,2.4794,2.4445,2.4757,2.5142,2.5491,2.5784,2.6573,2.7565,2.8622,2.8861,2.937,3.0392,3.0691,3.0983,3.0919,3.1231,3.1689,3.2276,3.1949,3.2134,3.2898,3.3306,3.3463,3.333,3.3887,3.3828,3.3418,3.3418,3.3613,3.3867,3.3535,3.3691,3.4023,3.3574,3.3544,3.3796,3.3922,3.4518,3.5199,3.5575,3.6604,3.7924,3.8538,4.0646,4.2782,4.3433,4.479,4.61,4.61,4.5799,4.5422,0.0,0.0,0.0,0.0,0.0,0.0,0.0,0.0,4.4317,4.4066,4.2593,4.1444,4.11,4.0763,4.1007,4.2351,4.1433,4.0458,3.9472,3.9423,3.8752,3.7165,3.697,3.7343,3.815,3.8502,3.8833,3.9185,3.9185,3.9413,3.9868,3.9868,3.9992,4.0199,4.0903,4.1462,4.1917,4.2373,4.258,4.26,4.3056,4.3139,4.2973,4.3504,4.3812,4.3893,4.3919,4.3735,4.3555,4.3555,4.3828,4.4238,2.5112,2.4316,2.3451,2.258,2.3311,2.3983,2.376,2.4334,2.4948,2.5322,2.5324,2.5362,2.5362,2.4812,2.4666,2.5252,2.5674,2.6078,2.6463,2.7086,2.7846,2.8577,2.8867,2.9405,3.0168,3.0798,3.1157,3.1377,3.1744,3.2148,3.2588,3.2339,3.2431,3.3028,3.3436,3.3688,3.373,3.3965,3.3828,3.3418,3.3418,3.3574,0.0,3.3516,3.3701,3.4044,3.3985,3.3954,3.3942,3.4518,3.5012,3.5783,3.6938,3.7952,3.9066,4.074,4.231,4.3796,4.4524,4.5569,4.6301,4.6301,4.6075,4.5773,4.5547,4.5723,4.5773,0.0,4.5497,4.5748,0.0,0.0,4.4367,4.3564,4.2598,4.1923,4.1923,4.1654,4.1805,4.2824,4.1654,4.0535,4.0012,3.9186,3.8187,3.6871,3.6991,3.7343,3.786,3.8807,3.9403,3.9226,3.9962,4.0192,3.993,4.0323,4.0406,4.022,4.0924,4.1503,4.1979,4.2414,4.2745,4.2952,4.3408,4.347,4.3284,4.4008,4.4255,4.4254,4.4422,4.4172,4.4041,4.3711,4.4004,4.4433,2.4267,2.3505,2.2451,2.154,2.2154,2.3199,2.4334,2.4667,2.4971,2.5684,2.555,2.5436,2.5381,2.5106,2.5234,2.5986,2.6426,2.683,2.7233,2.7673,2.8095,2.8462,2.8957,2.9379,2.9727,3.0864,3.1469,3.1469,3.2166,3.2514,3.2514,3.2506,3.2692,3.2952,3.3398,3.3824,3.4082,3.4082,3.3828,3.3437,3.3496,3.3496,3.3496,3.3437,3.3709,3.4061,3.4505,3.4405,3.4332,3.5534,3.5972,3.6538,3.8955,3.9589,4.0208,4.3346,4.4183,4.4329,4.5935,4.6301,4.6301,4.6301,4.6301,4.6175,4.5698,4.5598,4.5598,4.5598,4.5598,4.5598,4.5598,0.0,4.4392,4.3363,4.3187,4.3187,4.3187,4.3187,4.3162,4.2862,4.1728,0.0,4.087,3.9317,3.8,3.7382,3.7674,3.7947,3.7832,3.9346,3.9819,3.8916,4.0579,4.0878,3.9806,4.051,4.0717,4.0406,4.0841,4.1276,4.1669,4.2207,4.2642,4.3035,4.3491,4.3698,4.3739,4.4194,4.4358,4.4356,4.4379,4.437,4.437,4.3935,4.4082,4.4531,2.2351,2.2019,2.138,2.0048,2.0759,2.1972,2.3087,2.4223,2.4751,2.4572,2.5344,2.5729,2.5417,2.5601,2.5949,2.6444,2.6848,2.7233,2.7636,2.8352,2.881,2.8883,2.991,3.0497,3.0571,3.1451,3.1891,3.1891,3.2038,3.2111,3.2093,3.2337,3.2407,3.2535,3.3521,3.4082,3.4082,3.4082,3.3828,3.3457,3.3809,3.3965,3.3926,3.3808,3.414,3.4565,3.477,3.4977,3.5534,3.7213,3.825,3.9126,4.0648,4.2172,4.3493,4.4079,4.5086,4.5935,4.6155,4.6301,4.6301,4.6301,4.6301,4.6276,4.6175,4.6175,4.6175,4.6175,4.6175,4.6175,4.6175,0.0,4.5121,4.4443,4.4342,4.4342,4.4342,4.4342,4.3796,4.2263,4.1282,4.0472,3.9661,3.9556,3.9696,4.005,4.0039,3.9966,3.978,4.004,3.9837,3.9392,4.0125,4.073,4.1214,4.0986,4.1027,4.1338,4.1793,4.2062,4.2166,4.2994,4.3428,4.3511,4.3987,4.4174,4.4215,4.467,4.4831,4.4803,4.4844,4.4698,4.441,4.4307,4.4551,4.4922,2.1286,2.0823,2.0732,2.0746,2.1509,2.2523,2.376,2.5,2.5537,2.5237,2.581,2.6206,2.6023,2.6353,2.6921,2.7765,2.782,2.815,2.8975,2.9195,2.947,2.991,3.0479,3.0882,3.1084,3.1286,3.1689,3.2313,3.1891,3.2022,3.2559,3.2673,3.2739,3.2696,3.363,3.4082,3.4082,3.4297,3.4141,3.3789,3.4219,3.4524,3.4764,3.5402,3.6078,3.6644,3.7652,3.8304,3.8647,3.8625,3.9434,4.0887,4.2389,4.3541,4.4374,4.5159,4.5793,4.6301,4.6301,4.6301,4.6301,4.6301,4.6301,4.6301,4.6301,4.6301,4.6301,4.6301,4.6301,4.6225,4.5949,4.5422,0.0,0.0,4.4618,4.4618,4.4618,4.4618,4.3929,4.2083,4.1614,4.0999,4.0223,4.0999,4.0731,3.9084,4.0022,4.0051,3.8551,4.0934,4.1414,3.9516,4.1315,4.214,4.1565,4.1586,4.171,4.1917,4.2145,4.2373,4.2621,4.3056,4.3511,4.3987,4.4215,4.4443,4.4691,4.5167,4.5463,4.5715,4.5454,4.5046,4.4758,4.4719,4.4817,4.5058,2.0794,2.0335,2.0502,2.155,2.2536,2.3648,2.4556,2.586,2.6536,2.6023,2.6408,2.6683,2.6591,2.7086,2.7856,2.8902,2.8773,2.9085,3.013,2.9965,3.0112,3.0754,3.0956,3.1194,3.1506,3.1357,3.1763,3.2728,3.2225,3.2464,3.3105,3.3249,3.3219,3.3058,3.3661,3.3984,3.4101,3.4531,3.4512,3.4238,3.504,3.5611,3.6002,3.7361,3.8395,3.9029,4.0423,4.1476,4.1793,4.0265,4.0819,4.242,4.413,4.4767,4.489,4.5939,4.6301,4.6301,4.6301,4.6301,4.6301,4.6301,4.6301,4.6301,4.6301,4.6301,4.6301,4.6301,4.6301,4.6175,4.5748,4.5296,0.0,0.0,4.4995,4.4995,4.4995,4.4736,4.3875,4.1899,4.1876,4.1567,4.0339,4.1827,4.1328,3.7769,3.9719,4.0309,3.8444,4.1489,4.2362,4.0025,4.2301,4.2936,4.171,4.1979,4.2207,4.2393,4.2393,4.258,4.2932,4.3014,4.3511,4.4319,4.4401,4.4774,4.5312,4.5664,4.6037,4.6185,4.5881,4.5433,4.5082,4.5191,4.5123,4.5234,2.0321,2.0939,2.1327,2.0902,2.2683,2.4206,2.4317,2.598,2.6848,2.6059,2.6646,2.6976,2.6628,2.76,2.8462,2.8938,2.9269,2.9672,3.0167,3.0497,3.0717,3.0791,3.1506,3.1909,3.1946,3.2663,3.3,3.3116,3.3857,3.3922,3.3178,3.3908,3.3942,3.3292,3.3457,3.3691,0.0,3.4531,3.4668,3.4799,3.6766,3.7582,3.78,3.9486,4.0366,4.0706,4.0915,4.1958,4.3359,4.319,4.3501,4.4302,4.5646,4.6059,4.618,4.6301,4.6301,4.6301,4.6301,4.6301,4.6301,4.6301,4.6301,4.6301,4.6301,4.6301,4.6301,4.6301,4.6301,4.6301,4.625,4.62,4.615,0.0,4.615,4.615,4.615,4.5134,4.3477,4.1242,4.1692,4.1011,3.7945,4.0735,4.1349,3.813,4.0773,4.2855,4.3541,4.1504,4.0683,4.132,4.1129,4.1474,4.2166,4.1814,4.2042,4.2849,4.2849,4.287,4.2932,4.3346,4.3822,4.4319,4.4753,4.5416,4.6223,4.6264,4.6306,4.6185,4.5881,4.5636,4.571,4.5648,4.5576,4.5664,2.1121,2.1272,2.1642,2.2651,2.3569,2.4317,2.5221,2.6238,2.6827,2.6738,2.7398,2.7746,2.7343,2.8168,2.9012,2.9654,2.9635,2.9947,3.0846,3.0607,3.0552,3.0772,3.1102,3.1157,3.0919,3.1951,3.2354,3.2128,3.3178,3.3505,3.3027,3.3564,3.3652,3.3437,3.3691,3.4398,3.5362,3.6091,3.7006,3.7932,3.9174,3.9864,4.0334,4.1798,4.2614,4.3027,4.3843,4.4645,4.5228,4.5228,4.5377,4.5525,4.618,4.6301,4.6301,4.6301,4.6301,4.6301,4.6301,4.6301,4.6301,4.6301,4.6301,4.6301,4.6301,4.6301,4.6301,4.6301,4.6301,4.6301,4.6301,4.6301,4.6301,4.6301,0.0,4.6301,4.6301,4.5793,4.4744,4.2756,4.3241,4.2352,3.9288,4.1161,4.173,3.9801,4.1466,4.1911,4.0373,4.0864,4.0918,4.0414,4.0942,4.1572,4.2228,4.2083,4.2435,4.3325,4.3325,4.3325,4.3346,4.3822,4.4422,4.5147,4.5602,4.6016,4.6347,4.6347,4.6347,4.6368,4.6495,4.6393,4.6142,4.6345,4.6365,4.6068,2.139,2.1489,2.1963,2.3698,2.4165,2.4701,2.5838,2.6529,2.7006,2.7231,2.8058,2.8407,2.8003,2.8572,2.9269,2.9947,2.9855,3.0167,3.1139,3.0681,3.0497,3.0772,3.0901,3.0846,3.0571,3.1627,3.2142,3.2128,3.306,3.3426,3.3289,3.356,3.3708,0.0,3.4616,3.5457,3.6642,3.7653,3.8916,4.0329,4.1046,4.182,4.2454,4.3855,4.462,4.5013,4.5939,4.6301,4.6301,4.6301,4.6301,4.6301,4.6301,4.6301,4.6301,4.6301,4.6301,4.6301,4.6301,4.6301,4.6301,4.6301,4.6301,4.6301,4.6301,4.6301,4.6301,4.6301,4.6301,4.6301,4.6301,4.6301,4.6301,4.6301,0.0,4.6301,4.6301,4.5789,4.4984,4.3578,4.3552,4.252,3.9658,4.1178,4.155,3.9824,4.1076,4.0955,3.9045,4.0373,4.0843,4.0161,4.0979,4.1764,4.2249,4.2393,4.2849,4.3615,4.3615,4.3677,4.3842,4.4443,4.5064,4.5705,4.6161,4.6347,4.6347,4.6347,4.6347,4.6389,4.6865,4.6804,4.6678,4.6925,4.6775,4.6418,2.0565,2.1423,2.2351,2.3263,2.4445,2.536,2.5761,2.6601,2.7308,2.7308,2.8246,2.8828,2.8425,2.8737,2.914,2.9544,2.9947,3.0369,3.0772,3.0791,3.0791,3.0791,3.1194,3.1414,3.1396,3.2218,3.2949,3.3611,3.4204,3.4378,3.4146,0.0,3.4297,3.4818,3.6207,3.697,3.7556,3.8937,3.9968,4.0817,4.2477,4.3357,4.3855,4.5671,4.6301,4.6301,4.6301,4.6301,4.6301,4.6301,4.6301,4.6301,4.6301,4.6301,4.6301,4.6301,4.6301,4.6301,4.6301,4.6301,4.6301,4.6301,4.6301,4.6301,4.6301,4.6301,4.6301,4.6301,4.6301,4.6301,4.6301,4.6301,4.6301,4.6301,0.0,4.6301,4.6301,4.4694,4.3289,4.2903,4.2028,4.0558,3.824,4.013,4.0338,3.7728,3.9173,4.0688,4.2074,4.0033,0.0,4.1455,4.1521,0.0,4.2228,4.2683,4.3139,4.3615,4.3615,4.3842,4.4319,4.525,4.5664,4.5705,4.6161,4.6347,4.6347,4.6347,4.6347,4.6389,4.6865,4.6989,4.6918,4.7046,4.6975,4.7007,2.2473,2.2965,2.3344,2.4144,2.4684,2.5155,2.5761,2.6487,2.7186,2.7687,2.841,2.8938,2.881,2.8902,2.914,2.9544,2.9965,3.0259,3.0369,3.0387,3.0259,2.9965,3.0369,3.0461,3.0167,3.1779,3.2575,3.2492,3.3729,3.4467,3.4596,3.4505,3.5072,3.6228,3.6944,3.8423,4.036,4.133,4.2464,4.3903,4.4669,4.5159,4.5525,4.6059,4.6301,4.6301,4.6301,4.6301,4.6301,4.6301,4.6301,4.6301,4.6301,4.6301,4.6301,4.6301,4.6301,4.6301,4.6301,4.6301,4.6301,4.6301,4.6301,4.6301,4.6301,4.6301,4.6301,4.6301,4.6301,4.6301,4.6301,4.6301,4.6301,4.6301,4.6301,0.0,4.6301,4.5465,4.4421,4.3506,4.2687,4.119,3.8781,3.9478,3.9365,3.7618,3.8591,3.9263,3.9451,3.9396,0.0,0.0,4.0962,0.0,4.2683,4.2849,4.3159,4.3615,4.3925,4.4484,4.525,4.5561,4.585,4.614,4.6285,4.6347,4.6347,4.6347,4.6533,4.6865,4.7299,4.7588,4.7873,4.7984,4.7733,4.7354,2.3063,2.3344,2.3552,2.459,2.4932,2.5267,2.576,2.6584,2.7338,2.7848,2.8592,2.8975,2.8975,2.945,2.9543,2.9444,2.9874,3.0433,3.0907,3.0581,3.0544,3.0757,3.0525,3.0369,3.0259,3.1615,3.2321,3.2373,3.3652,3.4487,3.4961,3.5468,3.6314,3.739,3.8722,4.0246,4.2038,4.3138,4.4299,4.5453,4.5696,4.5939,4.6301,4.6301,4.6301,4.6301,4.6301,4.6301,4.6301,4.6301,4.6301,4.6301,4.6301,4.6301,4.6301,4.6301,4.6301,4.6301,4.6301,4.6301,4.6301,4.6301,4.6301,4.6301,4.6301,4.6301,4.6301,4.6301,4.6301,4.6301,4.6301,4.6476,4.6627,4.6627,4.6627,4.6406,4.5696,4.4907,4.3937,4.2685,4.1649,4.0555,3.9117,3.9131,3.8823,3.7888,3.8916,3.9351,3.873,3.9392,3.9992,4.0427,4.1599,4.2438,4.2911,4.3655,4.3991,4.3884,4.4526,4.5126,4.5685,4.585,4.6078,4.6347,4.6347,4.6347,4.6347,4.6347,4.6616,4.7092,4.7506,4.7962,4.8438,4.838,4.8027,4.7701,2.2636,2.3119,2.3472,2.4624,2.5267,2.5646,2.5925,2.6854,2.7694,2.8086,2.8737,2.9094,2.9213,3.0255,3.047,2.9331,2.9934,3.087,3.2051,3.137,3.1364,3.2591,3.1546,3.0992,3.1359,3.1819,3.2429,3.3122,3.3921,3.476,3.5563,3.6831,3.7826,3.8507,4.1119,4.2523,4.2879,4.4323,4.5208,4.5817,4.5817,4.6059,4.6301,4.6301,4.6301,4.6301,4.6301,4.6301,4.6301,4.6301,4.6301,4.6301,4.6301,4.6326,4.6376,4.6376,4.6351,4.6326,4.6351,4.6351,4.6301,4.6301,4.6301,4.6301,4.6301,4.6301,4.6301,4.6301,4.6351,4.6376,4.6376,4.6803,4.7179,4.7154,4.7129,4.6414,4.4645,4.3482,4.2257,4.0709,3.9543,0.0,3.9237,3.8961,3.8709,3.8357,3.9889,4.0489,3.9723,4.0158,4.0593,4.0965,4.3221,4.4074,4.3102,4.4976,4.547,4.4515,4.5408,4.5865,4.5747,4.6161,4.6347,4.6347,4.6347,4.6347,4.6347,4.6347,4.6637,4.7113,4.7527,4.7982,4.8479,4.838,4.8199,4.7701,2.4128,2.4586,2.4884,2.5241,2.6328,2.7043,2.642,2.7831,2.8965,2.902,2.9667,3.0372,3.1381,3.1727,3.1842,3.1707,3.223,3.2197,3.1601,3.1648,3.1408,3.0829,3.1046,3.1414,3.1744,3.2506,3.3445,3.4394,3.5123,3.6182,3.7432,3.7831,3.9171,4.1377,4.2038,4.3051,4.4323,4.4963,4.5453,4.5817,4.6059,4.618,4.6301,4.6301,4.6301,4.6301,4.6301,4.6301,4.6301,4.6301,4.6301,4.6301,4.6301,4.6602,4.6928,4.6928,4.6652,4.6401,4.6828,4.6627,4.6301,4.6301,4.6301,4.6301,4.6301,4.6301,4.6301,4.6301,4.6652,4.6928,4.6928,4.738,4.7606,4.7205,4.7129,4.6289,4.4062,4.3457,4.2272,3.9521,3.9533,3.9412,3.8513,3.8657,3.9102,0.0,4.0137,4.0593,4.1069,4.1855,4.2186,4.1938,4.2899,4.3976,4.5168,4.5723,4.6051,4.6613,4.7216,4.7081,4.6202,4.6306,4.6347,4.6347,4.6347,4.6347,4.6347,4.6347,4.6823,4.7548,4.7651,4.8189,4.8914,4.8846,4.8716,4.8199,2.4811,2.5656,2.6299,2.6477,2.7842,2.8747,2.8297,2.9295,3.0219,3.0198,3.0704,3.1364,3.2357,3.3069,3.3612,3.4168,3.3238,3.2673,3.2574,3.208,3.1702,3.1721,3.1707,3.1782,3.2171,3.3123,3.4184,3.5103,3.6122,3.7023,3.7798,3.9323,4.0862,4.2293,4.3051,4.4075,4.5086,4.5331,4.5696,4.6084,4.6456,4.6527,4.6326,4.6602,4.6527,4.6301,4.6301,4.6301,4.6351,4.6602,4.6702,4.6728,4.6954,4.7255,4.7531,4.7807,4.7481,4.7054,4.7129,4.6903,4.6627,4.6376,4.6301,4.6301,4.6301,4.6301,4.6376,4.6627,4.6928,4.7205,4.7431,4.7707,4.7807,4.7531,4.6563,4.5257,4.3298,4.204,4.057,3.8766,3.8869,3.9115,3.875,3.9392,3.9889,4.0179,4.0986,0.0,4.1876,4.2745,4.3314,4.372,4.4737,4.5948,4.6949,4.6651,4.6963,4.7706,4.8208,4.8107,4.7432,4.8208,4.8208,4.7432,4.7432,4.6972,4.6368,4.6575,4.7072,4.7693,4.792,4.8438,4.9059,4.9059,4.8716,4.8372,2.5405,2.6542,2.751,2.8087,2.9507,3.0482,3.0368,3.1027,3.1516,3.1516,3.1923,3.2452,3.3285,3.4432,3.5337,3.5889,3.3813,3.2894,3.3974,3.2498,3.2091,3.3096,3.2506,3.2356,3.2618,3.3823,3.472,3.554,3.6901,3.7686,3.8077,4.1002,4.242,4.2673,4.4075,4.4963,4.5331,4.5696,4.5939,4.6351,4.6828,4.6728,4.6351,4.6828,4.6728,4.6301,4.6301,4.6376,4.6502,4.6979,4.7179,4.733,4.7782,4.7958,4.8134,4.8636,4.8485,4.8033,4.7405,4.7129,4.6903,4.6426,4.6301,4.6326,4.6426,4.6426,4.6602,4.7129,4.733,4.7506,4.7958,4.8033,4.7883,4.7658,4.5895,4.3927,4.2259,0.0,3.8851,3.8221,3.8419,3.8895,3.9661,4.0489,4.0882,4.0613,4.2251,4.3002,4.2899,4.3844,4.4998,4.6166,4.7354,4.814,4.8812,4.8643,4.8583,4.8852,4.9363,4.9428,4.9293,5.0675,5.052,4.9135,4.8978,4.8049,4.6691,4.6844,4.7299,4.7734,4.8189,4.8666,4.9059,4.9059,4.8887,4.8544,2.6713,2.7673,2.8514,2.9584,3.1231,3.1991,3.0915,3.1917,3.2778,3.2571,3.3341,3.4418,3.5553,3.6498,3.6652,3.5911,3.4819,3.4307,3.4427,3.3248,3.2302,3.2264,3.2691,3.318,3.3558,3.42,3.531,3.6459,3.713,3.8723,4.0864,4.1914,4.2925,4.3974,4.4594,4.4963,4.5331,4.5696,4.5939,4.6326,4.6401,4.6376,4.6326,4.6401,4.6376,4.6301,4.6301,4.6602,4.7029,4.7104,4.7431,4.7807,4.7883,4.8234,4.8661,4.8736,4.9038,4.9113,4.8058,4.7129,4.6426,4.6326,4.6301,4.6426,4.6903,4.7004,4.7154,4.7682,4.8184,4.8535,4.8611,4.8636,4.8081,4.6421,4.5561,4.3836,4.0456,0.0,3.9994,3.8345,3.9537,4.051,4.0655,4.1151,4.1752,4.2435,4.3675,4.4641,4.5379,4.7262,4.886,5.0388,4.7693,4.7716,5.0938,5.3034,5.3473,5.219,5.2712,5.2213,5.0985,5.1139,5.1139,5.083,4.945,4.8662,4.841,4.7313,4.7299,4.7734,4.8189,4.8666,4.9059,4.9059,4.9059,4.8887,2.7765,2.9203,3.069,3.1385,3.2767,3.348,3.2892,3.3557,3.4296,3.4318,3.4956,3.5923,3.7131,3.761,3.7488,3.6631,3.5649,3.4677,3.4061,3.271,3.2001,3.1983,3.258,3.3275,3.4261,3.5329,3.6099,3.6722,3.898,4.0628,4.1637,4.3098,4.4397,4.544,4.5817,4.6191,4.6439,4.681,4.7057,4.7179,4.7179,4.7004,4.6753,4.6753,4.6753,4.6753,4.6753,4.7104,4.7606,4.7908,4.8184,4.8435,4.8711,4.9012,4.9213,4.9213,4.9188,4.8962,4.8134,4.7556,4.7104,4.6828,4.6954,4.723,4.7481,4.7556,4.7707,4.8259,4.8586,4.8862,4.9163,4.8178,4.7018,4.6376,4.3927,4.1783,4.0738,3.9948,3.9559,3.9675,4.0365,4.1069,4.1565,4.2249,4.3276,4.4571,4.5596,4.6668,4.8007,4.8999,5.0437,5.2211,5.1248,5.1537,5.3562,5.391,5.3839,5.3365,5.3606,5.3275,5.267,5.36,5.3449,5.2518,5.1754,5.1122,5.0501,4.9275,4.9097,4.9379,4.888,4.8873,4.9059,4.9059,4.9059,4.9059,2.9221,3.0824,3.2475,3.2964,3.384,3.4556,3.4778,3.5106,3.5439,3.5801,3.6449,3.7032,3.7882,3.7875,3.7673,3.6902,3.5725,3.4383,3.3146,3.2222,3.1838,3.2261,3.3143,3.4085,3.5176,3.665,3.7297,3.7445,4.0688,4.2269,4.2133,4.4356,4.5779,4.6421,4.6802,4.7181,4.7558,4.7783,4.7832,4.7732,4.7732,4.7481,4.7129,4.7129,4.7205,4.7305,4.7305,4.7657,4.8184,4.8611,4.8862,4.9038,4.9464,4.959,4.959,4.959,4.9289,4.8812,4.8109,4.7908,4.7807,4.7405,4.7606,4.7933,4.8083,4.8109,4.8259,4.8837,4.8962,4.896,4.9102,4.7458,4.5892,4.5489,0.0,4.0105,4.0829,3.9542,3.9069,4.0696,4.1069,4.1648,4.29,4.3823,4.5083,4.6684,4.7932,4.9005,5.0351,5.0936,5.1982,5.374,5.4563,5.5089,5.539,5.4279,5.3935,5.4348,5.4348,5.4348,5.4348,5.5582,5.5435,5.4199,5.39,5.3281,5.2565,5.0872,5.0546,5.0839,4.9532,4.9059,4.9059,4.9059,4.9059,4.9059,3.1707,3.222,3.2985,3.4177,3.4423,3.4778,3.5442,3.5666,3.5801,3.614,3.7199,3.7882,3.7428,3.7333,3.6902,3.5623,3.4383,3.3146,3.2038,3.2283,3.2674,3.3084,3.5284,3.6616,3.6655,3.7995,3.913,3.9779,4.1535,4.2771,4.3407,4.5368,4.6397,4.6421,4.7181,4.7432,4.7558,4.7783,4.7631,4.7205,4.7205,4.7179,4.7129,4.7129,4.7431,4.7857,4.7857,4.8209,4.8711,4.8761,4.9113,4.954,4.959,4.959,4.959,4.959,4.9565,4.9289,4.8209,4.7908,4.7908,4.7857,4.7883,4.8058,4.8586,4.8711,4.8862,4.9414,4.954,4.9152,4.7821,4.6944,4.5644,4.2584,0.0,0.0,3.9357,3.9409,3.9839,4.08,4.1628,4.2921,4.4836,4.6046,4.7215,4.8804,5.0783,5.1847,5.1993,5.3981,5.5276,5.5972,5.6118,5.5867,5.539,5.5747,5.6022,5.6047,5.6047,5.6047,5.6047,5.6219,5.6072,5.5901,5.4348,5.4039,5.4133,5.1353,5.0546,5.0839,4.9532,4.9059,4.9059,4.9059,4.9059,4.9059,3.2457,3.3374,3.4289,3.4758,3.498,3.5246,3.596,3.6295,3.6722,3.7266,3.7992,3.8589,3.8641,3.7829,3.6824,3.5746,3.4507,3.3389,3.2671,3.2596,3.334,3.5021,3.6264,3.7452,3.8402,3.9796,4.0887,4.142,4.32,4.4373,4.502,4.6366,4.7231,4.7832,4.8323,4.8579,4.8835,4.8962,4.8837,4.8636,4.8284,4.8159,4.8109,4.7757,4.7958,4.8435,4.8435,4.8812,4.9289,4.9289,4.9414,4.959,4.959,4.959,4.959,4.959,4.959,4.9515,4.9063,4.8962,4.8862,4.8535,4.8711,4.9012,4.9238,4.9289,4.9339,4.9565,4.8918,4.8084,4.7557,4.5355,4.3353,4.2449,0.0,3.9836,4.0147,4.0371,4.0883,4.2062,4.3553,4.5017,4.6068,4.8043,4.9811,5.145,5.2541,5.3593,5.467,5.5476,5.5993,5.6194,5.6219,5.6118,5.5892,5.6118,5.6219,5.6219,5.6219,5.6219,5.6219,5.6219,5.6219,5.6219,5.5955,5.6103,5.6368,5.3538,5.2574,5.272,5.0146,4.9059,4.9059,4.9059,4.9059,4.9059,3.3593,3.4401,3.5091,3.5091,3.5446,3.5826,3.6522,3.6906,3.7311,3.8157,3.8498,3.8821,3.9078,3.7723,3.6581,3.5992,3.4524,3.373,3.3914,3.4389,3.502,3.6111,3.7737,3.9088,4.0189,4.1788,4.2716,4.2925,4.4809,4.5869,4.6062,4.728,4.8207,4.8706,4.9072,4.9332,4.959,4.959,4.949,4.9314,4.8937,4.8761,4.8736,4.8335,4.8535,4.9038,4.9038,4.9264,4.959,4.959,4.959,4.959,4.959,4.959,4.959,4.959,4.959,4.959,4.959,4.959,4.9515,4.9113,4.9314,4.959,4.9461,4.9461,4.9332,4.8657,4.7821,4.6784,4.5982,4.3818,4.1967,4.1867,4.0432,3.977,4.0813,4.1061,4.1809,4.3742,4.5168,4.6773,4.8313,5.0181,5.2041,5.3717,5.4205,5.4967,5.6219,5.6219,5.6219,5.6219,5.6219,5.6219,5.6219,5.6219,5.6219,5.6219,5.6219,5.6219,5.6219,5.6219,5.6294,5.6495,5.6872,5.7474,5.8026,5.5335,5.4303,5.3952,5.1011,4.9551,4.9059,4.9059,4.9059,4.9059,3.5423,3.5423,3.5423,3.5423,3.5826,3.6432,3.7269,3.7451,3.7633,3.8527,3.8596,3.8596,3.8596,3.6948,3.589,3.589,3.4191,3.3805,3.5554,3.8039,3.8401,3.5848,3.9936,4.204,4.1614,4.3938,4.4876,4.4371,4.619,4.6956,4.647,4.8293,4.9072,4.9072,4.9461,4.959,4.959,4.959,4.9264,4.8761,4.8786,4.8786,4.8786,4.8786,4.9113,4.959,4.959,4.959,4.959,4.959,4.959,4.959,4.959,4.959,4.959,4.959,4.959,4.959,4.9615,4.959,4.959,4.959,4.959,4.9461,4.9202,4.9072,4.8526,4.6736,4.6335,4.5529,4.312,4.2656,4.2104,4.0664,4.0464,4.0614,4.1062,4.1062,4.2431,4.5679,4.6107,4.7795,5.1751,5.2791,5.3741,5.5246,5.5892,5.6219,5.6219,5.6219,5.6219,5.6219,5.6219,5.6219,5.6219,5.6219,5.6219,5.6219,5.6219,5.6219,5.6219,5.6219,5.652,5.7022,5.7047,5.7675,5.8552,5.6756,5.5446,5.4115,5.2326,5.0696,4.9059,4.9059,4.9059,4.9059,3.5423,3.5533,3.5756,3.6205,3.6498,3.7109,3.8091,3.7908,3.7977,3.8987,3.8803,3.8827,3.943,3.7265,3.6609,3.8299,3.6353,3.5804,3.7863,4.0211,4.0986,3.9913,4.1456,4.273,4.3464,4.4529,4.5363,4.5833,4.6682,4.7475,4.7954,4.8293,4.8724,4.9047,4.906,4.9012,4.9038,4.9439,4.9264,4.8812,4.9188,4.9339,4.9339,4.9339,4.9464,4.959,4.959,4.959,4.959,4.959,4.959,4.959,4.959,4.959,4.959,4.959,4.959,4.9665,5.0067,5.0062,4.97,4.9302,4.9202,4.9202,4.8837,4.8706,4.8387,4.7076,4.592,4.4811,4.3328,4.2249,4.1344,4.0881,4.1128,4.1677,4.245,4.3751,4.5269,4.6768,4.9342,5.1474,5.2692,5.4279,5.5505,5.5968,5.6118,5.6219,5.6219,5.6219,5.6219,5.6219,5.6219,5.6219,5.6219,5.6219,5.6219,5.6219,5.6219,5.6219,5.6219,5.662,5.6872,5.7072,5.7876,5.8403,5.8577,5.7169,5.5777,5.4115,5.2326,5.0696,4.9059,4.9059,4.9891,5.0864,3.6002,3.6135,3.6405,3.7018,3.7404,3.7793,3.8206,3.8275,3.8527,3.9151,3.9105,3.9221,3.9849,3.8372,3.7989,3.9515,3.8627,3.8647,4.0159,4.2051,4.2911,4.2708,4.3013,4.3671,4.4659,4.529,4.5972,4.6761,4.7531,4.8231,4.8812,4.8551,4.8707,4.8982,4.8559,4.8435,4.846,4.9038,4.9088,4.8812,4.9364,4.959,4.959,4.959,4.959,4.959,4.959,4.959,4.959,4.959,4.9741,4.9967,5.0193,5.0268,5.0268,5.0268,5.0112,5.0056,5.0381,5.0066,4.9628,4.9347,4.9282,4.9133,4.8763,4.8209,4.7298,4.5944,4.4768,4.3628,4.2642,4.1775,4.1384,4.1542,4.1857,4.2507,4.4058,4.5356,4.7115,4.9428,5.1703,5.3348,5.4329,5.5408,5.6219,5.6219,5.6219,5.6219,5.6219,5.6219,5.6219,5.6219,5.6219,5.6219,5.6219,5.6219,5.6219,5.6219,5.6219,5.6319,5.6545,5.6872,5.7273,5.775,5.8428,5.883,5.8902,5.8221,5.6876,5.5251,5.4115,5.2658,5.1201,5.1201,5.1849,5.2658,3.6943,3.7035,3.7196,3.7883,3.8367,3.8528,3.8044,3.8596,3.8989,3.8989,3.9356,3.9706,4.0246,3.9864,3.9704,3.9916,4.113,4.2015,4.2397,4.3576,4.4347,4.4347,4.4642,4.5033,4.5315,4.6051,4.6688,4.7353,4.854,4.9072,4.9177,4.891,4.8786,4.8812,4.8234,4.7983,4.8033,4.8611,4.8812,4.8812,4.9364,4.959,4.959,4.959,4.959,4.959,4.959,4.959,4.959,4.959,4.9967,5.0494,5.0971,5.1197,5.1272,5.1222,5.0955,5.0712,5.0762,5.0147,4.9499,4.9631,4.9499,4.9218,4.8767,4.7478,4.5943,4.4069,4.3214,4.2494,4.1502,4.1621,4.2031,4.2562,4.2821,4.3619,4.6252,4.6717,4.8386,5.266,5.3348,5.4132,5.6022,5.6219,5.6219,5.6219,5.6219,5.6219,5.6219,5.6219,5.6219,5.6219,5.6219,5.6219,5.6219,5.6219,5.6219,5.6219,5.6269,5.6545,5.7022,5.7148,5.775,5.873,5.878,5.9056,5.9483,5.9483,5.85,5.6876,5.6876,5.5919,5.4278,5.4278,5.4441,5.4604,3.7252,3.7566,3.7979,3.8914,3.9195,3.9218,3.9078,3.9286,3.9356,3.9356,3.9471,3.9962,4.1117,4.0214,4.0462,4.2492,4.3279,4.3707,4.3826,4.4099,4.447,4.4717,4.5229,4.5841,4.6504,4.6753,4.7199,4.7997,4.8799,4.9202,4.9461,4.9038,4.9012,4.9389,4.8837,4.8586,4.8611,4.9188,4.9163,4.8812,4.9364,4.959,4.959,4.959,4.959,4.959,4.959,4.959,4.959,4.959,4.9967,5.0368,5.0067,5.0569,5.1197,5.0373,5.0389,5.0787,5.0851,5.0602,5.0328,5.0725,5.0343,4.9259,4.7539,4.6889,4.611,4.3827,4.3414,4.3045,4.2329,4.2519,4.3297,4.462,4.5406,4.6753,4.894,5.062,5.2037,5.3384,5.4795,5.5776,5.6194,5.6219,5.6219,5.6219,5.6219,5.6219,5.6219,5.6219,5.6219,5.6219,5.6219,5.6219,5.6219,5.6219,5.6219,5.6219,5.6646,5.6922,5.7072,5.7951,5.8504,5.8755,5.9156,5.9382,5.9483,5.9483,5.85,5.6876,5.6876,5.5919,5.4278,5.4278,5.509,5.6558,3.7956,3.8372,3.8906,3.9706,3.9847,3.9659,3.9165,3.9632,3.9911,3.9391,3.9884,4.0731,4.1659,4.1353,4.1895,4.3695,4.4178,4.4347,4.4347,4.447,4.4715,4.5205,4.5846,4.6513,4.7181,4.7579,4.8103,4.865,4.9053,4.9336,4.9188,4.8912,4.8636,4.841,4.8385,4.8209,4.8033,4.8862,4.9165,4.909,4.9645,4.9847,4.9847,4.9847,4.9719,4.959,4.959,4.959,4.9665,5.0218,5.0594,5.087,5.0964,5.113,5.1405,5.0974,5.0678,5.0665,5.0954,5.0628,5.0277,5.0833,4.9817,4.8545,4.7647,4.6766,4.5808,4.4023,4.3461,4.314,4.2817,4.3716,4.4967,4.5731,4.7199,4.8755,5.0962,5.2342,5.3576,5.4819,5.5754,5.6219,5.6219,5.6219,5.6219,5.6219,5.6219,5.6219,5.6219,5.6219,5.6219,5.6219,5.6219,5.6219,5.6219,5.647,5.6595,5.662,5.6897,5.7323,5.7851,5.8453,5.8855,5.9106,5.9382,5.9483,5.9483,5.9483,5.8993,5.8187,5.8187,5.7534,5.6717,5.6717,5.7376,5.8187,3.8807,3.9278,3.9773,4.0268,4.0339,4.0033,3.9179,3.9978,4.0493,3.9539,4.0458,4.1389,4.1918,4.2519,4.3289,4.4275,4.4347,4.4395,4.4467,4.4863,4.5157,4.5868,4.6563,4.706,4.7558,4.8459,4.896,4.9053,4.9411,4.9314,4.8761,4.8862,4.8385,4.7431,4.7958,4.7958,4.7606,4.8535,4.9166,4.947,4.9926,5.0129,5.0129,5.0129,4.9847,4.959,4.959,4.959,4.9766,5.0795,5.1197,5.1289,5.1942,5.183,5.1495,5.155,5.1052,5.0531,5.0925,5.0616,5.0119,5.06,4.925,4.7797,4.784,4.6706,4.5169,4.4029,4.352,4.3268,4.3652,4.5048,4.6405,4.7048,4.8755,5.063,5.267,5.3275,5.4348,5.6047,5.6219,5.6219,5.6219,5.6219,5.6219,5.6219,5.6219,5.6219,5.6219,5.6219,5.6219,5.6219,5.6294,5.6344,5.6344,5.6897,5.7223,5.7323,5.7323,5.7826,5.873,5.8805,5.9081,5.9483,5.9483,5.9483,5.9483,5.9483,5.9483,5.9483,5.9483,5.9483,5.9483,5.9483,5.9483,5.9483,3.9641,4.0129,4.0458,4.0961,4.1057,4.0865,4.0266,4.0673,4.098,4.0379,4.0812,4.1389,4.1918,4.2832,4.3673,4.4299,4.4347,4.4663,4.5497,4.5521,4.5795,4.6514,4.7532,4.7956,4.7808,4.8937,4.9289,4.8887,4.9364,4.9314,4.8786,4.9264,4.9138,4.856,4.9113,4.9314,4.9264,4.9414,4.9746,5.0002,5.0078,5.0129,5.0129,5.0129,4.9847,4.959,4.959,4.959,4.969,5.0318,5.0581,5.0871,5.0886,5.1073,5.0985,5.0645,5.0482,5.0392,5.0693,5.0648,5.06,5.0696,4.9646,4.8532,4.7506,4.5788,4.4226,4.3359,4.3151,4.3652,4.5474,4.6061,4.7208,5.0187,5.1424,5.267,5.4421,5.5312,5.5901,5.6219,5.6219,5.6219,5.6219,5.6219,5.6219,5.6219,5.6219,5.6219,5.6219,5.6219,5.6219,5.6219,5.6671,5.6922,5.6922,5.7499,5.8027,5.8504,5.8504,5.8579,5.873,5.9182,5.9433,5.9483,5.9483,5.9483,5.9483,5.9483,5.9483,5.9483,5.9483,5.9483,5.9483,5.9483,5.9483,5.9483,4.0081,4.029,4.0571,4.11,4.0932,4.0667,4.0427,4.0836,4.1004,4.0475,4.086,4.1509,4.2327,4.3482,4.4328,4.457,4.4717,4.5183,4.5819,4.6117,4.6662,4.7507,4.8258,4.8509,4.841,4.9188,4.9314,4.8761,4.9314,4.9314,4.8786,4.9339,4.9113,4.8335,4.9213,4.9414,4.9163,4.9464,4.9847,5.0359,5.0232,5.0232,5.0359,5.0104,4.9847,4.959,4.959,4.9791,5.0092,5.0343,5.0506,5.0712,5.0443,5.0346,5.0318,5.0198,5.0132,5.0277,5.0551,5.0912,5.1153,5.1153,4.9553,4.8222,4.8866,4.6958,4.5009,4.4886,4.5633,4.6636,4.7486,4.846,4.9562,5.1139,5.2693,5.4098,5.4892,5.5632,5.6219,5.6219,5.6219,5.6219,5.6219,5.6219,5.6219,5.6219,5.6219,5.6219,5.6219,5.6495,5.652,5.6219,5.7072,5.7374,5.7022,5.7926,5.8478,5.873,5.9006,5.9156,5.9156,5.9382,5.9483,5.9483,5.9483,5.9483,5.9483,5.9483,5.9483,5.9483,5.9483,5.9483,5.9483,5.9483,5.9483,5.9483]},{"header":{"parameterUnit":"m.s-1","parameterCategory":1,"la1":30.6,"la2":28.766,"lo1":-90.7593,"lo2":-88.6598,"dy":0.0162,"dx":0.0183,"nx":116,"ny":114,"refTime":"2023-06-02T06:00:00:Z","depth":0,"parameterNumber":3,"parameterNumberName":"V-component_of_WINDS"},"data":[0.0,0.0,0.0,0.0,0.0,0.0,0.0,0.0,0.0,0.0,0.0,0.0,0.0,0.0,0.0,0.0,0.0,0.0,0.0,0.0,0.0,0.0,0.0,0.0,0.0,0.0,0.0,0.0,0.0,0.0,0.0,0.0,0.0,0.0,0.0,0.0,0.0,0.0,0.0,0.0,0.0,0.0,0.0,0.0,0.0,0.0,0.0,0.0,0.0,0.0,0.0,0.0,0.0,0.0,0.0,0.0,0.0,0.0,0.0,0.0,0.0,0.0,0.0,0.0,0.0,0.0,0.0,0.0,0.0,0.0,0.0,0.0,0.0,0.0,0.0,0.0,0.0,0.0,0.0,0.0,0.0,0.0,0.0,0.0,0.0,0.0,0.0,0.0,0.0,0.0,0.0,0.0,0.0,0.0,0.0,0.0,0.0,0.0,0.0,0.0,0.0,0.0,0.0,0.0,0.0,0.0,0.0,0.0,0.0,0.0,0.0,0.0,0.0,0.0,0.0,0.0,0.0,0.0,0.0,0.0,0.0,0.0,0.0,0.0,0.0,0.0,0.0,0.0,0.0,0.0,0.0,0.0,0.0,0.0,0.0,0.0,0.0,0.0,0.0,0.0,0.0,0.0,0.0,0.0,0.0,0.0,0.0,0.0,0.0,0.0,0.0,0.0,0.0,0.0,0.0,0.0,0.0,0.0,0.0,0.0,0.0,0.0,0.0,0.0,0.0,0.0,0.0,0.0,0.0,0.0,0.0,0.0,0.0,0.0,0.0,0.0,0.0,0.0,0.0,0.0,0.0,0.0,0.0,0.0,0.0,0.0,0.0,0.0,0.0,0.0,0.0,0.0,0.0,0.0,0.0,0.0,0.0,0.0,0.0,0.0,0.0,0.0,0.0,0.0,0.0,0.0,0.0,0.0,0.0,0.0,0.0,0.0,0.0,0.0,0.0,0.0,0.0,0.0,0.0,0.0,0.0,0.0,0.0,0.0,0.0,0.0,0.0,0.0,0.0,0.0,0.0,0.0,0.0,0.0,0.0,0.0,0.0,0.0,0.0,0.0,0.0,0.0,0.0,0.0,0.0,0.0,0.0,0.0,0.0,0.0,0.0,0.0,0.0,0.0,0.0,0.0,0.0,0.0,0.0,0.0,0.0,0.0,0.0,0.0,0.0,0.0,0.0,0.0,0.0,0.0,0.0,0.0,0.0,0.0,0.0,0.0,0.0,0.0,0.0,0.0,0.0,0.0,0.0,0.0,0.0,0.0,0.0,0.0,0.0,0.0,0.0,0.0,0.0,0.0,0.0,0.0,0.0,0.0,0.0,0.0,0.0,0.0,0.0,0.0,0.0,0.0,0.0,0.0,0.0,0.0,0.0,0.0,0.0,0.0,0.0,0.0,0.0,0.0,0.0,0.0,0.0,0.0,0.0,0.0,0.0,0.0,0.0,0.0,0.0,0.0,0.0,0.0,0.0,0.0,0.0,0.0,0.0,0.0,0.0,0.0,0.0,0.0,0.0,0.0,0.0,0.0,0.0,0.0,0.0,0.0,0.0,0.0,0.0,0.0,0.0,0.0,0.0,0.0,0.0,0.0,0.0,0.0,0.0,0.0,0.0,0.0,0.0,0.0,0.0,0.0,0.0,0.0,0.0,0.0,0.0,0.0,0.0,0.0,0.0,0.0,0.0,0.0,0.0,0.0,0.0,0.0,0.0,0.0,0.0,0.0,0.0,0.0,0.0,0.0,0.0,0.0,0.0,0.0,0.0,0.0,0.0,0.0,0.0,0.0,0.0,0.0,0.0,0.0,0.0,0.0,0.0,0.0,0.0,0.0,0.0,0.0,0.0,0.0,0.0,0.0,0.0,0.0,0.0,0.0,0.0,0.0,0.0,0.0,0.0,0.0,0.0,0.0,0.0,0.0,0.0,0.0,0.0,0.0,0.0,0.0,0.0,0.0,0.0,0.0,0.0,0.0,0.0,0.0,0.0,0.0,0.0,0.0,0.0,0.0,0.0,0.0,0.0,0.0,0.0,0.0,0.0,0.0,0.0,0.0,0.0,0.0,0.0,0.0,0.0,0.0,0.0,0.0,0.0,0.0,0.0,0.0,0.0,0.0,0.0,0.0,0.0,0.0,0.0,0.0,0.0,0.0,0.0,0.0,0.0,0.0,0.0,0.0,0.0,0.0,0.0,0.0,0.0,0.0,0.0,0.0,0.0,0.0,0.0,0.0,0.0,0.0,0.0,0.0,0.0,0.0,0.0,0.0,0.0,0.0,0.0,0.0,0.0,0.0,0.0,0.0,0.0,0.0,0.0,0.0,0.0,0.0,0.0,0.0,0.0,0.0,0.0,0.0,0.0,0.0,0.0,0.0,0.0,0.0,0.0,0.0,0.0,0.0,0.0,0.0,0.0,0.0,0.0,0.0,0.0,0.0,0.0,0.0,0.0,0.0,0.0,0.0,0.0,0.0,0.0,0.0,0.0,0.0,0.0,0.0,0.0,0.0,0.0,0.0,0.0,0.0,0.0,0.0,0.0,0.0,0.0,0.0,0.0,0.0,0.0,0.0,0.0,0.0,0.0,0.0,0.0,0.0,0.0,0.0,0.0,0.0,0.0,0.0,0.0,0.0,0.0,0.0,0.0,0.0,0.0,0.0,0.0,0.0,0.0,0.0,0.0,0.0,0.0,0.0,0.0,0.0,0.0,0.0,0.0,0.0,0.0,0.0,0.0,0.0,0.0,0.0,0.0,0.0,0.0,0.0,0.0,0.0,0.0,0.0,0.0,0.0,0.0,0.0,0.0,0.0,0.0,0.0,0.0,0.0,0.0,0.0,0.0,0.0,0.0,0.0,0.0,0.0,0.0,0.0,0.0,0.0,0.0,0.0,0.0,0.0,0.0,0.0,0.0,0.0,0.0,0.0,0.0,0.0,0.0,0.0,0.0,0.0,0.0,0.0,0.0,0.0,0.0,0.0,0.0,0.0,0.0,0.0,0.0,0.0,0.0,0.0,0.0,0.0,0.0,0.0,0.0,0.0,0.0,0.0,0.0,0.0,0.0,0.0,0.0,0.0,0.0,0.0,0.0,0.0,0.0,0.0,0.0,0.0,0.0,0.0,0.0,0.0,0.0,0.0,0.0,0.0,0.0,0.0,0.0,0.0,0.0,0.0,0.0,0.0,0.0,0.0,0.0,0.0,0.0,0.0,0.0,0.0,0.0,0.0,0.0,0.0,0.0,0.0,0.0,0.0,0.0,0.0,0.0,0.0,0.0,0.0,0.0,0.0,0.0,0.0,0.0,0.0,0.0,0.0,0.0,0.0,0.0,0.0,0.0,0.0,0.0,0.0,0.0,0.0,0.0,0.0,0.0,0.0,0.0,0.0,0.0,0.0,0.0,0.0,0.0,0.0,0.0,0.0,0.0,0.0,0.0,0.0,0.0,0.0,0.0,0.0,0.0,0.0,0.0,0.0,0.0,0.0,0.0,0.0,0.0,0.0,0.0,0.0,0.0,0.0,0.0,0.0,0.0,0.0,0.0,0.0,0.0,0.0,0.0,0.0,0.0,0.0,0.0,0.0,0.0,0.0,0.0,0.0,0.0,0.0,0.0,0.0,0.0,0.0,0.0,0.0,0.0,0.0,0.0,0.0,0.0,0.0,0.0,0.0,0.0,0.0,0.0,0.0,0.0,0.0,0.0,0.0,0.0,0.0,0.0,0.0,0.0,0.0,0.0,0.0,0.0,0.0,0.0,0.0,0.0,0.0,0.0,0.0,0.0,0.0,0.0,0.0,0.0,0.0,0.0,0.0,0.0,0.0,0.0,0.0,0.0,0.0,0.0,0.0,0.0,0.0,0.0,0.0,0.0,0.0,0.0,0.0,0.0,0.0,0.0,0.0,0.0,0.0,0.0,0.0,0.0,0.0,0.0,0.0,0.0,0.0,0.0,0.0,0.0,0.0,0.0,0.0,0.0,0.0,0.0,0.0,0.0,0.0,0.0,0.0,0.0,0.0,0.0,0.0,0.0,0.0,0.0,0.0,0.0,0.0,0.0,0.0,0.0,0.0,0.0,0.0,0.0,0.0,0.0,0.0,0.0,0.0,0.0,0.0,0.0,0.0,0.0,0.0,0.0,0.0,0.0,0.0,0.0,0.0,0.0,0.0,0.0,0.0,0.0,0.0,0.0,0.0,0.0,0.0,0.0,0.0,0.0,0.0,0.0,0.0,0.0,0.0,0.0,0.0,0.0,0.0,0.0,0.0,0.0,0.0,0.0,0.0,0.0,0.0,0.0,0.0,0.0,0.0,0.0,0.0,0.0,0.0,0.0,0.0,0.0,0.0,0.0,0.0,0.0,0.0,0.0,0.0,0.0,0.0,0.0,0.0,0.0,0.0,0.0,0.0,0.0,0.0,0.0,0.0,0.0,0.0,0.0,0.0,0.0,0.0,0.0,0.0,0.0,0.0,0.0,0.0,0.0,0.0,0.0,0.0,0.0,0.0,0.0,0.0,0.0,0.0,0.0,0.0,0.0,0.0,0.0,0.0,0.0,0.0,0.0,0.0,0.0,0.0,0.0,0.0,0.0,0.0,0.0,0.0,0.0,0.0,0.0,0.0,0.0,0.0,0.0,0.0,0.0,0.0,0.0,0.0,0.0,0.0,0.0,0.0,0.0,0.0,0.0,0.0,0.0,0.0,0.0,0.0,0.0,0.0,0.0,0.0,0.0,0.0,0.0,0.0,0.0,0.0,0.0,0.0,0.0,0.0,0.0,0.0,0.0,0.0,0.0,0.0,0.0,0.0,0.0,0.0,0.0,0.0,0.0,0.0,0.0,0.0,0.0,0.0,0.0,0.0,0.0,0.0,0.0,0.0,0.0,0.0,0.0,0.0,0.0,0.0,0.0,0.0,0.0,0.0,0.0,0.0,0.0,0.0,0.0,0.0,0.0,0.0,0.0,0.0,0.0,0.0,0.0,0.0,0.0,0.0,0.0,0.0,0.0,0.0,0.0,0.0,0.0,0.0,0.0,0.0,0.0,0.0,0.0,0.0,0.0,0.0,0.0,0.0,0.0,0.0,0.0,0.0,0.0,0.0,0.0,0.0,0.0,0.0,0.0,0.0,0.0,0.0,0.0,0.0,0.0,0.0,0.0,0.0,0.0,0.0,0.0,0.0,0.0,0.0,0.0,0.0,0.0,0.0,0.0,0.0,0.0,0.0,0.0,0.0,0.0,0.0,0.0,0.0,0.0,0.0,0.0,0.0,0.0,0.0,0.0,0.0,0.0,0.0,0.0,0.0,0.0,0.0,0.0,0.0,0.0,0.0,0.0,0.0,0.0,0.0,0.0,0.0,0.0,0.0,0.0,0.0,0.0,0.0,0.0,0.0,0.0,0.0,0.0,0.0,0.0,0.0,0.0,0.0,0.0,0.0,0.0,0.0,0.0,0.0,0.0,0.0,0.0,0.0,0.0,0.0,0.0,0.0,0.0,0.0,0.0,0.0,0.0,0.0,0.0,0.0,0.0,0.0,0.0,0.0,0.0,0.0,0.0,0.0,0.0,0.0,0.0,0.0,0.0,0.0,0.0,0.0,0.0,0.0,0.0,0.0,0.0,0.0,0.0,0.0,0.0,0.0,0.0,0.0,0.0,0.0,0.0,0.0,0.0,0.0,0.0,0.0,0.0,0.0,0.0,0.0,0.0,0.0,0.0,0.0,0.0,0.0,0.0,0.0,0.0,0.0,0.0,0.0,0.0,0.0,0.0,0.0,0.0,0.0,0.0,0.0,0.0,0.0,0.0,0.0,0.0,0.0,0.0,0.0,0.0,0.0,0.0,0.0,0.0,0.0,0.0,0.0,0.0,0.0,0.0,0.0,0.0,0.0,0.0,0.0,0.0,0.0,0.0,0.0,0.0,0.0,0.0,0.0,0.0,0.0,0.0,0.0,0.0,0.0,0.0,0.0,0.0,0.0,0.0,0.0,0.0,0.0,0.0,0.0,0.0,0.0,0.0,0.0,0.0,0.0,0.0,0.0,0.0,0.0,0.0,0.0,0.0,0.0,0.0,0.0,0.0,0.0,0.0,0.0,0.0,0.0,0.0,0.0,0.0,0.0,4.0466,3.9636,0.0,0.0,0.0,0.0,0.0,0.0,0.0,0.0,0.0,0.0,0.0,0.0,0.0,0.0,0.0,0.0,0.0,0.0,0.0,0.0,0.0,0.0,0.0,0.0,0.0,0.0,0.0,0.0,0.0,0.0,0.0,0.0,0.0,0.0,0.0,0.0,0.0,3.1852,3.2297,3.2612,3.2748,3.1961,3.1346,3.0904,0.0,0.0,0.0,0.0,0.0,0.0,0.0,0.0,0.0,0.0,0.0,0.0,0.0,0.0,0.0,0.0,0.0,0.0,0.0,0.0,0.0,0.0,0.0,0.0,0.0,0.0,0.0,0.0,0.0,0.0,0.0,0.0,0.0,0.0,0.0,0.0,0.0,0.0,0.0,0.0,0.0,0.0,0.0,0.0,0.0,0.0,0.0,0.0,0.0,0.0,0.0,0.0,0.0,0.0,0.0,0.0,0.0,0.0,0.0,0.0,0.0,0.0,0.0,0.0,0.0,0.0,0.0,0.0,0.0,0.0,4.1656,4.1349,0.0,0.0,0.0,0.0,0.0,0.0,0.0,0.0,0.0,0.0,0.0,0.0,0.0,0.0,0.0,0.0,0.0,0.0,0.0,0.0,0.0,0.0,0.0,2.9599,2.9827,2.9585,2.9585,2.9451,0.0,0.0,0.0,0.0,0.0,0.0,0.0,3.2005,3.2661,3.3084,3.3519,3.3697,3.3537,3.3478,3.2981,3.2088,3.2067,0.0,0.0,0.0,0.0,0.0,0.0,0.0,0.0,0.0,0.0,0.0,0.0,0.0,0.0,0.0,0.0,0.0,0.0,0.0,0.0,0.0,0.0,0.0,0.0,0.0,0.0,0.0,0.0,0.0,0.0,0.0,0.0,0.0,0.0,0.0,0.0,0.0,0.0,0.0,0.0,0.0,0.0,0.0,0.0,0.0,0.0,0.0,0.0,0.0,0.0,0.0,0.0,0.0,0.0,0.0,0.0,0.0,0.0,0.0,0.0,0.0,0.0,0.0,4.26,4.224,4.1911,4.16,4.1786,4.237,4.2982,4.3226,4.3197,4.2783,0.0,0.0,0.0,0.0,0.0,0.0,0.0,0.0,0.0,0.0,0.0,0.0,0.0,0.0,0.0,0.0,0.0,0.0,0.0,0.0,0.0,3.0489,3.0818,3.053,3.0319,3.0093,2.9935,0.0,0.0,0.0,0.0,0.0,3.2611,3.2976,3.3511,3.4209,3.432,3.4156,3.3782,3.3671,3.3531,3.3268,3.3101,3.2895,3.2637,0.0,0.0,0.0,0.0,0.0,0.0,0.0,0.0,0.0,0.0,0.0,0.0,0.0,0.0,0.0,0.0,0.0,0.0,0.0,0.0,0.0,0.0,0.0,0.0,0.0,0.0,0.0,0.0,0.0,0.0,0.0,0.0,0.0,0.0,0.0,0.0,0.0,0.0,0.0,0.0,0.0,4.1477,4.175,0.0,0.0,0.0,0.0,0.0,0.0,0.0,0.0,0.0,0.0,0.0,0.0,0.0,4.2101,4.2782,4.4272,4.4505,4.3393,4.4649,4.4565,4.3284,4.384,4.4375,4.489,4.5027,0.0,4.3453,4.3515,0.0,0.0,0.0,0.0,0.0,0.0,0.0,0.0,0.0,0.0,0.0,0.0,0.0,0.0,0.0,0.0,0.0,0.0,0.0,0.0,0.0,3.1901,3.2327,3.1813,3.1212,3.0905,3.0959,3.0662,0.0,0.0,0.0,3.287,3.3488,3.3877,3.412,3.4216,3.3781,3.3398,3.3109,3.2511,3.2446,3.2838,3.2415,3.2616,3.3237,3.2561,0.0,0.0,0.0,0.0,0.0,0.0,0.0,0.0,0.0,0.0,0.0,0.0,0.0,0.0,0.0,0.0,0.0,0.0,0.0,0.0,0.0,0.0,0.0,0.0,0.0,0.0,0.0,0.0,0.0,0.0,0.0,0.0,0.0,0.0,0.0,0.0,0.0,0.0,0.0,4.0373,4.1027,4.0334,4.0298,4.0274,0.0,0.0,0.0,0.0,0.0,0.0,0.0,0.0,0.0,4.1285,4.2763,4.3677,4.4039,4.5536,4.5819,4.4957,4.5198,4.4818,4.3902,4.4243,4.4698,4.5346,4.5446,4.5315,4.5116,4.5041,4.4753,4.4319,0.0,0.0,0.0,0.0,4.5406,4.5723,0.0,0.0,0.0,0.0,0.0,0.0,0.0,0.0,0.0,0.0,0.0,0.0,3.233,3.3271,3.3663,3.3088,3.2096,3.1674,3.214,3.1402,3.1505,3.2757,3.3403,3.3936,3.4313,3.4453,3.4218,3.3529,3.2762,3.2299,3.2104,3.1044,3.0898,3.1498,3.0906,3.1579,3.3083,3.2628,3.2483,3.2484,0.0,0.0,0.0,0.0,0.0,0.0,0.0,0.0,0.0,0.0,0.0,0.0,0.0,0.0,0.0,0.0,0.0,0.0,0.0,0.0,0.0,0.0,0.0,0.0,0.0,0.0,0.0,0.0,0.0,0.0,0.0,0.0,0.0,0.0,0.0,0.0,0.0,4.0106,4.0823,3.949,4.0124,4.0526,0.0,0.0,0.0,0.0,0.0,0.0,4.05,4.0917,4.1278,4.1452,4.3681,4.494,4.5111,4.6358,4.6776,4.6309,4.552,4.4981,4.4618,4.4618,4.4947,4.5477,4.558,4.592,4.6328,4.598,4.5702,4.5566,4.5787,4.587,4.5877,4.6468,4.68,4.7024,0.0,0.0,0.0,0.0,0.0,0.0,0.0,0.0,0.0,0.0,0.0,3.339,3.4263,3.4403,3.4386,3.4251,3.2913,3.2448,3.3348,3.2613,3.2641,3.3847,3.4366,3.4834,3.523,3.4505,3.344,3.2,3.1564,3.1192,3.0751,2.9632,2.9148,2.9154,2.8737,2.9766,3.18,3.196,3.1939,3.1869,3.2029,0.0,0.0,0.0,0.0,0.0,0.0,0.0,0.0,0.0,0.0,0.0,0.0,0.0,0.0,0.0,0.0,0.0,0.0,0.0,0.0,0.0,0.0,0.0,0.0,0.0,0.0,0.0,0.0,0.0,0.0,0.0,0.0,0.0,0.0,0.0,0.0,0.0,0.0,4.1187,4.1863,0.0,0.0,0.0,0.0,4.1747,4.1104,4.1325,4.2723,4.1436,4.1501,4.3406,4.4271,4.5014,4.5637,4.6546,4.6969,4.6969,4.6169,4.5701,4.5701,4.5701,4.5803,4.5955,4.5955,4.6055,4.6168,4.5647,4.5432,4.5513,4.6397,4.63,4.5847,4.7926,4.8425,4.8051,0.0,0.0,0.0,0.0,0.0,0.0,0.0,0.0,3.2619,3.3379,3.4003,3.4292,3.4052,3.4319,3.4471,3.4443,3.2946,3.2415,3.3311,3.2742,3.2814,3.377,3.4636,3.4948,3.464,3.3306,3.2456,3.2136,3.0934,3.0168,2.9816,2.8388,2.7758,2.7812,2.7283,2.7451,2.8263,2.9989,3.1342,3.2378,3.2868,3.3075,0.0,0.0,0.0,0.0,0.0,0.0,0.0,0.0,0.0,0.0,0.0,0.0,0.0,0.0,0.0,0.0,0.0,0.0,0.0,0.0,0.0,0.0,0.0,0.0,0.0,0.0,0.0,0.0,0.0,0.0,0.0,0.0,0.0,0.0,0.0,0.0,0.0,4.171,4.2925,0.0,4.2543,4.3027,4.3254,4.293,4.3098,4.3301,4.3498,4.2832,4.3079,4.4397,4.5428,4.636,4.714,4.7361,4.743,4.7449,4.6116,4.5581,4.5684,4.5684,4.5736,4.5889,4.5955,4.604,4.6105,4.6271,4.6223,4.6106,4.6728,4.6874,4.6829,4.797,4.8412,4.8495,0.0,0.0,0.0,0.0,0.0,0.0,0.0,0.0,3.4043,3.3885,3.4677,3.4886,3.393,3.4267,3.4657,3.4719,3.3116,3.2647,3.3886,3.3093,3.3076,3.4205,3.4753,3.4581,3.3687,3.252,3.1817,3.1673,3.0203,2.9361,2.9057,2.729,2.6442,2.6495,2.5853,2.5678,2.5955,2.7642,2.9534,3.1473,3.2493,3.3269,3.3902,0.0,0.0,0.0,0.0,0.0,0.0,0.0,0.0,0.0,0.0,0.0,0.0,0.0,0.0,0.0,0.0,0.0,0.0,0.0,0.0,0.0,0.0,0.0,0.0,0.0,0.0,0.0,0.0,0.0,0.0,0.0,0.0,0.0,0.0,4.3048,4.4052,4.2551,4.4344,4.5185,4.3833,4.4729,4.5089,4.4422,4.4756,4.4868,4.4541,4.4348,4.4649,4.5502,4.6548,4.7352,4.7861,4.7763,4.7596,4.732,4.6044,4.5423,4.5528,4.5701,4.5854,4.6005,4.6253,4.6398,4.6495,4.689,4.6936,4.6824,4.777,4.8207,4.8338,4.8879,4.9084,4.9119,0.0,0.0,0.0,0.0,0.0,0.0,0.0,3.2918,3.38,3.3983,3.4866,3.5068,3.4006,3.4413,3.4905,3.5172,3.345,3.3167,3.5134,3.3661,3.3531,3.5287,3.4718,3.3754,3.2585,3.2224,3.1568,3.0556,2.9351,2.8701,2.8513,2.6438,2.5377,2.513,2.451,2.4518,2.5093,2.5138,2.6648,2.907,3.0881,3.2601,3.4263,0.0,0.0,0.0,0.0,0.0,0.0,0.0,0.0,0.0,0.0,0.0,0.0,0.0,0.0,0.0,0.0,0.0,0.0,0.0,0.0,0.0,0.0,0.0,0.0,0.0,0.0,0.0,0.0,0.0,0.0,0.0,0.0,0.0,4.3645,4.4833,4.523,4.3817,4.5983,4.6955,4.5268,4.5601,4.6045,4.6122,4.5807,4.5732,4.6018,4.5868,4.6171,4.6839,4.7558,4.7894,4.7834,4.774,4.7389,4.6665,4.5872,4.5492,4.5545,4.6025,4.6372,4.6517,4.6952,4.7223,4.7356,4.745,4.75,4.768,4.9458,5.0125,5.0211,5.0777,5.049,4.9895,0.0,0.0,0.0,0.0,0.0,0.0,0.0,3.4012,3.4746,3.4213,3.4792,3.493,3.3915,3.4289,3.4694,3.5014,3.4007,3.3627,3.4378,3.3984,3.4091,3.494,3.3335,3.2673,3.3205,3.1753,3.1079,3.1165,2.9512,2.8622,2.8336,2.6953,2.5852,2.5033,2.4803,2.4506,2.424,2.4887,2.5959,2.7542,3.0369,3.2786,3.4833,0.0,0.0,0.0,0.0,0.0,0.0,0.0,0.0,0.0,0.0,0.0,0.0,0.0,0.0,0.0,0.0,0.0,0.0,0.0,0.0,0.0,0.0,0.0,0.0,0.0,0.0,0.0,0.0,0.0,0.0,0.0,4.5176,4.5571,4.4559,4.5171,4.5838,4.6397,4.7386,4.7776,4.7282,4.7706,4.7808,4.7313,4.6646,4.6481,4.7043,4.6481,4.6697,4.7894,4.8167,4.8558,4.9188,4.8644,4.8501,4.8767,4.7642,4.7474,4.8218,4.8005,4.807,4.8508,4.8744,4.8514,4.8093,4.9155,4.9622,4.9674,4.9065,4.8849,4.8888,4.9453,5.0056,5.0635,0.0,0.0,0.0,0.0,0.0,0.0,0.0,3.476,3.5096,3.4315,3.4921,3.5072,3.4138,3.4518,3.4932,3.5174,3.4378,3.407,3.4565,3.4558,3.4356,3.4007,3.3027,3.2753,3.3284,3.1705,3.0994,3.1244,2.9641,2.8748,2.8511,2.7469,2.6515,2.5577,2.5704,2.5581,2.5371,2.6276,2.7332,2.8564,3.0967,3.3125,3.5012,3.637,3.75,3.8452,3.8732,3.863,3.8603,3.9932,0.0,0.0,0.0,0.0,0.0,0.0,0.0,0.0,0.0,0.0,0.0,0.0,0.0,0.0,0.0,0.0,0.0,0.0,0.0,0.0,0.0,0.0,0.0,0.0,4.6722,4.7145,4.649,4.6842,4.7466,4.8114,4.8641,4.8802,4.8436,4.8633,4.8574,4.8105,4.7636,4.7739,4.8687,4.8254,4.8401,4.9229,4.9457,4.9548,4.9516,4.9292,4.9256,4.9376,4.8644,4.8604,4.9293,4.9198,4.9305,4.9621,4.9928,4.9582,4.8937,5.0154,5.0588,5.0415,0.0,0.0,0.0,0.0,5.1247,5.1623,0.0,0.0,0.0,0.0,0.0,0.0,0.0,3.5192,3.5127,3.4306,3.5156,3.5441,3.4384,3.4808,3.5282,3.5499,3.4681,3.4461,3.5252,3.5063,3.4396,3.3171,3.346,3.3514,3.3081,3.1846,3.1151,3.1104,2.9762,2.8993,2.8856,2.7972,2.7229,2.6614,2.6916,2.7224,2.754,2.8539,2.972,3.108,3.2323,3.367,3.5067,3.6504,3.8358,4.0314,4.1094,4.0994,4.0774,4.2497,0.0,0.0,0.0,0.0,0.0,0.0,0.0,0.0,0.0,0.0,0.0,0.0,0.0,0.0,0.0,0.0,0.0,0.0,0.0,0.0,0.0,0.0,0.0,0.0,4.814,4.8945,4.8856,4.9394,4.9625,4.9249,4.9785,4.9903,4.9201,4.9054,4.8998,4.8941,4.8827,4.9309,5.0418,5.0453,0.0,0.0,0.0,5.0612,4.9408,4.9943,4.9962,4.9447,4.9399,4.9495,4.9733,5.0101,5.0279,5.0402,5.0858,5.0659,4.9963,5.0851,5.1046,5.0871,5.1971,5.3084,5.4021,5.3736,5.3194,5.2677,0.0,0.0,0.0,0.0,0.0,0.0,0.0,3.5132,3.5079,3.4373,3.566,3.5828,3.3658,3.4139,3.4921,3.5741,3.4892,3.4605,3.5238,3.4518,3.4149,3.4405,3.424,3.4006,3.3561,3.2138,3.128,3.1011,2.9609,2.8832,2.8694,2.869,2.8373,2.7789,2.795,2.8432,2.9197,2.9658,3.0679,3.2092,3.3406,3.4667,3.5756,3.6496,3.8466,4.0746,4.0304,4.1058,4.2314,4.2313,4.3123,4.4297,4.5268,4.6108,0.0,0.0,0.0,0.0,0.0,0.0,0.0,0.0,0.0,0.0,0.0,0.0,0.0,0.0,0.0,0.0,0.0,0.0,0.0,4.9373,5.0177,5.0615,5.0433,5.1024,5.1187,5.0396,5.0332,5.0515,5.1012,5.0664,5.0538,5.0875,5.0375,5.0279,5.0822,5.0733,5.0678,5.0678,5.0751,5.077,5.0664,5.0875,5.1215,5.1574,5.1285,0.0,5.2455,5.2073,5.2199,5.2584,5.2705,5.2438,5.1973,5.2789,5.3383,5.3628,5.2704,5.2462,5.2693,5.2882,5.3276,5.3746,0.0,0.0,0.0,0.0,0.0,0.0,0.0,3.5989,3.5895,3.5276,3.6377,3.659,3.4912,3.5242,3.5611,3.5675,3.5272,3.4925,3.482,3.4602,3.4369,3.4111,3.3911,3.3635,3.3216,3.1801,3.1218,3.1439,3.0524,3.0209,3.0551,3.0636,3.0393,2.9862,3.0292,3.0589,3.0916,3.2188,3.3269,3.4228,3.5686,3.672,3.7435,3.722,3.8819,4.1163,4.1177,4.1819,4.2772,4.3673,4.4521,4.5404,4.6348,4.7258,4.7847,0.0,0.0,0.0,0.0,0.0,0.0,0.0,0.0,0.0,0.0,0.0,0.0,0.0,0.0,4.8534,4.9471,0.0,5.0749,5.0818,5.1357,5.1595,5.1109,5.1682,5.1883,5.1178,5.1044,5.1173,5.1565,5.1347,5.1244,5.1363,5.1052,5.1035,5.15,5.1414,5.1363,5.1363,5.1615,5.1665,5.15,5.2018,5.2481,5.2834,5.284,5.3171,5.3757,5.345,5.3526,5.3794,5.4166,5.3758,5.285,5.3532,5.4201,5.4743,5.4218,5.3938,5.3834,5.4149,5.4511,5.4879,0.0,0.0,0.0,0.0,0.0,0.0,0.0,3.6584,3.6543,3.6216,3.6974,3.7228,3.6328,3.628,3.6035,3.5279,3.5347,3.5091,3.4372,3.4913,3.4726,3.3363,3.3597,3.3393,3.2676,3.1518,3.126,3.1937,3.1465,3.1699,3.2552,3.2611,3.2433,3.2045,3.2611,3.2847,3.2905,3.4659,3.5809,3.6482,3.7757,3.8639,3.9157,3.8579,3.9677,4.1563,4.2193,4.2718,4.3388,4.5177,4.5944,4.6274,4.7417,4.8249,4.8616,4.7947,4.8045,0.0,0.0,0.0,0.0,0.0,0.0,0.0,0.0,5.0241,4.9558,5.0974,5.0748,5.0485,5.1124,5.2231,5.2844,5.2252,5.2526,5.2641,5.1971,5.2382,5.2665,5.2417,5.2126,5.1946,5.1897,5.1799,5.1786,5.1844,5.1601,5.1799,5.2495,5.2351,5.2289,5.2381,5.2777,5.282,5.2345,5.3166,5.3567,5.3607,5.3941,5.419,5.4334,5.4446,5.4555,5.4593,5.5484,5.5169,5.3981,5.4329,5.4868,5.5467,5.566,5.5621,5.5446,5.5621,5.5707,5.5768,0.0,0.0,0.0,0.0,0.0,0.0,0.0,0.0,3.5947,3.641,3.7242,3.7286,3.6058,3.5344,3.4754,3.4306,3.4471,3.457,3.44,3.5171,3.4861,3.3132,3.4438,3.4411,3.2557,3.1686,3.1527,3.2086,3.1675,3.1862,3.2685,3.3355,3.359,3.356,3.3752,3.4393,3.5323,3.5437,3.6521,3.8142,3.8438,3.9176,4.0152,4.09,4.1623,4.2235,4.1925,4.3269,4.5297,4.5686,4.6402,4.7397,4.8949,4.9567,4.973,4.9644,4.9058,4.8458,4.8282,4.918,5.0489,5.204,5.2115,5.2188,0.0,5.3282,5.2742,5.3202,5.3223,5.3205,5.3373,5.3601,5.386,5.4419,5.4519,5.4465,5.4252,5.4258,5.4571,5.5191,5.3975,5.3109,5.3017,5.259,5.2744,5.3827,5.277,5.2753,5.4239,5.3613,5.341,5.3684,5.3758,5.3758,5.3684,5.3905,5.4013,5.4013,5.419,5.4296,5.4334,5.5112,5.5446,5.5517,5.6732,5.7177,5.6978,5.6677,5.6629,5.6652,5.6078,5.5879,5.5822,5.5748,5.5789,5.5891,0.0,0.0,0.0,0.0,0.0,0.0,0.0,0.0,0.0,3.6787,3.7537,3.7755,3.7005,3.5941,3.5268,3.5364,3.5049,3.4915,3.5027,3.5424,3.5073,3.3818,3.3935,3.3406,3.2064,3.1682,3.1837,3.2562,3.2865,3.3451,3.4303,3.5057,3.5387,3.5311,3.5426,3.5687,3.6072,3.6515,3.7274,3.8288,3.9779,4.0677,4.1236,4.2209,4.301,4.3551,4.3435,4.4417,0.0,4.5849,4.6795,4.8116,4.8782,4.9004,4.9147,4.9613,4.9847,5.022,5.1731,5.1915,5.1964,5.3353,5.3617,5.3815,5.4714,5.4658,5.4752,5.5815,5.5652,5.545,5.6026,5.6049,5.611,5.6369,5.594,5.57,5.6133,5.5724,5.5693,5.6425,5.5939,5.5471,5.5435,5.5212,5.5323,5.5809,5.4799,5.4464,5.5137,5.4391,5.3979,5.4121,5.4153,5.4187,5.4187,5.4484,5.4609,5.4609,5.5379,5.5465,5.5047,5.6435,5.7301,5.7758,5.7875,5.8183,5.8553,5.806,5.7854,5.7757,5.7048,5.6783,5.6706,5.618,5.6054,5.6097,0.0,0.0,0.0,0.0,0.0,0.0,0.0,0.0,0.0,0.0,3.767,3.7831,3.7403,3.6656,3.6205,3.61,3.5652,3.5361,3.5383,3.5451,3.5066,3.3984,3.3554,3.2929,3.1991,3.1944,3.2404,3.3463,3.4051,3.4915,3.5974,3.6561,3.6794,3.6706,3.6693,3.6676,3.6694,3.7274,3.782,3.8438,4.0426,4.1427,4.1844,4.3033,4.3973,4.4651,4.4915,4.5385,4.6002,4.6466,4.7312,4.8193,4.8448,4.8483,4.8619,4.947,5.0279,5.137,5.3498,5.3628,5.3422,5.4468,5.502,5.5341,5.5568,5.5645,5.6078,5.7618,5.7435,5.7213,5.7978,5.7995,5.7905,5.7824,5.7249,5.7033,5.7569,5.7136,5.7009,5.7798,5.7913,5.7947,5.8101,5.7422,5.7078,5.7305,5.6522,5.5998,5.6134,5.5314,5.4786,5.4654,5.4678,5.4822,5.5049,5.5341,5.563,5.5859,5.6753,5.6827,5.6252,5.7772,5.8957,5.9742,5.8941,5.9121,5.9822,5.869,5.8343,5.8435,5.7242,5.6787,5.668,5.5861,5.5861,5.6251,0.0,0.0,0.0,0.0,0.0,0.0,0.0,0.0,0.0,0.0,0.0,0.0,0.0,3.7293,3.7217,3.5736,3.5831,3.5734,3.5147,3.5239,3.4652,3.3122,3.3837,3.3757,3.2694,3.2676,3.3429,3.493,3.4955,3.5813,3.7456,3.7456,3.7467,3.745,3.7244,3.7307,3.7552,3.7384,3.7938,3.9058,3.9983,4.081,4.1668,4.3366,4.4487,4.5225,4.5763,4.6025,4.6343,4.7907,4.7928,4.7458,4.8252,4.8548,4.8747,4.9543,5.0311,5.1099,5.2028,5.3281,5.4549,5.5357,5.6022,5.6434,5.646,5.646,5.6803,5.8027,5.8273,5.8374,5.8802,5.8822,5.8721,5.8658,5.8649,5.8596,5.856,5.8595,5.8933,5.9828,5.9904,6.0166,6.0828,5.8509,5.7343,5.8102,5.7385,5.7131,5.7414,5.6683,5.5984,5.5476,5.5461,5.5883,5.6726,5.675,5.7172,5.8016,5.804,5.804,5.804,5.8933,5.9931,6.0902,6.005,6.0243,6.1032,5.8476,5.7931,5.8459,5.6098,5.5159,5.5065,5.4325,5.5059,5.6386,0.0,0.0,0.0,0.0,0.0,0.0,0.0,0.0,0.0,0.0,0.0,0.0,0.0,0.0,0.0,0.0,3.6496,3.597,3.5468,3.6026,3.5415,3.3295,3.3739,3.3597,3.2655,3.2954,3.3377,3.3918,3.5589,3.6445,3.6519,3.8093,3.8627,3.8298,3.8577,3.8574,3.834,3.8723,3.9189,3.9712,4.1213,4.2124,4.2769,4.4576,4.5513,4.5977,0.0,4.7391,4.7434,4.7003,4.7073,4.75,4.8316,4.8201,4.8078,4.9456,5.042,5.1321,5.2757,5.3756,5.4629,5.5615,5.6368,5.7023,5.7773,5.8435,5.9163,6.0151,5.9904,5.9538,5.9689,5.9689,5.9669,5.9643,5.9638,5.9794,6.0307,5.9904,5.9888,6.0772,6.0876,6.0968,6.1186,6.0342,5.981,5.9905,5.9229,5.8827,5.8934,5.8104,5.7576,5.7485,5.7521,5.7693,5.8002,5.8037,5.8225,5.8513,5.8506,5.8793,5.9359,5.9064,5.9148,5.9477,5.9788,5.9789,5.9565,5.9356,5.9077,5.8694,5.7438,5.6595,5.6013,5.5156,5.4844,5.4882,0.0,0.0,0.0,0.0,0.0,0.0,0.0,0.0,0.0,0.0,0.0,0.0,0.0,0.0,0.0,0.0,0.0,3.609,3.5883,3.6128,3.559,3.4097,3.4129,3.386,3.3213,3.3067,3.3291,3.3804,3.5191,3.5901,3.6037,3.7591,3.8146,3.7828,3.8654,3.8761,3.8363,3.9481,3.9904,4.002,4.1636,4.2693,4.3502,4.5095,4.6225,0.0,4.776,4.8298,4.8382,4.6907,4.6658,4.7098,4.789,4.8205,4.8552,4.9948,5.1113,5.2356,5.4086,5.5031,5.5629,5.6388,5.6883,5.7416,5.8129,5.8744,5.9389,6.0364,6.0054,5.9534,5.93,5.9495,5.9602,5.9254,5.9528,6.0067,6.0837,6.0465,6.0481,6.1339,6.172,6.1898,6.1822,6.1822,6.1615,6.1041,6.0515,6.0157,5.9808,5.9249,5.8816,5.857,5.8597,5.8804,5.9115,5.9128,5.9308,5.9631,5.9305,5.946,5.9955,5.9099,5.8743,5.8773,5.9017,5.9035,5.8889,5.8909,5.8769,5.846,5.7383,5.6638,5.5973,5.4755,5.3927,5.3653,0.0,0.0,0.0,0.0,0.0,0.0,0.0,0.0,0.0,0.0,0.0,0.0,0.0,0.0,0.0,0.0,0.0,0.0,3.629,3.561,3.5205,3.5313,3.4817,3.448,3.4268,3.3097,3.3141,3.4404,3.4026,3.4525,3.5918,3.6139,3.6214,3.6243,3.7585,3.7958,3.772,3.9575,4.0152,3.9978,4.1361,4.266,4.3841,4.4997,4.6674,4.8359,4.8202,4.8694,4.9135,4.7699,4.6813,4.6449,4.7264,4.8644,5.0187,5.107,5.2391,5.3994,5.5765,5.6786,5.7378,5.7498,5.7524,5.7524,5.7572,5.7479,5.7672,5.8726,5.8788,5.8441,5.7777,5.8402,5.873,5.789,5.8672,5.9646,6.0401,6.0577,6.0896,6.1716,6.2573,6.3029,6.2903,6.2982,6.2618,6.1518,6.1379,6.0989,6.0183,6.0105,5.9677,5.887,5.8831,5.9259,6.0077,6.0077,6.0505,6.1312,6.0483,6.0055,5.9938,5.911,5.8763,5.8733,5.7952,5.8183,5.8945,5.7302,5.7106,5.7653,5.6005,5.5338,5.5062,5.3225,5.2539,5.2746,0.0,0.0,0.0,0.0,0.0,0.0,0.0,0.0,0.0,0.0,0.0,0.0,0.0,0.0,0.0,0.0,0.0,0.0,3.6549,3.6264,3.5448,3.3925,3.4169,3.4032,3.3472,3.3117,3.3102,3.3452,3.4532,3.4958,3.4872,3.6148,3.6504,3.6257,3.7133,3.7648,3.7935,3.9296,4.0209,4.085,4.2593,4.3648,4.438,4.6392,4.7687,4.8434,4.8856,4.8745,4.8314,4.7592,4.803,4.91,4.999,5.1445,5.2902,5.3188,5.3982,5.4865,5.5366,5.6028,5.6563,5.6569,5.6575,5.6756,5.7132,5.7232,5.7468,5.8176,5.7943,5.7525,5.737,5.8226,5.9113,5.9553,6.0973,6.2304,6.3162,6.328,6.3398,6.3593,6.3827,6.3944,6.3901,6.3943,6.3865,6.3539,6.2239,6.1642,6.2079,6.1456,6.1049,6.0939,6.0939,6.1056,6.1252,6.126,6.1381,6.1616,6.1388,6.061,5.9397,5.9168,5.8393,5.7226,5.7656,5.7616,5.7259,5.7391,5.7177,5.6743,5.6176,5.5559,5.4869,5.3721,5.2923,5.2513,0.0,0.0,0.0,0.0,0.0,0.0,0.0,0.0,0.0,0.0,0.0,0.0,0.0,0.0,0.0,0.0,0.0,0.0,0.0,3.6525,3.571,3.3955,3.394,3.3746,3.3126,3.255,3.2426,3.2768,3.3446,3.3741,3.363,3.4671,3.5057,3.4931,3.6344,3.7065,3.7439,3.9311,4.0583,0.0,0.0,4.4325,4.5627,4.7271,4.8428,4.9264,4.9797,4.9998,4.9998,4.9705,4.9992,5.0727,5.1986,5.3571,5.4987,5.5065,5.5911,5.6743,5.6401,5.6861,5.7434,5.7382,5.6822,5.6484,5.7135,5.6924,5.666,5.7017,5.6776,5.6394,5.6048,5.7564,5.8928,5.9053,6.0952,6.2732,6.3591,6.3747,6.3865,6.4255,6.4646,6.488,6.488,6.4795,6.4948,6.5427,6.3742,6.2943,6.3412,6.2631,6.2169,6.2262,6.191,6.1716,6.1717,6.1719,6.1718,6.1718,6.1327,6.0623,5.9724,5.9332,5.8628,5.769,5.7793,5.7547,5.7074,5.7042,5.6766,5.629,5.6181,5.5641,5.4789,5.3845,5.2964,5.2225,0.0,0.0,0.0,0.0,0.0,0.0,0.0,0.0,0.0,0.0,0.0,0.0,0.0,0.0,0.0,0.0,0.0,0.0,0.0,0.0,3.5776,3.446,3.3928,3.3395,3.2804,3.1709,3.1564,3.2382,3.1966,3.1992,3.2578,3.2866,3.3091,3.3316,3.537,3.6446,3.6783,3.9395,4.1035,4.194,4.3174,4.5012,4.7058,0.0,4.9045,5.0275,5.0709,5.142,5.2181,5.2581,5.2382,5.2234,5.3811,5.5386,5.6673,5.6809,5.7812,5.8744,5.7913,5.8144,5.8658,5.8637,5.7419,5.6397,5.7157,5.6459,5.5652,5.5642,5.5555,5.5224,5.4534,5.6668,5.8414,5.7986,6.0106,6.2201,6.3302,6.3497,6.3774,6.4558,6.5297,6.5726,6.5726,6.5562,6.5815,6.677,6.542,6.4568,6.4492,6.3633,6.3125,6.3008,6.2148,6.1718,6.1716,6.1711,6.1709,6.1709,6.0928,6.0496,6.0337,5.9592,5.9159,5.8996,5.8208,5.779,5.7588,5.6686,5.6265,5.6149,5.6096,5.5617,5.4865,5.3901,5.3,5.2078,0.0,0.0,0.0,0.0,0.0,0.0,0.0,0.0,0.0,0.0,3.9142,4.0288,0.0,0.0,0.0,0.0,0.0,0.0,0.0,0.0,0.0,3.3517,3.312,3.2611,3.184,3.1574,3.1709,3.2247,3.2247,3.2327,3.2468,3.3222,3.3612,3.381,3.4886,3.6111,3.7416,3.8977,4.0646,4.2405,4.4662,4.627,4.7485,4.8829,0.0,0.0,5.0657,5.0571,5.0705,5.3455,5.49,5.5655,5.6562,5.7612,5.8538,5.855,5.8775,5.8769,5.7814,5.7517,5.7441,5.7295,5.6384,5.573,5.6429,5.5733,5.4876,5.481,5.476,5.4663,5.4533,5.5938,5.7773,5.9725,6.1394,6.3253,6.562,6.5978,6.6082,6.6393,6.6444,6.6414,6.6414,6.6293,6.6268,6.6446,6.6223,6.5831,6.5381,6.4563,6.3742,6.3,6.2141,6.1711,6.1711,6.1709,6.1709,6.1709,6.1553,6.103,6.0243,6.0074,5.956,5.876,5.8608,5.8117,5.7417,5.7149,5.6604,5.593,5.5808,5.5633,5.536,5.4549,5.3622,5.2811,0.0,0.0,0.0,0.0,0.0,0.0,0.0,0.0,3.8844,3.8745,3.9762,4.0451,4.0394,4.0689,0.0,0.0,0.0,0.0,0.0,0.0,0.0,0.0,3.3427,3.2856,3.2168,3.1871,3.2047,3.271,0.0,3.2901,3.2936,3.3759,3.4027,3.383,3.5404,3.6908,3.8372,3.9785,4.1716,4.3968,4.5436,4.6779,4.8009,0.0,0.0,0.0,5.0862,5.1607,5.2625,5.3353,5.5176,5.7332,5.8403,5.9313,5.9918,5.9455,5.9932,6.0316,5.8668,5.86,5.8895,5.8558,5.7136,5.6002,5.6702,5.5708,5.4554,5.4528,5.4458,5.4458,5.4458,5.5946,5.7735,5.9388,6.1041,6.2904,6.5231,6.5556,6.5803,6.6498,6.6496,6.6423,6.6423,6.6305,6.6283,6.632,6.6299,6.6178,6.6026,6.5176,6.4318,6.3452,6.2586,6.2352,6.2773,6.1876,6.1673,6.2093,6.1673,6.1179,6.07,6.0728,6.0448,5.9957,5.9002,5.8351,5.7909,5.683,5.6155,5.573,5.5665,5.5346,5.4879,5.4495,5.3782,5.2992,0.0,0.0,0.0,0.0,0.0,0.0,0.0,3.8904,3.907,3.9386,4.0256,4.0546,3.9787,3.9976,4.0038,0.0,0.0,0.0,0.0,0.0,0.0,0.0,0.0,0.0,3.2856,0.0,0.0,3.3356,3.3517,0.0,0.0,0.0,0.0,0.0,3.6622,3.8302,3.949,4.1166,4.3168,0.0,0.0,4.7438,4.8825,0.0,0.0,0.0,0.0,5.2767,5.423,5.3479,5.4981,5.7396,5.887,5.9862,6.0351,5.9658,6.0648,6.1563,5.9624,5.9843,6.0457,5.9908,5.8015,5.6436,5.7074,5.5756,5.4392,5.4359,5.433,5.4296,5.4296,5.5686,5.7281,5.8435,5.9932,6.1766,6.4191,6.4479,6.487,6.6167,6.6212,6.6179,6.6251,6.6129,6.6108,6.6221,6.6128,6.6148,6.6347,6.5583,6.4792,6.4092,6.321,6.3002,6.3507,6.2366,6.1924,6.2221,6.173,6.1366,6.1182,6.1182,6.1151,6.1042,5.9609,5.8877,5.8568,5.69,5.606,5.5823,5.5631,5.5125,5.4541,5.4541,5.4005,5.3215,0.0,0.0,0.0,0.0,0.0,0.0,0.0,3.9191,3.936,3.8715,3.9827,4.0393,3.9485,4.0707,4.0986,0.0,0.0,0.0,0.0,0.0,0.0,0.0,0.0,0.0,0.0,0.0,0.0,3.3938,3.4059,0.0,0.0,0.0,0.0,0.0,0.0,3.9955,4.0869,4.2848,0.0,0.0,0.0,0.0,0.0,0.0,0.0,0.0,0.0,5.2756,5.271,5.495,5.5397,5.5379,5.7016,5.8297,5.9143,5.8927,6.0046,6.1134,6.0015,6.0189,6.0478,5.9583,5.7938,5.6629,5.688,5.543,5.4091,5.4262,5.4054,5.387,5.387,5.4273,5.5409,5.7777,5.85,6.0103,6.382,6.4051,6.4487,6.6096,6.5894,6.5697,6.6069,6.6013,6.5909,6.5933,6.5909,6.6041,6.6299,6.5537,6.5071,6.4993,6.4124,6.3347,6.2609,6.3269,6.2803,6.1342,6.2027,6.1911,6.102,6.102,6.0963,6.0811,6.0627,6.0042,5.9235,5.8294,5.7402,5.6597,5.583,5.5423,5.5312,5.5312,5.4752,5.4014,0.0,0.0,0.0,0.0,0.0,0.0,0.0,3.8771,3.8591,3.904,3.9253,3.9325,3.9379,3.992,4.0078,0.0,0.0,0.0,0.0,0.0,0.0,0.0,0.0,0.0,0.0,0.0,3.3787,3.4577,3.5156,0.0,0.0,0.0,0.0,0.0,0.0,4.1211,4.2589,4.3951,0.0,0.0,0.0,0.0,0.0,0.0,0.0,0.0,0.0,0.0,5.2987,5.4068,5.4219,5.4075,5.4226,5.4947,5.6031,5.751,5.9122,6.0335,5.9661,6.0752,6.1769,6.0706,5.9126,5.7782,5.7377,5.5844,5.4465,5.4093,5.3907,5.3794,5.3794,5.3907,5.4725,5.6962,5.7438,5.8613,6.1857,6.2178,6.2824,6.4754,6.4795,6.4999,6.5866,6.5933,6.5897,6.5897,6.5897,6.5958,6.6063,6.5775,6.5561,6.5561,6.4749,6.4363,6.4556,6.3359,6.2663,6.247,6.1754,6.119,6.0834,6.0789,6.0719,6.066,6.0098,5.9651,5.9268,5.8437,5.7569,5.6702,5.6357,5.5886,5.539,5.539,5.5199,5.4868,0.0,0.0,0.0,0.0,0.0,3.8795,3.9157,3.8434,3.8265,3.9314,3.9043,3.8871,3.9379,3.9409,3.9409,3.9409,0.0,0.0,0.0,0.0,0.0,0.0,0.0,0.0,0.0,0.0,3.5024,3.5516,3.631,3.6807,0.0,0.0,3.9091,3.9154,0.0,0.0,0.0,0.0,0.0,0.0,0.0,0.0,0.0,0.0,0.0,0.0,0.0,0.0,0.0,0.0,0.0,5.3688,5.3146,5.3182,5.3784,5.5969,5.7925,5.9398,5.9355,6.0941,6.2339,6.1274,5.978,5.8378,5.753,5.6092,5.4732,5.4041,5.3933,5.3899,5.3793,5.3794,5.4316,5.5958,5.6407,5.7453,6.0028,6.0486,6.1309,6.322,6.3473,6.3909,6.4958,6.5388,6.5663,6.5781,6.5808,6.5808,6.5808,6.5808,6.5846,6.5872,6.5231,6.5077,6.5462,6.3924,6.3194,6.3207,6.1991,6.1275,6.1006,6.0725,6.0585,6.0546,5.9946,5.9587,5.9431,5.8563,5.7848,5.7221,5.6844,5.6234,5.5576,5.5465,5.5341,5.5233,0.0,0.0,0.0,0.0,0.0,0.0,0.0,3.8381,3.8605,3.9301,3.9409,3.9409,3.9409,3.9409,3.9409,3.9409,0.0,0.0,0.0,0.0,0.0,0.0,0.0,0.0,0.0,0.0,3.7143,3.6712,3.7576,3.8044,3.8213,3.9781,4.0482,4.061,0.0,0.0,0.0,0.0,0.0,0.0,0.0,0.0,0.0,0.0,0.0,0.0,0.0,0.0,0.0,0.0,0.0,0.0,0.0,5.3828,5.3024,5.4327,5.6441,5.8507,5.9305,6.0665,6.1679,6.0846,5.947,5.8094,5.7174,5.5799,5.4604,5.4269,5.4209,5.4081,5.3866,5.3794,5.4053,5.4788,5.5603,5.6763,5.8648,5.9329,6.0189,6.173,6.1991,6.2331,6.3048,6.4275,6.5168,6.558,6.5608,6.5608,6.5608,6.5608,6.5674,6.5793,6.5635,6.5224,6.4419,6.5186,6.4726,6.3115,6.3077,6.2617,6.1773,6.0968,6.0585,6.0623,6.0506,6.0275,5.9823,5.8856,5.8483,5.8375,5.7178,5.6455,5.6027,5.5634,5.5211,5.4806,0.0,0.0,0.0,0.0,0.0,0.0,0.0,3.704,3.7345,3.7943,3.8422,3.8901,3.9379,3.9409,3.9409,3.9409,0.0,0.0,0.0,0.0,0.0,0.0,0.0,0.0,0.0,0.0,3.7383,3.7406,3.8273,3.9266,4.0368,4.0887,4.1981,4.3379,4.3997,4.4572,0.0,0.0,0.0,0.0,0.0,0.0,5.1123,0.0,0.0,0.0,0.0,0.0,0.0,0.0,0.0,0.0,0.0,0.0,0.0,5.3612,5.4564,5.5679,5.6993,5.8473,5.9526,5.9274,5.87,5.8094,5.7297,5.6269,5.539,5.5012,5.4738,5.4437,5.4069,5.3756,5.4019,5.5377,5.5791,5.6655,5.8609,5.9499,6.036,6.1426,6.3045,6.4017,6.3992,6.4818,6.5329,6.5207,6.5456,6.5608,6.5608,6.5552,6.5552,6.5674,6.5608,6.5493,6.5224,6.4918,6.4496,6.3997,6.3329,6.2574,6.1732,6.1409,6.081,6.0099,6.0608,6.0302,5.947,6.0264,5.9926,5.8947,5.914,5.8764,5.8084,5.7413,5.7037,5.6877,0.0,0.0,0.0,0.0,0.0,0.0,0.0,3.6803,3.7075,3.7704,3.8362,3.8931,3.9379,3.9409,3.9529,3.9768,0.0,0.0,0.0,0.0,0.0,0.0,0.0,0.0,0.0,3.8033,3.8252,3.8322,3.9264,4.0532,4.2077,4.2516,4.3589,4.5114,4.5409,4.5823,0.0,0.0,0.0,0.0,0.0,0.0,5.0418,0.0,0.0,0.0,0.0,0.0,0.0,0.0,0.0,0.0,0.0,0.0,0.0,0.0,5.3425,5.361,5.5258,5.6729,5.7811,5.7811,5.7747,5.7531,5.703,5.626,5.5578,5.5474,5.5196,5.4894,5.4483,5.4419,5.4655,5.5367,5.595,5.6821,5.8359,5.925,6.011,6.1139,6.2741,6.3804,6.4065,6.4651,6.5041,6.5144,6.5367,6.5465,6.5307,6.5276,6.5144,6.5041,6.5367,6.5523,6.5523,6.5025,6.47,6.4543,6.3642,6.2673,6.1673,6.1305,6.0568,5.9609,6.01,6.0001,0.0,6.0519,6.0481,5.9846,5.9905,5.9536,5.8798,5.7856,5.7374,5.7192,0.0,0.0,0.0,0.0,0.0,0.0,0.0,0.0,0.0,3.8242,3.896,3.9409,3.9409,3.9409,3.9679,4.0337,0.0,0.0,0.0,0.0,0.0,0.0,0.0,0.0,0.0,3.9212,3.9571,3.9631,4.0698,4.1884,4.3255,4.4292,4.5178,4.6001,4.7124,4.7575,0.0,0.0,0.0,0.0,0.0,0.0,0.0,0.0,0.0,0.0,0.0,0.0,0.0,0.0,0.0,0.0,0.0,0.0,0.0,0.0,0.0,0.0,0.0,5.5382,5.6464,5.6529,5.6523,5.6465,5.6465,5.5844,0.0,5.5613,5.5574,5.5374,5.5039,5.544,5.5611,5.5025,5.609,5.7206,5.796,5.8877,5.9863,6.0981,6.1597,6.2353,6.3426,6.3954,6.4521,6.5296,6.5321,6.5117,6.4775,6.4739,6.452,6.4096,6.4879,6.5314,6.5314,6.5314,6.5117,6.4739,6.3944,6.2935,6.1768,6.0905,6.0041,5.9253,5.9253,5.9395,5.9653,5.9764,6.0246,6.0759,5.9725,5.9079,5.8614,5.7442,5.6682,5.6314,0.0,0.0,0.0,0.0,0.0,0.0,0.0,0.0,0.0,0.0,3.8691,3.9409,3.9409,3.9409,3.9679,0.0,0.0,0.0,0.0,0.0,0.0,0.0,0.0,0.0,0.0,4.0873,4.1281,4.2119,4.2416,4.3427,4.4962,4.531,4.6234,4.7417,4.7569,4.7575,0.0,0.0,0.0,0.0,0.0,0.0,0.0,0.0,0.0,0.0,5.2839,5.3253,0.0,0.0,0.0,0.0,0.0,0.0,0.0,0.0,5.3447,5.2841,5.3142,0.0,5.4025,5.4424,5.4966,5.5392,0.0,5.5218,5.5164,5.5525,5.5354,5.5027,5.4666,5.4813,5.5023,5.5179,5.5861,5.6985,5.8684,6.0676,6.2083,6.2328,6.387,6.4641,6.4002,6.4582,6.4953,6.4865,6.4592,6.4332,6.4292,6.4254,6.4215,6.4096,6.4293,6.4407,6.4407,6.4407,6.4369,6.4254,6.4066,6.3499,6.2595,6.1768,6.0748,5.964,5.964,5.9165,5.8547,5.9762,5.9973,5.9642,5.9989,6.0026,5.9863,5.8998,5.8557,5.8399,0.0,0.0,0.0,0.0,0.0,0.0,0.0,0.0,0.0,0.0,0.0,0.0,0.0,0.0,0.0,0.0,0.0,0.0,0.0,0.0,0.0,0.0,0.0,0.0,4.2022,4.1744,4.231,4.3843,4.3733,4.4643,4.645,4.6682,4.7354,4.8409,4.8328,4.8411,0.0,0.0,0.0,0.0,5.1259,0.0,0.0,0.0,0.0,0.0,5.3253,5.3632,0.0,5.4391,5.4592,5.4655,0.0,0.0,0.0,0.0,5.3617,5.3349,5.3281,5.3585,5.4126,5.4393,5.4977,5.5514,5.5514,5.5174,5.5053,5.5484,5.5402,5.5238,5.5299,5.5615,5.59,5.6109,5.6939,5.8202,6.0041,6.1741,6.2952,6.3356,6.4377,6.4893,6.4402,6.4807,6.4887,6.4433,6.4196,6.4016,6.3846,6.3846,6.3718,6.3498,6.3498,6.3718,6.4096,6.4096,6.3975,6.3846,6.3846,6.327,6.2271,6.1825,6.11,6.0055,5.9686,5.9366,5.9134,5.9648,6.0052,6.0309,6.0382,6.0639,6.086,6.0052,5.9979,6.0283,0.0,0.0,0.0,0.0,0.0,0.0,0.0,0.0,0.0,0.0,0.0,0.0,0.0,0.0,0.0,0.0,0.0,0.0,0.0,0.0,0.0,0.0,0.0,4.2022,4.2897,4.2359,4.3157,4.5277,4.4865,4.5805,4.7836,4.8099,4.8553,4.9187,4.9289,4.9627,0.0,0.0,0.0,0.0,5.1809,0.0,0.0,0.0,0.0,0.0,0.0,0.0,0.0,5.4367,5.4303,5.4303,5.4303,0.0,0.0,0.0,0.0,0.0,5.3919,5.473,5.5441,5.5201,5.5686,5.6133,5.6028,5.5444,5.5053,5.5484,5.5484,5.5578,5.6308,5.6937,5.7333,5.7478,5.8653,6.0089,6.1557,6.2585,6.3466,6.42,6.4494,6.4696,6.4753,6.48,6.4613,6.4112,6.3967,6.3761,6.34,6.34,6.3205,6.2805,6.2805,6.3121,6.3892,6.3892,6.3761,6.34,6.34,6.2835,6.1777,6.1667,6.1227,6.0529,5.9612,5.9612,6.0162,5.9612,6.0199,6.1374,6.0786,6.108,6.1704,6.0896,6.108,6.1777,0.0,0.0,0.0,0.0,0.0,0.0,0.0,0.0,0.0,0.0,0.0,0.0,0.0,0.0,0.0,0.0,0.0,0.0,0.0,0.0,0.0,0.0,4.2648,4.2988,4.4429,4.3816,4.4625,4.7006,4.6453,4.7078,4.8829,4.9452,4.9835,4.9965,5.0574,5.0574,5.0168,0.0,0.0,0.0,5.3039,0.0,0.0,0.0,0.0,0.0,0.0,0.0,0.0,5.3815,5.3583,5.3583,5.3583,0.0,0.0,0.0,0.0,0.0,5.4995,5.6264,5.7009,5.5654,5.5889,5.629,5.5659,5.5413,5.5343,5.5402,5.5367,5.5812,5.7112,5.7729,5.8347,5.9072,6.0332,6.1557,6.2511,6.3943,6.4971,6.5118,6.6329,6.6639,6.5331,6.522,6.4903,6.4156,6.3419,6.2965,6.2904,6.2904,6.2855,6.2805,6.2805,6.2855,6.3014,6.3014,6.2965,6.2904,6.2904,6.2781,6.2585,6.1924,6.152,6.1337,5.9869,5.9281,5.9428,6.0015,6.0382,6.0639,6.119,6.1924,6.2511,6.1704,6.1924,6.2732,0.0,0.0,0.0,0.0,0.0,0.0,0.0,0.0,0.0,0.0,0.0,0.0,0.0,0.0,0.0,0.0,0.0,0.0,0.0,0.0,0.0,4.4665,4.4752,4.4789,4.4874,4.4655,4.5731,4.8163,4.7968,4.8663,5.0223,5.0548,5.071,5.071,5.1048,5.1251,5.1319,5.1995,0.0,0.0,0.0,0.0,0.0,0.0,0.0,0.0,0.0,0.0,0.0,0.0,5.3009,5.3382,5.3382,0.0,0.0,0.0,0.0,0.0,5.5251,5.6248,5.7057,5.7005,5.7605,5.7977,5.675,5.6524,5.6524,5.6524,5.6205,5.6446,5.8268,5.8842,5.9647,6.1667,6.2544,6.3209,6.4053,6.4824,6.5485,6.5888,6.6586,6.668,6.5893,6.5453,6.4778,6.392,6.3079,6.2552,6.2552,6.2552,6.2552,6.2552,6.2552,6.2552,6.2552,6.2552,6.2654,6.2805,6.2705,6.2705,6.2705,6.2237,6.2054,6.1981,6.0761,6.0505,6.087,6.0358,6.0688,6.1455,6.1432,6.2164,6.3262,6.3387,6.3951,6.472,0.0,0.0,0.0,0.0,0.0,0.0,0.0,0.0,0.0,0.0,0.0,0.0,0.0,0.0,0.0,0.0,0.0,0.0,0.0,0.0,4.5088,4.5861,4.6614,4.6495,4.5584,4.5806,4.7024,4.9193,4.9254,4.999,5.1488,5.1657,5.1657,5.1488,5.1657,5.1961,5.23,5.2503,5.3044,0.0,0.0,0.0,0.0,0.0,0.0,0.0,0.0,0.0,0.0,0.0,0.0,0.0,0.0,0.0,0.0,5.4431,5.462,5.4807,5.5494,5.6306,5.7135,5.8067,5.8898,5.9251,5.8427,5.8104,5.8033,5.8267,5.7801,5.7927,5.9719,6.0368,6.1397,6.3658,6.4185,6.4589,6.5343,6.5453,6.5747,6.6553,6.6663,6.6499,6.6208,6.5477,6.4619,6.3673,6.2871,6.2433,6.2433,6.2433,6.2433,6.2433,6.2433,6.2433,6.2433,6.2433,6.25,6.2705,6.2603,6.2552,6.2552,6.2449,6.2433,6.236,6.1558,6.1558,6.2068,6.1011,6.1303,6.236,6.1922,6.2506,6.3673,6.4583,6.533,6.5879,0.0,0.0,0.0,0.0,0.0,0.0,0.0,0.0,0.0,0.0,0.0,0.0,0.0,0.0,0.0,0.0,0.0,0.0,0.0,0.0,4.5893,4.6581,4.734,4.7673,4.7571,4.7937,4.8865,5.0366,5.0159,5.0747,5.2232,5.2976,5.2942,5.2266,5.301,5.2942,5.2367,5.3112,5.3822,5.4465,0.0,0.0,0.0,0.0,0.0,0.0,0.0,0.0,0.0,0.0,0.0,0.0,0.0,0.0,5.3583,5.4303,5.4896,5.5483,5.6245,5.729,5.8172,5.8296,5.8368,5.8786,6.0267,6.0013,5.9635,6.0412,6.052,6.0679,6.1336,6.2718,6.3768,6.3811,6.4433,6.5148,6.588,6.5934,6.6226,6.7084,6.7157,6.6846,6.608,6.5278,6.4475,6.3636,6.2871,6.2433,6.2433,6.2433,6.2433,6.2433,6.2433,6.2433,6.2433,6.2433,6.2397,6.2433,6.2433,6.2397,6.2397,6.2397,6.2433,6.236,6.1558,6.123,6.1339,6.1995,6.2324,6.247,6.3162,6.3491,6.3709,6.4529,6.4858,6.4931,0.0,0.0,0.0,0.0,0.0,0.0,0.0,0.0,0.0,0.0,0.0,0.0,0.0,0.0,0.0,0.0,0.0,0.0,0.0,4.4744,4.6026,4.6744,4.7995,4.8693,4.8693,4.8873,4.9406,5.0158,5.0551,5.1243,5.233,5.263,5.2907,5.3078,5.3382,5.3348,5.3112,5.3856,5.4329,5.4566,5.4296,0.0,0.0,0.0,0.0,0.0,0.0,0.0,0.0,0.0,5.27,5.3382,5.3382,5.3715,5.4205,5.4896,5.5224,5.5719,5.7204,5.7962,5.8631,5.999,5.998,5.9797,6.0418,6.1478,6.2318,6.2062,6.2464,6.2881,6.2947,6.3408,6.4087,6.5021,6.5459,6.588,6.6627,6.6773,6.6882,6.7174,6.721,6.7045,6.664,6.5876,6.5076,6.4165,6.3366,6.2676,6.2204,6.2168,6.2168,6.2168,6.2168,6.2168,6.2168,6.2168,6.2168,6.2168,6.2275,6.2275,6.2238,6.2222,6.2168,6.2132,6.1841,6.1986,6.2422,6.2241,6.2458,6.293,6.3221,6.333,6.3366,6.3803,6.4257,6.4621,0.0,0.0,0.0,0.0,0.0,0.0,0.0,0.0,0.0,0.0,0.0,0.0,0.0,0.0,0.0,0.0,0.0,0.0,4.3654,4.4984,4.6191,4.722,4.8483,4.9236,4.9379,4.9644,4.994,5.0225,5.1086,5.1769,5.2307,5.252,5.2972,5.3518,5.3518,5.3518,5.3551,5.4025,5.4397,5.4566,5.4329,5.4432,0.0,0.0,0.0,0.0,0.0,0.0,0.0,0.0,5.3078,5.3783,5.4022,5.4613,5.5313,5.5949,5.6399,5.7021,5.8372,5.8776,5.927,6.0787,6.0909,6.0787,6.1263,6.2741,6.3877,6.3496,6.3679,6.3899,6.3758,6.3872,6.4329,6.5405,6.5988,6.6534,6.7024,6.704,6.704,6.704,6.704,6.704,6.6961,6.5981,6.5089,6.4432,6.3418,6.2585,6.2041,6.2005,6.2005,6.2005,6.2005,6.2005,6.2005,6.2005,6.2005,6.2005,6.2114,6.2168,6.2168,6.206,6.2005,6.2005,6.2005,6.2331,6.2766,6.2259,6.2331,6.2802,6.2802,6.2802,6.2802,6.2912,6.3475,6.4093,0.0,0.0,0.0,0.0,0.0,0.0,0.0,0.0,0.0,0.0,0.0,0.0,0.0,0.0,0.0,0.0,0.0,0.0,4.3686,4.5039,4.6452,4.8005,4.8753,4.9317,4.9678,5.032,5.069,5.0723,5.1755,5.2307,5.2307,5.311,5.3518,5.3518,5.3518,5.3518,5.3518,5.3518,5.3923,5.4532,5.3822,5.3957,0.0,0.0,0.0,0.0,0.0,0.0,0.0,0.0,5.3749,5.4667,5.5391,5.6105,5.6796,5.7535,5.8631,5.9631,5.9631,5.9889,6.0225,6.0225,6.0747,6.1631,6.3235,6.3706,6.4014,6.4658,6.4184,6.36,6.36,6.4256,6.4749,6.462,6.5965,6.6925,6.6786,6.6786,6.6786,6.6786,6.6786,6.6786,6.6786,6.5374,6.4432,6.4396,6.2947,6.2041,6.2041,6.2005,6.2005,6.2005,6.2005,6.2005,6.2005,6.2005,6.2005,6.2005,6.2005,6.2005,6.2005,6.2005,6.2005,6.2005,6.2005,6.2005,6.2005,6.2005,6.2005,6.2005,6.2041,6.2041,6.2041,6.2041,6.2549,6.3256,0.0,0.0,0.0,0.0,0.0,0.0,0.0,0.0,0.0,0.0,0.0,0.0,0.0,0.0,0.0,0.0,0.0,0.0,4.3624,4.4622,4.5379,4.592,4.6806,4.7572,4.8181,4.844,4.9093,5.0166,4.9909,5.036,5.1443,5.1744,5.2436,5.3518,5.3518,5.3518,5.3551,5.4059,5.4397,5.4566,5.3914,5.4018,0.0,0.0,0.0,0.0,0.0,0.0,0.0,0.0,0.0,0.0,5.6865,5.7246,5.7585,5.8729,5.9276,5.9792,6.0632,6.093,6.1126,6.1609,6.2287,6.282,6.2723,6.3638,6.4858,6.6189,6.4903,6.3697,6.422,6.3971,6.3919,6.4396,6.5322,6.6192,6.6714,6.6786,6.6786,6.6786,6.6786,6.6786,6.6786,6.6388,6.5844,6.5301,6.4287,6.3454,6.2875,6.2331,6.2005,6.2005,6.2005,6.2005,6.2005,6.2005,6.2005,6.2005,6.2005,6.2005,6.2005,6.2005,6.2005,6.2005,6.2005,6.2005,6.2005,6.2005,6.2005,6.2078,6.2621,6.2838,6.2911,6.349,6.3852,6.4033,0.0,0.0,0.0,0.0,0.0,0.0,0.0,0.0,0.0,0.0,0.0,0.0,0.0,0.0,0.0,0.0,0.0,0.0,0.0,4.5028,4.5565,4.5864,4.6582,4.7281,4.7978,4.8124,4.8731,4.9868,4.9165,4.9566,5.1132,5.1416,5.2101,5.3044,5.3382,5.3518,5.3551,5.3957,5.416,5.416,5.3782,5.402,5.4532,0.0,0.0,0.0,0.0,0.0,0.0,0.0,0.0,0.0,5.7946,5.8507,5.9131,6.0215,6.0679,6.0944,6.1711,6.177,6.1886,6.2636,6.3129,6.3403,6.3149,6.395,6.5005,6.6365,6.537,6.4505,6.4887,6.4599,6.4363,6.4809,6.5555,6.6243,6.675,6.6786,6.6786,6.6786,6.6786,6.6786,6.6786,6.6496,6.6134,6.5627,6.483,6.4178,6.3708,6.3237,6.2947,6.2947,6.2947,6.2947,6.2947,6.2947,6.2947,6.2947,6.2947,6.2947,6.2947,6.2295,6.2005,6.2041,6.2331,6.2657,6.2947,6.2947,6.2947,6.3019,6.349,6.3671,6.3744,6.4215,6.4577,6.4867,0.0,0.0,0.0,0.0,0.0,0.0,0.0,0.0,0.0,0.0,4.0021,0.0,0.0,0.0,0.0,0.0,0.0,0.0,0.0,0.0,4.6253,4.7069,4.7426,4.7903,4.8561,4.8716,4.9219,5.0026,4.9319,4.9687,5.1148,5.1866,5.2232,5.2334,5.3145,5.3518,5.3518,5.3518,5.345,5.3416,5.3484,5.3923,5.4531,5.4599,0.0,0.0,0.0,0.0,0.0,0.0,0.0,0.0,5.88,5.9916,6.1045,6.1734,6.2255,6.2603,6.2552,6.247,6.2476,6.3239,6.3365,6.3486,6.4224,6.4531,6.4804,6.551,6.5622,6.5547,6.5627,6.5511,6.5547,6.5591,6.6279,6.6786,6.6786,6.6786,6.6786,6.6786,6.6786,6.6786,6.6786,6.6134,6.57,6.57,6.4939,6.4504,6.4504,6.4432,6.4396,6.4396,6.4396,6.4396,6.4339,6.4396,6.4396,6.4339,6.4396,6.4396,6.4359,6.2911,6.2223,6.2259,6.2983,6.3708,6.4396,6.4396,6.4396,6.4396,6.4468,6.4504,6.4504,6.4577,6.5084,6.57,0.0,0.0,0.0,0.0,0.0,0.0,0.0,0.0,0.0,0.0,0.0,0.0,0.0,0.0,0.0,0.0,0.0,0.0,0.0,0.0,4.4888,4.5737,4.698,4.7681,4.7831,4.8483,4.9496,5.0843,5.0151,5.0212,5.1115,5.1362,5.1758,5.2334,5.3145,5.3518,5.3518,5.3518,5.3212,5.2867,5.3436,5.3841,5.4183,5.4753,5.5815,0.0,0.0,0.0,0.0,0.0,0.0,0.0,6.0271,6.1049,6.1787,6.2324,6.2552,6.2552,6.2344,6.2711,6.3148,6.322,6.3761,6.4296,6.4534,6.5048,6.5466,6.5622,6.5189,6.4977,6.5524,6.5144,6.4977,6.5488,6.6279,6.6786,6.6786,6.6786,6.6786,6.6786,6.6786,6.6786,6.6786,6.6641,6.6533,6.6533,6.5808,6.5337,6.5337,6.4722,6.4396,6.4396,6.4396,6.413,6.3525,6.413,6.413,6.3525,6.413,6.4396,6.4396,6.4033,6.3889,6.3889,6.407,6.4215,6.4396,6.4396,6.4396,6.4468,6.5084,6.5337,6.541,6.6062,6.6388,6.6533,0.0,0.0,0.0,0.0,0.0,0.0,0.0,0.0,0.0,0.0,0.0,0.0,0.0,0.0,0.0,0.0,0.0,0.0,0.0,0.0,4.5079,4.5925,4.7009,4.7905,4.8698,4.9106,5.0102,5.1696,5.0575,5.039,5.1128,5.1528,5.1758,5.1826,5.2976,5.3518,5.3518,5.3518,5.3551,5.3578,5.4051,5.4763,5.5542,5.6055,5.6947,5.7909,5.8083,0.0,0.0,0.0,0.0,0.0,0.0,0.0,6.1842,6.2059,6.2259,6.2329,6.1933,6.2543,6.3531,6.4158,6.4723,6.5034,6.5101,6.5141,6.5166,6.5098,6.5119,6.5166,6.5098,6.4858,6.4732,6.5062,6.551,6.5824,6.6233,6.6233,6.6391,6.6727,6.6786,6.6786,6.6786,6.6786,6.6786,6.6786,6.6424,6.617,6.617,6.5772,6.5555,6.5555,6.5555,6.5344,6.495,6.5344,6.5344,6.495,6.5344,6.5555,6.5518,6.4758,6.4613,6.4975,6.4975,6.5192,6.5555,6.5555,6.5555,6.5591,6.6025,6.617,6.6243,6.6641,6.704,6.7366,0.0,0.0,0.0,0.0,0.0,0.0,0.0,0.0,0.0,0.0,0.0,0.0,0.0,0.0,0.0,0.0,0.0,0.0,0.0,0.0,0.0,4.6357,4.7225,4.8275,4.9679,4.9995,5.0798,5.2059,5.0979,5.0759,5.1393,5.173,5.1663,5.1324,5.2538,5.318,5.3348,5.3079,5.345,5.4157,5.4465,5.5315,5.6539,5.7157,5.774,5.8288,5.8668,5.884,5.884,5.8944,0.0,0.0,0.0,0.0,6.1472,6.1436,6.1673,6.1818,6.1263,6.2096,6.3494,6.5046,6.5484,6.5468,6.5338,6.4941,6.4532,6.4463,6.4873,6.5207,6.4669,6.4532,6.4463,6.4601,6.4738,6.5008,6.5597,6.5824,6.611,6.6727,6.6786,6.6786,6.6786,6.6786,6.6786,6.6786,6.6786,6.6786,6.6786,6.6786,6.6786,6.6786,6.6786,6.6727,6.6608,6.6608,6.6608,6.6608,6.6727,6.6786,6.675,6.541,6.5192,6.5808,6.5808,6.617,6.6786,6.6786,6.6786,6.6822,6.6967,6.7003,6.704,6.7148,6.7655,6.8199,0.0,0.0,0.0,0.0,0.0,0.0,0.0,0.0,0.0,0.0,4.1656,4.2522,0.0,0.0,0.0,0.0,0.0,0.0,4.4319,0.0,0.0,4.5711,4.6951,4.8072,4.892,5.0221,5.1054,5.1294,5.1933,5.2221,5.215,5.0852,5.0724,5.1495,5.1528,5.1967,5.2664,5.1361,5.1389,5.244,5.297,5.3449,5.4194,5.6645,5.7362,5.7187,5.8496,5.8944,5.8944,5.9012,5.945,0.0,0.0,0.0,6.0796,6.0651,6.06,6.0423,6.0234,6.126,6.2767,6.4344,6.4735,6.4601,6.3933,6.4183,6.4393,6.3788,6.3716,6.4004,6.4532,6.4041,6.3861,6.4532,6.5141,6.5597,6.5697,6.6233,6.6668,6.6786,6.6786,6.6786,6.6786,6.6786,6.6786,6.6786,6.6786,6.6786,6.6786,6.6786,6.6786,6.6786,6.6786,6.6512,6.5824,6.5824,6.5824,6.5824,6.6512,6.6786,6.6786,6.6569,6.6533,6.6641,6.6641,6.6714,6.6786,6.6786,6.6786,6.6858,6.7583,6.7836,6.7909,6.8597,6.8923,6.9032,0.0,0.0,0.0,0.0,0.0,0.0,0.0,0.0,0.0,0.0,0.0,4.211,0.0,0.0,0.0,4.2572,4.2441,4.259,4.3231,4.3661,4.4458,4.5622,4.6654,4.8105,5.0083,5.0763,5.13,5.1769,5.1448,5.1499,5.1804,5.1132,5.1442,5.2606,5.2032,5.19,5.196,5.1295,5.133,5.1991,5.3146,5.3749,5.4086,5.6299,5.6739,5.6322,5.784,5.8392,5.8461,5.8875,5.9217,5.9516,5.9744,0.0,0.0,0.0,5.9923,6.0282,6.1152,6.1814,6.2753,6.4251,6.4253,6.3933,6.357,6.3422,6.3308,6.2931,6.2889,6.2931,6.3274,6.3083,6.3007,6.3274,6.3643,6.397,6.4393,6.4738,6.5207,6.5949,6.6048,6.6172,6.6488,6.6548,6.6548,6.6548,6.6548,6.6548,6.6548,6.6548,6.6548,6.6548,6.6548,6.6172,6.5533,6.5533,6.5403,6.5074,6.5403,6.576,6.6172,6.6172,6.6391,6.6786,6.6786,6.6786,6.6822,6.7293,6.7474,6.7547,6.8343,6.8669,6.8706,6.9068,6.9466,6.9865,0.0,0.0,0.0,0.0,0.0,0.0,0.0,0.0,0.0,0.0,0.0,0.0,0.0,0.0,0.0,0.0,4.1651,4.2014,4.2571,4.2747,4.3738,4.5634,4.6606,4.8317,5.1045,5.1148,5.1442,5.2092,5.0953,5.0811,5.1805,5.1641,5.2335,5.3847,5.3045,5.2371,5.1829,5.1524,5.1761,5.2539,5.2966,5.3357,5.3857,5.5361,5.5563,5.5288,5.7012,5.7736,5.8012,5.8771,5.9012,5.9081,5.9349,5.9349,0.0,0.0,0.0,5.9906,6.1427,6.1872,6.2182,6.3694,6.3788,6.3542,6.3542,6.3256,6.2956,6.2956,6.2956,6.2888,6.2719,6.2516,6.2381,6.2381,6.2537,6.2889,6.3457,6.3643,6.4112,6.5074,6.5207,6.5403,6.5985,6.6048,6.6146,6.6269,6.6269,6.6269,6.6269,6.6146,6.6048,6.6048,6.5922,6.5633,6.5207,6.5207,6.4941,6.4323,6.4669,6.5141,6.5697,6.5811,6.6334,6.7112,6.7112,6.7112,6.7184,6.7981,6.8307,6.838,6.9176,6.9466,6.9539,6.9937,7.0335,7.0698,0.0,0.0,0.0,0.0,0.0,0.0,0.0,0.0,0.0,0.0,0.0,0.0,4.1656,4.106,4.0752,4.0715,4.1085,4.172,4.2571,4.3216,4.4204,4.5737,4.7101,0.0,5.1184,5.1148,5.1196,5.1475,5.0767,5.1197,5.2653,5.2105,5.2929,5.4832,5.395,5.3281,5.2771,5.1563,5.2302,5.4126,5.1417,5.1117,5.2425,5.3253,5.3563,5.3804,5.6046,5.7322,5.8012,5.8771,5.9012,5.8944,5.8909,5.8701,5.849,0.0,0.0,0.0,5.9804,6.0237,6.0619,6.2148,6.3042,6.3543,6.3543,6.3971,6.4478,6.4478,6.4478,6.4275,6.3599,6.2854,6.2381,6.2381,6.2966,6.3457,6.3496,6.4112,6.4601,6.4669,6.4669,6.4873,6.5403,6.5468,6.5697,6.6269,6.6269,6.6269,6.6269,6.576,6.5468,6.5468,6.4941,6.4669,6.4669,6.4669,6.4253,6.357,6.4806,6.5468,6.5697,6.6251,6.7032,6.7945,6.7945,6.7945,6.8017,6.8814,6.9104,6.9213,7.0009,7.0335,7.048,7.1965,7.2074,7.1567,0.0,0.0,0.0,0.0,0.0,0.0,0.0,0.0,0.0,0.0,0.0,0.0,0.0,4.0409,4.0161,4.0439,4.0685,4.111,4.181,4.259,4.4058,4.6386,4.7869,4.9459,5.1115,5.1645,5.1434,5.0647,5.0493,5.0802,5.1435,5.2236,5.276,5.2851,5.2553,5.2332,5.2213,5.1319,5.1473,5.2332,5.2272,5.1932,5.1701,5.346,5.3494,5.2942,5.5219,5.6529,5.7322,5.7912,5.8428,5.884,5.849,5.8348,5.8277,5.8027,5.7954,5.8124,5.9128,5.9389,5.9783,6.1306,6.2276,6.2787,6.2787,6.3734,6.4478,6.4005,6.4275,6.4512,6.4241,6.3599,6.2956,6.2482,6.2615,6.2813,6.2813,6.3007,6.3274,6.3681,6.3681,6.3898,6.4498,6.4908,6.4976,6.4704,6.5474,6.5604,6.4773,6.4976,6.4908,6.4567,6.4358,6.4076,6.3681,6.3348,6.3083,6.2813,6.3714,6.4481,6.5021,6.5683,6.6461,6.7291,6.7788,6.8284,6.8814,6.9611,6.9937,7.0046,7.0806,7.1422,7.1893,7.1929,7.2074,7.2327,0.0,0.0,0.0,0.0,0.0,0.0,0.0,0.0,0.0,0.0,0.0,0.0,0.0,0.0,4.0051,4.0331,4.0646,4.1117,4.1873,4.2845,4.4659,4.7502,4.853,4.9824,5.1479,5.1579,5.1177,5.0292,4.9992,5.0089,5.0416,5.1248,5.1581,5.1517,5.1454,5.2054,5.3119,5.2932,5.2975,5.3096,5.3272,5.2942,5.2425,5.3942,5.4046,5.3632,5.5667,5.6636,5.7155,5.7809,5.8118,5.8323,5.8246,5.8171,5.8027,5.7954,5.7881,5.8017,5.849,5.8829,5.937,6.0926,6.167,6.2212,6.2956,6.37,6.4241,6.4241,6.4647,6.4952,6.4904,6.4498,6.3924,6.318,6.3079,6.2898,6.2548,6.2514,6.2539,6.2702,6.2668,6.2897,6.3496,6.3933,6.4112,6.4076,6.4636,6.4704,6.4147,6.4112,6.3826,6.3274,6.3348,6.3199,6.2821,6.2503,6.2381,6.2381,6.3362,6.4059,6.4669,6.5593,6.6422,6.7232,6.7745,6.8293,6.8844,6.9633,7.0135,7.0422,7.1225,7.1831,7.2365,7.2597,7.2496,7.2371,0.0,0.0,0.0,0.0,0.0,0.0,0.0,0.0,0.0,0.0,0.0,0.0,0.0,0.0,0.0,4.0562,4.1153,4.1873,4.2734,4.4005,4.6043,4.8995,4.8995,4.9953,5.217,5.0951,5.026,5.0416,4.9236,4.9032,4.9837,4.9205,4.9647,5.104,5.1124,5.269,5.537,5.6268,5.6736,5.6564,5.4419,5.3936,5.4557,5.4563,5.4977,5.577,5.7322,5.7739,5.7741,5.8496,5.8152,5.7568,5.8072,5.8061,5.7881,5.7881,5.7881,5.7881,0.0,0.0,0.0,6.0858,6.1264,6.1839,6.4005,6.3971,6.3903,6.5358,6.5662,6.5579,6.5396,6.543,6.5194,6.4454,6.4319,6.3967,6.2948,6.2814,6.2546,6.181,6.1709,6.1917,6.2513,6.2591,6.309,6.4393,6.3829,6.3684,6.4463,6.3314,6.2313,6.1709,6.1917,6.1997,6.1997,6.2268,6.2381,6.2381,6.3717,6.4442,6.4628,6.598,6.71,6.7966,6.7981,6.7954,6.8001,6.8884,6.9621,7.0398,7.1233,7.1515,7.1763,7.4132,7.3532,7.1765,0.0,0.0,0.0,0.0,0.0,0.0,0.0,0.0,0.0,0.0,0.0,0.0,4.095,4.111,4.1607,4.2633,4.2504,4.3024,4.4744,4.5273,4.6762,4.9712,4.9925,5.0516,5.1663,5.08,4.996,4.9126,4.8781,4.8529,4.8478,4.9268,5.0151,5.1121,5.2762,5.4195,5.541,5.4655,5.5258,5.6597,5.5968,5.5742,5.5879,5.6571,5.6125,5.5348,5.6529,5.7089,5.7432,5.7532,5.8144,5.8749,5.8807,5.8395,5.7881,5.7881,5.7881,5.7881,5.7881,0.0,0.0,0.0,0.0,0.0,6.1751,6.2211,6.2885,6.4169,6.4422,6.4757,6.5713,6.588,6.5646,6.4771,6.4287,6.3685,6.2948,6.2814,6.2546,6.181,6.1709,6.179,6.1917,6.2358,6.2513,6.2279,6.298,6.3056,6.2324,6.2076,6.1837,6.1709,6.179,6.179,6.179,6.187,6.1951,6.211,6.3632,6.4436,6.4631,6.6079,6.6889,6.71,6.7093,6.7141,6.7261,6.8648,6.9305,6.9551,7.037,7.1008,7.1537,7.2183,7.2356,7.2453,0.0,0.0,0.0,0.0,0.0,0.0,0.0,0.0,0.0,0.0,0.0,0.0,4.189,4.1952,4.2345,4.3096,4.3327,4.4102,4.5636,4.6288,4.7564,4.9681,4.9852,5.0098,5.0574,5.0288,4.9662,4.8608,4.8403,4.8135,4.7909,4.8763,4.9652,5.0756,5.2672,5.402,5.4973,5.473,5.5602,5.7078,5.7317,5.7329,5.7329,5.8237,5.773,5.6591,5.7466,5.7909,5.8075,5.7732,5.8269,5.9078,5.8287,5.8423,5.8693,5.8084,5.8118,5.8287,5.7983,5.7881,5.8152,5.9201,0.0,0.0,6.0987,6.1177,6.1468,6.3082,6.345,6.3819,6.4905,6.5287,6.5354,6.4694,6.4581,6.4048,6.2766,6.2599,6.2432,6.1999,6.1932,6.1932,6.1932,6.2226,6.2253,6.179,6.2167,6.2122,6.1334,6.1417,6.1499,6.1499,6.1547,6.1547,6.1547,6.1628,6.179,6.187,6.3463,6.4252,6.4484,6.5969,6.6728,6.6812,6.6812,6.6812,6.6896,6.8086,6.8873,6.9219,6.9984,7.0767,7.1464,7.217,7.2302,7.2196,0.0,0.0,0.0,0.0,0.0,0.0,0.0,0.0,0.0,0.0,0.0,4.3388,4.2983,4.2859,4.29,0.0,4.4327,4.5342,4.6016,4.7174,4.8233,4.9194,4.9192,4.9297,4.9544,4.9709,4.9347,4.8608,4.8243,4.8048,4.8029,4.8128,4.8946,5.0334,5.1765,5.313,5.4413,5.5872,5.7017,5.7806,5.853,5.8852,5.899,5.9663,5.9351,5.8629,5.931,5.9405,5.9016,5.8511,5.8569,5.8693,5.7543,5.8389,5.9641,5.8457,5.849,5.8795,5.8287,5.8084,5.8355,5.9742,5.895,0.0,6.1077,6.037,5.981,6.1914,6.2282,6.2432,6.3012,6.3796,6.4228,6.4088,6.4597,6.4432,6.2643,6.2411,6.2378,6.2312,6.2278,6.2245,6.2179,6.2179,6.2183,6.2189,6.1465,6.1119,6.1119,6.1119,6.1119,6.1119,6.1252,6.1383,6.1383,6.1547,6.1628,6.1662,6.3133,6.4003,6.4319,6.5834,6.6592,6.6728,6.6812,6.6812,6.688,6.7523,6.8267,6.9064,6.9947,7.0643,7.1415,7.2962,7.258,7.1385,0.0,4.2911,4.3331,4.4105,0.0,0.0,0.0,4.469,4.4887,4.5464,4.4887,4.4591,4.497,4.458,4.4953,4.6539,4.7026,4.7375,4.7629,4.7935,4.8298,4.8625,4.9132,4.9523,4.9769,5.0294,5.0019,4.8811,4.8762,4.8763,4.882,4.9386,5.0429,5.1866,5.2741,5.3871,5.5139,5.6505,5.7458,5.8107,5.948,6.0311,6.0772,6.1105,6.0299,5.8978,5.9238,5.8846,5.8259,5.8699,5.849,5.8254,5.9167,5.893,5.849,5.9404,5.893,5.8321,5.937,5.9085,5.8774,5.9607,5.9453,0.0,5.9643,5.8488,5.7691,5.9128,5.8913,5.8913,6.025,6.1159,6.1832,6.1748,6.2345,6.304,6.3802,6.3935,6.3736,6.314,6.3073,6.2842,6.2245,6.2179,6.1965,6.1368,6.1169,6.1119,6.1119,6.1119,6.1119,6.1119,6.1086,6.1169,6.1169,6.1169,6.1334,6.1499,6.2966,6.3751,6.4036,6.5749,6.6507,6.6592,6.6728,6.6812,6.6812,6.6981,6.7455,6.8233,6.9625,7.0289,7.0493,7.1416,7.162,7.1444,4.3842,4.4516,4.5355,4.6083,0.0,0.0,0.0,4.6872,4.6872,4.6872,4.5861,4.5175,4.5125,4.5164,4.5588,4.6646,4.74,0.0,0.0,4.82,4.8365,4.8098,4.892,4.9442,4.9369,5.0057,4.9864,4.8889,4.9317,4.947,4.9523,5.0599,5.1528,5.2266,5.3474,5.4406,5.5142,5.6634,5.7718,5.8552,5.9737,6.0201,6.0184,6.0352,5.9802,5.8968,5.8749,5.8293,5.8017,5.8761,5.8998,5.8998,5.8998,5.9268,5.9573,5.9573,5.9302,5.9066,5.9287,5.9077,5.8724,5.9017,5.8696,0.0,0.0,5.7479,5.677,5.7676,5.7678,5.7806,5.8874,5.9905,6.0556,6.0556,6.145,6.2411,6.314,6.357,6.3835,6.3802,6.3802,6.3537,6.2775,6.2709,6.2278,6.1185,6.1119,6.1119,6.1119,6.1119,6.1119,6.1119,6.1119,6.1285,6.1649,6.1649,6.1899,6.2348,6.3477,6.4062,6.4319,6.5541,6.6249,6.6507,6.6592,6.6728,6.688,6.7624,6.8166,6.8571,6.935,7.0094,7.0804,7.1176,7.1312,7.1413,4.487,4.5891,4.7022,4.78,4.8037,0.0,0.0,0.0,4.8534,4.7604,4.6523,4.5551,4.4949,4.5384,4.5853,4.6088,4.721,4.7761,4.7425,4.8462,4.8564,4.7505,4.8738,4.919,4.8482,4.9445,4.9582,4.9088,4.9866,5.0343,5.0707,5.1899,5.2601,5.2861,5.4121,5.4885,5.5395,5.6806,5.7842,5.865,5.9572,5.969,5.9286,5.9286,5.9181,5.893,5.8152,5.7881,5.8017,5.8761,5.9404,5.9742,5.8829,5.9708,6.0892,5.9836,5.9802,5.9971,5.9439,5.9161,5.894,5.873,5.7997,5.7305,0.0,0.0,0.0,5.6163,5.6559,5.6969,5.7517,5.8427,5.9183,5.9251,6.0274,6.1198,6.1422,6.2101,6.2967,6.4001,6.4167,6.3868,6.314,6.2808,6.2212,6.1185,6.0986,6.0953,6.1086,6.1119,6.1119,6.1119,6.1119,6.145,6.2179,6.2179,6.2543,6.3272,6.4034,6.4453,6.4627,6.5447,6.6055,6.6537,6.6623,6.6862,6.7269,6.8605,6.918,6.9316,6.9485,7.0263,7.1345,7.1481,7.1515,7.1616,4.5587,4.622,4.7022,4.78,4.8443,4.8917,4.8984,4.8477,4.7575,4.6356,4.6095,4.5945,4.5728,4.5864,4.6419,4.7669,4.7967,4.8179,4.8471,4.9278,4.8861,4.6965,4.8744,4.8952,4.7078,4.8893,4.9834,4.9854,5.0574,5.1678,5.3045,5.318,5.3871,5.5084,5.5249,5.5836,5.6692,5.7647,5.7973,5.7901,5.873,5.9424,5.9978,5.9978,5.9553,5.893,5.8152,5.7881,5.8017,5.8761,5.9066,5.9336,6.0554,6.0588,6.0452,6.1369,6.0751,6.0112,6.1086,6.0792,6.0023,5.9755,5.9023,5.8065,5.6599,0.0,5.383,5.3217,0.0,5.4401,5.4496,0.0,0.0,5.6776,5.6936,5.743,5.8505,5.9516,6.0925,6.312,6.3405,6.3107,6.2378,6.1119,6.0589,6.1086,6.049,6.0423,6.1086,6.1119,6.1119,6.1119,6.1119,6.145,6.2179,6.2179,6.2543,6.3272,6.4034,6.4365,6.4486,6.5359,6.6146,6.6868,6.7309,6.7853,6.8547,6.8924,6.9485,7.0128,7.0804,7.1176,7.1379,7.2022,7.2293,7.2394,4.5635,4.6278,4.7022,4.78,4.8173,4.8376,4.8376,4.7483,4.6651,4.6273,4.6147,4.6255,4.6702,4.7137,4.7602,4.8158,4.8274,4.8184,4.8029,4.8984,4.9131,4.8063,4.9225,4.9243,4.8037,4.8423,4.9128,5.0001,5.0732,5.1914,5.3449,5.4647,5.534,5.5496,5.5764,5.6329,5.694,5.6899,5.7182,5.7739,5.815,5.8522,5.8829,5.8829,5.8647,5.8389,5.849,5.8254,5.7949,5.8254,5.893,5.9607,5.937,5.9903,6.056,6.0684,6.0539,6.0269,6.0109,5.9712,5.9114,5.7891,5.7085,5.6161,5.4992,5.3861,5.2886,5.2457,0.0,0.0,0.0,0.0,0.0,0.0,5.5368,5.6029,5.6979,5.7926,5.9242,6.1568,6.1903,6.1881,6.1583,6.0622,6.0324,6.1053,6.0423,6.0324,6.1053,6.1119,6.1119,6.1119,6.1119,6.1649,6.2808,6.2808,6.3372,6.4531,6.4829,6.4995,6.4995,6.5382,6.5858,6.6279,6.689,6.7523,6.8122,6.9086,6.9803,7.0263,7.1007,7.1582,7.1988,7.2293,7.2665,7.3138,4.5297,4.5974,4.6718,4.7496,4.7767,4.7902,4.7962,4.7198,4.6617,4.6608,4.6597,4.6823,4.7387,4.7703,4.7939,4.8158,4.7962,4.7841,4.7827,4.8967,4.9316,4.8635,4.9194,4.9321,4.8658,4.8353,4.8955,5.0621,5.1416,5.2538,5.4056,5.5605,5.6265,5.6164,5.6685,5.7062,5.7279,5.7012,5.7192,5.7775,5.7861,5.7881,5.7881,5.7881,5.7881,5.7949,5.8524,5.8355,5.7915,5.8118,5.8896,5.9641,5.8687,5.9456,6.0516,5.9823,5.971,5.9661,5.888,5.8486,5.7924,5.632,5.5453,5.4652,5.3591,5.304,5.258,5.2077,5.3161,0.0,0.0,0.0,5.4461,5.3939,0.0,5.449,5.5474,5.6135,5.7356,5.9555,5.9826,5.9872,6.0124,5.9466,5.9515,6.0721,6.0125,6.0125,6.1053,6.1119,6.1119,6.1119,6.1119,6.1815,6.3272,6.3073,6.3802,6.5425,6.5227,6.5227,6.5425,6.5425,6.5614,6.6024,6.6679,6.7291,6.8115,6.9278,6.9996,7.0445,7.1109,7.1887,7.2699,7.2699,7.3172,7.3916,4.4621,4.5229,4.5974,4.6718,4.7428,4.7962,4.8048,4.8039,4.7925,4.7569,4.7566,4.7538,4.7603,4.6891,4.6786,4.7466,4.6824,4.7052,4.8678,4.9505,4.935,4.7998,4.8663,4.8726,4.8069,4.8648,5.0039,5.2266,5.2976,5.4056,5.5499,5.5598,5.6362,5.7684,5.8171,5.8357,5.8164,5.8764,5.853,5.792,5.7881,5.7881,5.7881,5.7881,5.7881,5.7881,5.7915,5.7915,5.8017,5.8727,5.9032,0.0,5.9582,5.9775,5.9732,5.9376,5.8624,5.8014,5.841,5.7877,5.6951,5.5968,5.5193,5.4236,5.2623,5.2762,5.2852,5.1498,5.2973,5.4391,5.3745,5.3278,5.3153,5.3526,5.2483,0.0,0.0,5.3928,5.5006,5.73,5.6861,5.6686,5.7514,5.695,5.7477,5.9845,5.9363,5.9562,6.102,6.1119,6.1119,6.1119,6.1119,6.1815,6.3272,6.2577,6.3272,6.5392,6.473,6.4763,6.5425,6.5425,6.579,6.6485,6.6789,6.7711,6.9103,6.9592,7.0243,7.0882,7.1222,7.2191,7.3443,7.3443,7.3916,7.4695,4.5546,4.6215,4.6771,4.6893,4.7165,4.7581,4.8382,4.8096,4.778,4.7825,4.7751,4.7934,4.845,4.7758,4.7329,4.7589,4.7403,4.7472,4.8045,4.9286,4.959,4.8572,4.9749,4.9924,4.8693,4.9384,5.0824,5.3077,5.3348,5.4701,5.7116,5.7573,5.8241,5.9004,5.8532,5.8542,5.873,5.7878,5.7695,5.7881,5.7881,5.8186,5.8592,5.8084,5.7881,5.7881,5.7881,5.7881,5.7915,5.8186,5.8518,5.874,5.8395,5.8849,5.9243,5.8697,5.8396,5.8227,0.0,0.0,5.6462,5.5038,5.4238,5.3446,5.2432,5.2695,5.2815,5.1498,5.3004,5.4051,5.2364,5.2763,5.3093,5.2152,5.249,5.3093,0.0,5.3553,5.3544,5.4197,5.5027,5.5802,5.6654,5.651,5.7412,5.9811,5.933,5.9529,6.102,6.1119,6.1318,6.1781,6.1351,6.1815,6.3272,6.304,6.3504,6.473,6.4962,6.5459,6.6154,6.6154,6.6287,6.6585,6.7637,6.8253,6.8478,7.0129,7.1144,7.169,7.2288,7.3156,7.4187,7.368,7.4289,7.5371,4.643,4.6725,4.6908,4.7067,4.7282,4.786,4.8904,4.8666,4.8409,4.8601,4.8335,4.8362,4.8839,4.7957,4.732,4.732,4.7562,4.77,4.77,4.9148,4.9649,4.8944,5.013,5.0514,4.9824,5.1028,5.2505,5.4224,5.5075,5.6439,5.8288,5.8755,5.9269,5.9731,5.9076,5.877,5.8772,5.7933,5.7712,5.7881,5.7881,5.8186,5.8558,5.8084,5.8051,5.8254,5.7983,5.7881,5.7881,5.7808,5.8073,5.8261,5.7909,5.8084,5.8341,5.7945,5.759,5.7181,5.6675,5.612,0.0,5.451,5.3892,0.0,5.2396,5.2905,5.3174,5.1828,5.3084,5.4036,5.2522,5.2755,5.2852,5.2042,5.2392,5.2917,0.0,5.3169,5.2785,5.2634,5.3028,5.4047,5.5729,5.5963,5.708,5.9811,5.9562,5.9827,6.1053,6.1119,6.1318,6.1781,6.1351,6.1682,6.2875,6.2875,6.3372,6.4399,6.4829,6.5425,6.6154,6.6386,6.6519,6.6585,6.7777,6.8268,6.8386,6.991,7.1091,7.1968,7.2532,7.3527,7.4559,7.4052,7.4661,7.5743,4.717,4.6725,4.6542,4.7295,4.8049,4.8802,4.9629,4.9767,4.9825,4.9976,4.9286,4.8769,4.8769,4.7458,4.6562,4.6596,4.7286,4.7734,4.7769,4.9217,4.9718,4.9012,4.9825,5.0604,5.1282,5.3584,5.5109,5.577,5.7943,5.9047,5.9116,5.9081,5.9322,5.9904,5.9689,5.9064,5.8239,5.8767,5.8592,5.7881,5.7881,5.7915,5.7949,5.7915,5.8355,5.893,5.8152,5.7881,5.7881,5.7662,5.7621,5.7682,5.804,5.762,5.7044,5.7312,5.6285,5.5165,5.5503,5.4977,5.4251,5.4251,5.4221,0.0,0.0,0.0,5.3892,5.2516,5.3324,5.4251,5.4162,5.3114,5.2456,5.3025,5.2037,5.1572,5.2516,5.2575,5.2575,5.2516,5.1243,5.1516,5.4774,5.5075,5.6456,5.9663,5.996,6.0291,6.1053,6.1152,6.1185,6.1218,6.1218,6.155,6.2278,6.2278,6.2974,6.4365,6.4465,6.4862,6.5558,6.6287,6.6618,6.6684,6.7413,6.8109,6.8705,6.9051,7.023,7.1721,7.2001,7.319,7.4661,7.4661,7.5134,7.5879,4.7657,4.8216,4.91,5.0294,5.0293,5.0395,5.0999,5.0768,5.053,5.062,4.9084,4.801,4.801,4.6631,4.5975,4.6562,4.7286,4.7941,4.8493,4.9976,5.0506,4.9825,5.2067,5.3259,5.2907,5.5653,5.7362,5.815,5.8737,5.9599,6.0703,5.946,5.9183,5.9655,5.9473,5.8846,5.8022,5.8693,5.8592,5.7881,5.7881,5.822,5.866,5.8084,5.8355,5.893,5.8152,5.7808,5.7662,5.7588,5.7733,5.8007,5.8053,5.7734,5.7297,5.7404,5.6461,5.5503,5.5592,5.5311,5.494,5.494,5.4581,5.4132,0.0,0.0,0.0,0.0,0.0,0.0,0.0,0.0,5.2815,5.2516,5.2364,5.2336,5.2606,5.2175,5.1784,5.1604,5.1394,5.2017,5.408,5.4261,5.5601,5.8903,5.9164,5.9761,6.1053,6.1616,6.2146,6.2709,6.2709,6.3073,6.3802,6.3802,6.4001,6.4332,6.5459,6.6353,6.7082,6.7811,6.8142,6.8175,6.8904,6.9036,6.8771,6.996,7.1147,7.2333,7.3093,7.4248,7.5439,7.5439,7.5912,7.6623,4.902,4.9855,5.087,5.2243,5.1749,5.114,5.1244,5.1017,5.0589,4.9966,4.8647,4.77,4.77,4.6665,4.6389,4.7493,4.8286,4.9045,4.9769,5.0942,5.1554,5.1555,5.3444,5.4441,5.4424,5.7019,5.8599,5.9012,5.9702,6.0461,6.1289,5.9871,5.9421,5.9583,5.94,5.8942,5.8423,5.8829,5.8592,5.7881,5.7881,5.8152,0.0,5.8051,5.8079,5.8376,5.8275,5.7931,5.7621,5.7733,5.7983,5.8108,5.8261,5.7887,5.7377,5.7115,5.6402,5.5555,5.5475,5.528,5.5179,5.5179,5.491,5.4551,5.4281,5.4491,5.4551,0.0,5.4221,5.4521,0.0,0.0,5.2875,5.1917,5.1906,5.2002,5.2002,5.1668,5.1395,5.1263,5.1668,5.2352,5.334,5.4432,5.6085,5.872,5.9198,5.9761,6.0589,6.0915,6.1554,6.2775,6.2727,6.3089,6.3902,6.4531,6.4664,6.4365,6.5492,6.6419,6.7181,6.7877,6.8407,6.8738,6.9467,6.9566,6.9268,7.0428,7.1516,7.2571,7.3931,7.4988,7.5518,7.5709,7.6217,7.6961,5.0876,5.1576,5.2256,5.3313,5.251,5.15,5.1017,5.0857,5.036,4.9076,4.8307,4.7838,4.7734,4.7217,4.7458,4.8872,4.97,5.0459,5.1218,5.2046,5.2839,5.3529,5.446,5.5253,5.5908,5.8047,5.9185,5.9185,6.0496,6.1151,6.1151,6.0181,5.959,5.9447,5.9332,5.918,5.9032,5.9032,5.8592,5.7915,5.8017,5.8017,5.8017,5.7915,5.7803,5.7823,5.8287,5.8119,5.7708,5.7986,5.8129,5.819,5.83,5.7872,5.7157,5.6745,5.6046,5.5481,5.523,5.5179,5.5179,5.5179,5.5179,5.5029,5.4461,5.4341,5.4341,5.4341,5.4341,5.4341,5.4341,0.0,5.2905,5.1678,5.1468,5.1468,5.1468,5.1468,5.1439,5.1536,5.2459,0.0,5.2785,5.4867,5.6871,5.8396,5.9136,5.9564,5.9961,5.9728,6.0446,6.2278,6.2189,6.2647,6.3703,6.4829,6.516,6.4664,6.5359,6.6055,6.6684,6.7546,6.8241,6.8871,6.9599,6.9931,6.9997,7.0726,7.1682,7.2738,7.4594,7.5325,7.5325,7.5715,7.6352,7.713,5.2978,5.3159,5.3251,5.3266,5.2699,5.2078,5.1551,5.107,5.0468,4.9555,4.8945,4.839,4.7803,4.8148,4.8803,4.9735,5.0493,5.1218,5.1977,5.3322,5.4184,5.4322,5.6253,5.7357,5.7495,5.915,5.9978,5.9978,6.0254,6.0392,6.0358,5.925,5.8766,5.8695,5.8948,5.9032,5.9032,5.9032,5.8592,5.7949,5.8558,5.8829,5.8761,5.7971,5.7958,5.8387,5.7582,5.764,5.7986,5.7854,5.8065,5.828,5.7516,5.6992,5.6681,5.6673,5.5925,5.523,5.525,5.5179,5.5179,5.5179,5.5179,5.5149,5.5029,5.5029,5.5029,5.5029,5.5029,5.5029,5.5029,0.0,5.3773,5.2965,5.2845,5.2845,5.2845,5.2845,5.2893,5.3132,5.4535,5.4945,5.3844,5.4695,5.5652,5.6408,5.6654,5.7611,5.9534,5.9642,6.0761,6.304,6.3595,6.4553,6.5955,6.5591,6.5657,6.6154,6.6883,6.7314,6.7479,6.8804,6.95,6.9633,7.0394,7.0693,7.0759,7.1488,7.2446,7.3471,7.4634,7.5131,7.5392,7.6357,7.7164,7.7807,5.5093,5.4602,5.4009,5.4045,5.2904,5.1799,5.1244,5.0694,5.0119,4.9264,4.9318,4.9286,4.8941,4.9562,5.0631,5.2218,5.2321,5.2942,5.4494,5.4908,5.5426,5.6253,5.7322,5.8081,5.8461,5.884,5.9599,6.0771,5.9978,5.9908,6.0596,5.9556,5.876,5.8382,5.8841,5.9032,5.9032,5.9404,5.9133,5.8524,5.9268,5.9498,5.9313,5.8341,5.8018,5.8078,5.7429,5.7326,5.7566,5.7534,5.7646,5.7586,5.7025,5.6743,5.6541,5.6017,5.5551,5.5179,5.5179,5.5179,5.5179,5.5179,5.5179,5.5179,5.5179,5.5179,5.5179,5.5179,5.5179,5.5089,5.476,5.4132,0.0,0.0,5.3174,5.3174,5.3174,5.3174,5.329,5.3622,5.4233,5.4407,5.3377,5.4162,5.5045,5.5559,5.5851,5.6933,5.9081,5.846,5.9698,6.3239,6.3015,6.3969,6.6519,6.6552,6.6751,6.7082,6.7446,6.7811,6.8208,6.8904,6.9633,7.0394,7.0759,7.1123,7.1521,7.2283,7.3111,7.3874,7.4539,7.4968,7.5231,7.6298,7.7236,7.8044,5.6365,5.5493,5.4473,5.4361,5.2772,5.1296,5.091,5.048,4.9907,4.8941,4.9666,5.0183,5.0011,5.0942,5.239,5.4356,5.4115,5.4701,5.6667,5.6357,5.6633,5.784,5.8219,5.8668,5.9254,5.8359,5.8806,6.0593,5.9044,5.8869,6.0032,5.937,5.8715,5.8133,5.8598,5.8863,5.9066,5.981,5.9776,5.9302,5.9785,5.9856,5.9622,5.8363,5.7734,5.7591,5.7197,5.6825,5.6738,5.6973,5.6963,5.6808,5.6484,5.628,5.6183,5.5481,5.5179,5.5179,5.5179,5.5179,5.5179,5.5179,5.5179,5.5179,5.5179,5.5179,5.5179,5.5179,5.5179,5.5029,5.4521,5.3982,0.0,0.0,5.3623,5.3623,5.3623,5.3789,5.394,5.4113,5.4328,5.4171,5.329,5.402,5.4844,5.5472,5.5684,5.6511,5.8358,5.7105,5.8306,6.2826,6.1837,6.306,6.6751,6.7181,6.7546,6.7844,6.7844,6.8142,6.8705,6.8837,6.9633,7.0924,7.1057,7.1653,7.2515,7.3078,7.3674,7.4272,7.4506,7.4871,7.5402,7.6337,7.7374,7.8348,5.5831,5.5268,5.449,5.3063,5.1858,5.1035,5.0982,5.0989,5.0493,4.901,5.0114,5.0735,5.008,5.1908,5.3529,5.4425,5.5046,5.5805,5.6736,5.7357,5.7771,5.7909,5.9254,6.0013,6.0082,5.8624,5.8031,5.8235,5.6627,5.6178,5.6892,5.7278,5.7621,5.7954,5.7949,5.8355,0.0,5.981,6.0047,5.9971,5.9705,5.9564,5.9334,5.7184,5.6854,5.7331,5.6315,5.5934,5.5748,5.5781,5.6182,5.6449,5.562,5.5381,5.528,5.5179,5.5179,5.5179,5.5179,5.5179,5.5179,5.5179,5.5179,5.5179,5.5179,5.5179,5.5179,5.5179,5.5179,5.5179,5.5119,5.5059,5.4999,0.0,5.4999,5.4999,5.4999,5.5736,5.6151,5.5736,5.6861,5.6969,5.521,5.4799,5.5121,5.6265,5.5354,5.5348,5.6743,5.5834,5.7299,6.184,6.1264,6.2958,6.7479,6.6916,6.7281,6.8572,6.8572,6.8606,6.8705,6.9368,7.0129,7.0924,7.162,7.268,7.3972,7.4038,7.4105,7.4272,7.4506,7.5205,7.6073,7.711,7.815,7.9092,5.6118,5.5057,5.3904,5.2723,5.1718,5.0982,5.0585,5.0945,5.099,5.0287,5.1528,5.2183,5.1425,5.2977,5.4563,5.577,5.5736,5.6322,5.8012,5.7564,5.746,5.7874,5.8495,5.8599,5.815,5.7053,5.7185,5.8562,5.6892,5.6881,5.8375,5.8428,5.8287,5.7915,5.8355,5.8395,5.8274,5.9476,5.951,5.8971,5.9186,5.9101,5.8687,5.7267,5.6809,5.684,5.5865,5.5378,5.5357,5.5357,5.5538,5.572,5.528,5.5179,5.5179,5.5179,5.5179,5.5179,5.5179,5.5179,5.5179,5.5179,5.5179,5.5179,5.5179,5.5179,5.5179,5.5179,5.5179,5.5179,5.5179,5.5179,5.5179,5.5179,0.0,5.5179,5.5179,5.5551,5.5749,5.5721,5.5345,5.5194,5.508,5.4871,5.5127,5.6057,5.5277,5.5871,5.847,5.7554,5.871,6.253,6.1857,6.3407,6.7579,6.7347,6.791,6.9334,6.9334,6.9334,6.9368,7.0129,7.109,7.225,7.2978,7.3641,7.4171,7.4171,7.4171,7.4204,7.4769,7.5337,7.604,7.7514,7.8321,7.8994,5.5723,5.4553,5.3351,5.2303,5.1529,5.0927,5.0711,5.1234,5.1603,5.1484,5.277,5.3425,5.2666,5.3736,5.5046,5.6322,5.615,5.6736,5.8564,5.7702,5.7357,5.7874,5.8116,5.8012,5.7495,5.6474,5.6811,5.8562,5.6689,5.6746,5.854,5.9016,5.8976,0.0,5.8766,5.8719,5.8356,5.9103,5.9076,5.8406,5.862,5.836,5.79,5.6896,5.6347,5.6085,5.5481,5.5179,5.5179,5.5179,5.5179,5.5179,5.5179,5.5179,5.5179,5.5179,5.5179,5.5179,5.5179,5.5179,5.5179,5.5179,5.5179,5.5179,5.5179,5.5179,5.5179,5.5179,5.5179,5.5179,5.5179,5.5179,5.5179,5.5179,0.0,5.5179,5.5179,5.53,5.5304,5.5279,5.4752,5.4669,5.5343,5.5395,5.5897,5.714,5.6536,5.7153,5.9272,5.847,5.9427,6.2738,6.2207,6.3701,6.7612,6.7844,6.8572,6.9798,6.9798,6.9898,7.0163,7.1123,7.2117,7.3144,7.3873,7.4171,7.4171,7.4171,7.4171,7.4237,7.4999,7.5635,7.6171,7.7712,7.8622,7.9196,5.4282,5.3697,5.2978,5.1643,5.0964,5.0864,5.1668,5.2207,5.2458,5.2458,5.3687,5.4218,5.346,5.4046,5.4805,5.5563,5.6322,5.7116,5.7874,5.7909,5.7909,5.7909,5.8668,5.9081,5.9047,5.753,5.707,5.7634,5.5273,5.475,5.5996,0.0,5.9404,6.0005,5.9085,5.9164,5.9811,5.8828,5.8701,5.9113,5.7932,5.7276,5.6896,5.5651,5.5179,5.5179,5.5179,5.5179,5.5179,5.5179,5.5179,5.5179,5.5179,5.5179,5.5179,5.5179,5.5179,5.5179,5.5179,5.5179,5.5179,5.5179,5.5179,5.5179,5.5179,5.5179,5.5179,5.5179,5.5179,5.5179,5.5179,5.5179,5.5179,5.5179,0.0,5.5179,5.5179,5.5439,5.5407,5.4667,5.6027,5.6861,5.6427,5.6782,5.7877,5.9795,5.9749,5.9202,5.8177,5.7708,0.0,6.175,6.1847,0.0,6.7579,6.8307,6.9036,6.9798,6.9798,7.0163,7.0924,7.2415,7.3078,7.3144,7.3873,7.4171,7.4171,7.4171,7.4171,7.4237,7.4999,7.5934,7.694,7.7913,7.8958,7.9801,5.3266,5.2502,5.1821,5.1193,5.0892,5.101,5.1668,5.2265,5.2785,5.3186,5.3998,5.4425,5.4184,5.4356,5.4805,5.5563,5.6357,5.6909,5.7116,5.715,5.6909,5.6357,5.7116,5.7288,5.6736,5.6746,5.7284,5.8317,5.6976,5.708,5.8732,5.9464,5.954,5.9118,5.9411,5.8885,5.7909,5.7942,5.765,5.6957,5.6409,5.6017,5.572,5.5381,5.5179,5.5179,5.5179,5.5179,5.5179,5.5179,5.5179,5.5179,5.5179,5.5179,5.5179,5.5179,5.5179,5.5179,5.5179,5.5179,5.5179,5.5179,5.5179,5.5179,5.5179,5.5179,5.5179,5.5179,5.5179,5.5179,5.5179,5.5179,5.5179,5.5179,5.5179,0.0,5.5179,5.4909,5.4855,5.5187,5.538,5.592,5.6957,5.7711,5.8637,5.9911,6.0868,6.1041,6.0173,6.0955,0.0,0.0,6.3989,0.0,6.8307,6.8572,6.9069,6.9798,7.0295,7.1189,7.2415,7.2912,7.3376,7.384,7.4072,7.4171,7.4171,7.4171,7.4469,7.4999,7.5695,7.6528,7.7362,7.8303,7.905,7.9596,5.2416,5.1821,5.1383,5.0981,5.1119,5.152,5.2236,5.2741,5.3366,5.407,5.4344,5.4494,5.4494,5.4239,5.4411,5.5086,5.6184,5.6638,5.6336,5.6914,5.6845,5.6062,5.681,5.7116,5.6909,5.7329,5.801,5.9008,5.8287,5.8841,6.0554,6.0213,5.9844,5.9547,5.9343,5.8558,5.7333,5.7246,5.67,5.588,5.5681,5.5481,5.5179,5.5179,5.5179,5.5179,5.5179,5.5179,5.5179,5.5179,5.5179,5.5179,5.5179,5.5179,5.5179,5.5179,5.5179,5.5179,5.5179,5.5179,5.5179,5.5179,5.5179,5.5179,5.5179,5.5179,5.5179,5.5179,5.5179,5.5179,5.5179,5.5388,5.5568,5.5568,5.5568,5.555,5.5681,5.4964,5.4744,5.5628,5.5775,5.6335,5.7721,5.9121,6.0069,6.0341,6.2278,6.2974,6.198,6.304,6.4001,6.4697,6.5297,6.6615,6.8672,6.8525,6.9053,7.0229,7.1256,7.2216,7.3111,7.3376,7.374,7.4171,7.4171,7.4171,7.4171,7.4171,7.4602,7.5363,7.6026,7.6755,7.7517,7.8564,7.9146,7.9388,5.175,5.1622,5.1505,5.1051,5.152,5.2292,5.3155,5.3568,5.4061,5.4826,5.462,5.4431,5.4367,5.3749,5.3583,5.4303,5.5709,5.6268,5.5513,5.6885,5.7467,5.6735,5.7501,5.8288,5.8978,5.8909,5.911,5.9754,5.9349,5.9903,6.1288,6.0398,6.0242,6.0736,5.8998,5.7995,5.7684,5.673,5.6077,5.5581,5.5581,5.5381,5.5179,5.5179,5.5179,5.5179,5.5179,5.5179,5.5179,5.5179,5.5179,5.5179,5.5179,5.5209,5.5269,5.5269,5.5239,5.5209,5.5239,5.5239,5.5179,5.5179,5.5179,5.5179,5.5179,5.5179,5.5179,5.5179,5.5239,5.5269,5.5269,5.5777,5.6226,5.6196,5.6166,5.6304,5.6378,5.5404,5.507,5.6031,5.7002,0.0,5.8722,6.0863,6.1947,6.1384,6.3835,6.4796,6.357,6.4266,6.4962,6.5558,6.5923,6.6905,6.8644,6.8275,6.9025,7.0894,7.2316,7.3044,7.321,7.3873,7.4171,7.4171,7.4171,7.4171,7.4171,7.4171,7.4635,7.5397,7.6059,7.6788,7.7583,7.8564,7.9041,7.9388,5.1158,5.1546,5.188,5.1751,5.1952,5.2507,5.387,5.3463,5.3347,5.4293,5.4076,5.3683,5.3009,5.2803,5.2733,5.2769,5.364,5.4387,5.4735,5.5654,5.6372,5.678,5.8083,5.8772,5.8771,5.9869,6.0647,6.1102,6.1452,6.1425,6.1084,6.0837,6.003,5.8818,5.8395,5.7653,5.673,5.6274,5.588,5.5581,5.5381,5.528,5.5179,5.5179,5.5179,5.5179,5.5179,5.5179,5.5179,5.5179,5.5179,5.5179,5.5179,5.5538,5.5927,5.5927,5.5598,5.5299,5.5807,5.5568,5.5179,5.5179,5.5179,5.5179,5.5179,5.5179,5.5179,5.5179,5.5598,5.5927,5.5927,5.6466,5.6735,5.6256,5.6166,5.6154,5.5892,5.5622,5.5843,5.697,5.8335,5.9545,6.0454,6.1565,6.2577,0.0,6.4233,6.4962,6.5724,6.6982,6.7512,6.7115,6.7664,6.8041,6.8242,6.8107,6.8921,7.0424,7.1336,7.2499,7.3939,7.4105,7.4171,7.4171,7.4171,7.4171,7.4171,7.4171,7.4933,7.6092,7.6258,7.7119,7.8279,7.8551,7.8724,7.9041,5.1438,5.1459,5.1616,5.1964,5.2088,5.2398,5.3218,5.3122,5.3141,5.3647,5.3449,5.3246,5.3061,5.2666,5.2507,5.2613,5.3712,5.4376,5.4481,5.6128,5.7192,5.7226,5.8703,5.9461,5.9251,6.069,6.1354,6.1418,6.1324,6.1013,6.049,5.9977,5.9177,5.8211,5.7653,5.6923,5.6176,5.5979,5.5681,5.5411,5.561,5.5448,5.5209,5.5538,5.5448,5.5179,5.5179,5.5179,5.5239,5.5538,5.5658,5.5688,5.5957,5.6316,5.6645,5.6974,5.6585,5.6077,5.6166,5.5897,5.5568,5.5269,5.5179,5.5179,5.5179,5.5179,5.5269,5.5568,5.5927,5.6256,5.6526,5.6855,5.6974,5.6645,5.6485,5.6389,5.6683,5.6555,5.714,5.8847,5.9853,6.0811,6.2013,6.304,6.3835,6.4299,6.5591,0.0,6.7016,6.8407,6.8649,6.7323,6.759,6.7483,6.7362,6.8516,6.9626,7.0727,7.1472,7.2339,7.3389,7.2835,7.2835,7.3389,7.3389,7.3731,7.4204,7.4535,7.533,7.6324,7.6689,7.7517,7.8511,7.8511,7.8724,7.8936,5.1801,5.1535,5.1468,5.2001,5.2153,5.2269,5.2335,5.2674,5.2974,5.2974,5.2867,5.2957,5.3268,5.2768,5.2637,5.3207,5.4642,5.5291,5.4634,5.7148,5.8494,5.8201,5.9558,6.0217,6.0075,6.1018,6.1367,6.0941,6.0218,5.9729,5.9481,5.8556,5.8119,5.7933,5.6923,5.6274,5.5979,5.5681,5.5481,5.5239,5.5807,5.5688,5.5239,5.5807,5.5688,5.5179,5.5179,5.5269,5.5418,5.5987,5.6226,5.6406,5.6944,5.7154,5.7363,5.7962,5.7782,5.7244,5.6496,5.6166,5.5897,5.5329,5.5179,5.5209,5.5329,5.5329,5.5538,5.6166,5.6406,5.6615,5.7154,5.7244,5.7318,5.7303,5.6929,5.6988,5.7898,0.0,5.8698,6.087,6.1483,6.2245,6.3471,6.4796,6.5425,6.4995,6.6964,6.8154,6.7664,6.8822,6.8634,6.686,6.6695,6.6565,6.6268,6.8511,7.0032,7.0749,7.1488,7.1918,7.2058,7.1044,7.1155,7.2165,7.2272,7.294,7.4001,7.4966,7.5695,7.639,7.7119,7.7881,7.8511,7.8511,7.8617,7.883,5.1315,5.2046,5.2791,5.2289,5.2235,5.2461,5.3011,5.2597,5.2203,5.2378,5.2587,5.2496,5.1972,5.2125,5.2589,5.324,5.4656,5.5439,5.5364,5.6443,5.7976,5.9734,6.0524,6.0793,6.054,6.0449,5.9944,5.9206,5.9709,5.9063,5.7554,5.7955,5.7746,5.705,5.6567,5.6274,5.5979,5.5681,5.5481,5.5209,5.5299,5.5269,5.5209,5.5299,5.5269,5.5179,5.5179,5.5538,5.6047,5.6137,5.6526,5.6974,5.7064,5.7483,5.7992,5.8082,5.8441,5.853,5.7274,5.6166,5.5329,5.5209,5.5179,5.5329,5.5897,5.6017,5.6196,5.6825,5.7423,5.7842,5.7932,5.7962,5.8068,5.8359,5.7794,5.7648,5.8318,0.0,6.0424,6.1069,6.3272,6.4829,6.5061,6.5856,6.6817,6.791,6.6933,6.681,6.7914,6.7811,6.7249,6.5964,6.7173,6.7205,6.5788,6.6375,6.7225,6.8324,6.9007,6.9922,7.0822,7.0711,7.0711,7.0933,7.195,7.2485,7.2794,7.4625,7.5695,7.639,7.7119,7.7881,7.8511,7.8511,7.8511,7.8617,5.2218,5.2145,5.2102,5.2234,5.1933,5.1802,5.2131,5.2171,5.2062,5.2095,5.2563,5.276,5.2539,5.2727,5.3291,5.4308,5.5423,5.6312,5.6687,5.7522,5.8632,6.0151,6.0318,6.0652,6.1177,5.9977,5.9197,5.8767,5.8893,5.8293,5.7046,5.7715,5.7859,5.7641,5.7342,5.7041,5.6839,5.6534,5.6329,5.6226,5.6226,5.6017,5.5718,5.5718,5.5718,5.5718,5.5718,5.6137,5.6735,5.7094,5.7423,5.7723,5.8052,5.8411,5.865,5.865,5.862,5.8351,5.7363,5.6675,5.6137,5.5807,5.5957,5.6286,5.6585,5.6675,5.6855,5.7513,5.7902,5.8231,5.859,5.8444,5.8583,5.9092,5.8558,5.8578,6.0114,6.0642,6.1501,6.3186,6.4597,6.5724,6.6519,6.7612,6.8258,6.8307,6.8239,6.8221,6.8243,6.8064,6.7543,6.6827,6.6486,6.6262,6.5849,6.6573,6.7382,6.8304,6.8612,6.9116,6.9579,6.8914,6.9031,6.9693,7.0262,7.1013,7.2124,7.4095,7.5242,7.6037,7.747,7.8212,7.8511,7.8511,7.8511,7.8511,5.2716,5.2068,5.147,5.1993,5.1614,5.1232,5.1318,5.1803,5.2049,5.1848,5.254,5.3134,5.3108,5.3592,5.4306,5.549,5.6348,5.7222,5.7993,5.8734,5.9564,6.0356,6.01,6.0245,6.0926,5.9226,5.8264,5.7937,5.8108,5.7648,5.668,5.7545,5.807,5.8359,5.8054,5.7747,5.7437,5.7198,5.7004,5.6885,5.6885,5.6585,5.6166,5.6166,5.6256,5.6376,5.6376,5.6795,5.7423,5.7932,5.8231,5.8441,5.8949,5.9099,5.9099,5.9099,5.874,5.8171,5.7334,5.7094,5.6974,5.6496,5.6735,5.7124,5.7304,5.7334,5.7513,5.8201,5.8351,5.8607,5.9302,5.9131,5.9271,6.0365,0.0,6.0022,6.1979,6.2068,6.2828,6.5127,6.5724,6.6329,6.7339,6.8789,6.9092,6.7926,6.8773,6.9021,6.8045,6.7902,6.7745,6.7561,6.6191,6.5652,6.6011,6.7029,6.7806,6.8325,6.8325,6.8325,6.8325,6.7427,6.7548,6.8444,6.8679,6.9752,7.1363,7.3674,7.4937,7.5728,7.775,7.8511,7.8511,7.8511,7.8511,7.8511,5.1489,5.1814,5.2026,5.1392,5.1275,5.1318,5.1811,5.1894,5.1848,5.1613,5.2635,5.3108,5.2472,5.4066,5.549,5.6459,5.7222,5.7993,5.8701,5.9457,6.0178,6.0933,6.0502,5.9751,5.8946,5.7952,5.667,5.5257,5.7168,5.7277,5.581,5.7549,5.8329,5.8359,5.7747,5.754,5.7437,5.7198,5.6765,5.6256,5.6256,5.6226,5.6166,5.6166,5.6526,5.7034,5.7034,5.7453,5.8052,5.8112,5.853,5.9039,5.9099,5.9099,5.9099,5.9099,5.9069,5.874,5.7453,5.7094,5.7094,5.7034,5.7064,5.7274,5.7902,5.8052,5.8231,5.889,5.9039,5.9362,6.039,6.0086,6.0297,6.2543,0.0,0.0,6.3292,6.3995,6.4694,6.5293,6.6618,6.7372,6.7102,6.8266,6.8698,6.7482,6.7087,6.6961,6.6848,6.6365,6.6463,6.7001,6.6879,6.658,6.6011,6.6732,6.7061,6.7091,6.7091,6.7091,6.7091,6.6999,6.7121,6.7213,6.8325,6.9166,7.023,7.334,7.4937,7.5728,7.775,7.8511,7.8511,7.8511,7.8511,7.8511,5.1943,5.1638,5.1317,5.1048,5.0896,5.1045,5.1595,5.2076,5.2445,5.2731,5.3509,5.3851,5.3429,5.453,5.5636,5.6381,5.7147,5.8124,5.9245,5.9108,5.923,5.9751,6.0057,5.9646,5.8573,5.7634,5.7058,5.701,5.759,5.7828,5.7623,5.8552,5.9112,5.9331,5.8882,5.867,5.8458,5.8351,5.8201,5.7962,5.7543,5.7393,5.7334,5.6915,5.7154,5.7723,5.7723,5.8171,5.874,5.874,5.889,5.9099,5.9099,5.9099,5.9099,5.9099,5.9099,5.9009,5.8471,5.8351,5.8231,5.7842,5.8052,5.8411,5.868,5.874,5.88,5.9069,5.9606,6.018,6.0598,6.1294,6.2203,6.3529,0.0,6.4374,6.5513,6.588,6.639,6.7314,6.771,6.8014,6.8298,6.8933,6.8875,6.766,6.7857,6.7678,6.6912,6.6703,6.6729,6.6969,6.6999,6.6879,6.661,6.6879,6.6999,6.6999,6.6999,6.6999,6.6999,6.6999,6.6999,6.6999,6.7879,6.8667,6.9609,7.2684,7.4391,7.5291,7.7588,7.8511,7.8511,7.8511,7.8511,7.8511,5.1729,5.1242,5.082,5.082,5.0858,5.1165,5.1678,5.222,5.2794,5.3248,5.3724,5.3925,5.3787,5.4888,5.5796,5.6224,5.7457,5.8423,5.9038,5.8673,5.8571,5.864,5.9235,5.9056,5.7932,5.7516,5.7464,5.7746,5.8133,5.8447,5.8693,5.9173,5.953,5.988,5.9529,5.9315,5.9099,5.9099,5.8979,5.877,5.8321,5.8112,5.8082,5.7603,5.7842,5.8441,5.8441,5.871,5.9099,5.9099,5.9099,5.9099,5.9099,5.9099,5.9099,5.9099,5.9099,5.9099,5.9099,5.9099,5.9009,5.853,5.877,5.9099,5.9207,5.9207,5.9315,5.9819,6.039,6.1246,6.2142,6.3164,6.4316,6.5403,6.598,6.6517,6.7257,6.7335,6.7563,6.8331,6.8242,6.8055,6.8362,6.8752,6.8437,6.723,6.784,6.7879,6.6999,6.6999,6.6999,6.6999,6.6999,6.6999,6.6999,6.6999,6.6999,6.6999,6.6999,6.6999,6.6999,6.6999,6.7089,6.7328,6.7777,6.8495,6.946,7.2114,7.3722,7.4944,7.7069,7.8155,7.8511,7.8511,7.8511,7.8511,5.0589,5.0589,5.0589,5.0589,5.1165,5.1789,5.225,5.2263,5.2517,5.3028,5.3123,5.3123,5.3123,5.5037,5.6336,5.6336,5.8336,5.9146,5.8019,5.8296,5.8293,5.793,5.8107,5.7864,5.7014,5.7521,5.7438,5.6792,5.8592,5.9032,5.842,5.9108,5.9529,5.9529,5.9207,5.9099,5.9099,5.9099,5.871,5.8112,5.8141,5.8141,5.8141,5.8141,5.853,5.9099,5.9099,5.9099,5.9099,5.9099,5.9099,5.9099,5.9099,5.9099,5.9099,5.9099,5.9099,5.9099,5.9129,5.9099,5.9099,5.9099,5.9099,5.9207,5.9422,5.9529,5.9925,6.1184,6.1489,6.2378,6.5147,6.5685,6.641,6.835,6.8695,6.8606,6.8339,6.8339,6.8235,6.8042,6.8036,6.7628,6.6838,6.7266,6.726,6.6132,6.661,6.6999,6.6999,6.6999,6.6999,6.6999,6.6999,6.6999,6.6999,6.6999,6.6999,6.6999,6.6999,6.6999,6.6999,6.6999,6.7358,6.7956,6.7986,6.8734,7.0089,7.1352,7.2915,7.4826,7.6135,7.7324,7.8511,7.8511,7.8511,7.8511,5.0589,5.0512,5.0593,5.0993,5.1168,5.1548,5.2669,5.2416,5.2511,5.366,5.3408,5.3197,5.353,5.5247,5.6105,5.5725,5.7338,5.8141,5.7477,5.7964,5.7994,5.7268,5.7852,5.7746,5.69,5.751,5.7801,5.7878,5.895,5.9417,5.9483,5.9108,5.9108,5.9499,5.8727,5.8411,5.8441,5.8919,5.871,5.8171,5.862,5.88,5.88,5.88,5.8949,5.9099,5.9099,5.9099,5.9099,5.9099,5.9099,5.9099,5.9099,5.9099,5.9099,5.9099,5.9099,5.9189,5.9668,5.9927,6.0024,5.9543,5.9422,5.9422,5.9773,5.988,6.0289,6.1908,6.2915,6.3996,6.6086,6.7612,6.8808,6.9401,7.0524,7.1108,7.0649,7.0358,7.0043,6.9663,6.854,6.7691,6.7442,6.7329,6.7034,6.67,6.6879,6.6999,6.6999,6.6999,6.6999,6.6999,6.6999,6.6999,6.6999,6.6999,6.6999,6.6999,6.6999,6.6999,6.6999,6.7478,6.7777,6.8016,6.8974,6.9602,7.0119,7.1871,7.335,7.4826,7.6135,7.7324,7.8511,7.8511,7.7938,7.7213,5.0706,5.0659,5.0803,5.1421,5.172,5.2017,5.2586,5.2439,5.2545,5.3395,5.309,5.3004,5.3608,5.5056,5.5795,5.5398,5.6731,5.7566,5.762,5.7614,5.7465,5.6934,5.734,5.743,5.7161,5.7709,5.8316,5.8787,5.9222,5.9561,5.9743,5.8897,5.8564,5.8894,5.8128,5.7723,5.7752,5.8441,5.8501,5.8171,5.883,5.9099,5.9099,5.9099,5.9099,5.9099,5.9099,5.9099,5.9099,5.9099,5.9279,5.9548,5.9817,5.9907,5.9907,5.9907,5.9986,6.0186,6.0576,6.0735,6.0741,6.0668,6.0318,6.0136,6.0487,6.088,6.164,6.3236,6.4834,6.6543,6.8241,6.987,7.0963,7.1233,7.2134,7.2523,7.1546,7.1194,7.0512,6.9295,6.8302,6.7672,6.739,6.7216,6.6999,6.6999,6.6999,6.6999,6.6999,6.6999,6.6999,6.6999,6.6999,6.6999,6.6999,6.6999,6.6999,6.6999,6.6999,6.7119,6.7388,6.7777,6.8256,6.8824,6.9632,7.0111,7.0509,7.1577,7.2798,7.3991,7.4826,7.5906,7.699,7.699,7.6508,7.5906,5.0848,5.0974,5.1195,5.1903,5.2566,5.2786,5.2124,5.2398,5.269,5.269,5.2465,5.2691,5.3409,5.4616,5.5407,5.5447,5.6352,5.7302,5.8087,5.7306,5.6761,5.6761,5.6629,5.6868,5.774,5.8154,5.8695,5.9265,5.941,5.9529,5.9392,5.8548,5.8141,5.8171,5.7483,5.7184,5.7244,5.7932,5.8171,5.8171,5.883,5.9099,5.9099,5.9099,5.9099,5.9099,5.9099,5.9099,5.9099,5.9099,5.9548,6.0176,6.0745,6.1014,6.1104,6.1044,6.1267,6.1519,6.1579,6.1377,6.1399,6.2395,6.195,6.1324,6.1584,6.2436,6.3526,6.5029,6.7184,6.9343,7.1165,7.209,7.28,7.335,7.3426,7.2954,7.1221,7.0917,7.0074,6.8011,6.7672,6.7448,6.7061,6.6999,6.6999,6.6999,6.6999,6.6999,6.6999,6.6999,6.6999,6.6999,6.6999,6.6999,6.6999,6.6999,6.6999,6.6999,6.7059,6.7388,6.7956,6.8106,6.8824,6.9991,7.0051,7.038,7.0889,7.0889,7.1601,7.2798,7.2798,7.3537,7.4707,7.4707,7.4589,7.447,5.0574,5.0536,5.0861,5.2113,5.2488,5.252,5.2332,5.2371,5.2465,5.2465,5.2379,5.2791,5.3827,5.4844,5.5437,5.5627,5.6402,5.696,5.7115,5.6954,5.6664,5.647,5.6861,5.7373,5.7943,5.7993,5.8286,5.8745,5.9198,5.9422,5.9207,5.8441,5.8411,5.886,5.8201,5.7902,5.7932,5.862,5.859,5.8171,5.883,5.9099,5.9099,5.9099,5.9099,5.9099,5.9099,5.9099,5.9099,5.9099,5.9548,6.0027,5.9668,6.0266,6.1014,6.0836,6.1127,6.1609,6.2516,6.2768,6.2988,6.377,6.3574,6.3333,6.3662,6.3948,6.4944,6.8137,6.914,7.0243,7.2582,7.3646,7.3871,7.3171,7.3376,7.3036,7.1542,7.0315,6.937,6.8636,6.7666,6.7063,6.6969,6.6999,6.6999,6.6999,6.6999,6.6999,6.6999,6.6999,6.6999,6.6999,6.6999,6.6999,6.6999,6.6999,6.6999,6.6999,6.7508,6.7837,6.8016,6.9064,6.9722,7.0021,7.05,7.0769,7.0889,7.0889,7.1601,7.2798,7.2798,7.3537,7.4707,7.4707,7.4111,7.3046,5.0829,5.1153,5.163,5.2691,5.2878,5.2629,5.1974,5.2355,5.2486,5.1802,5.2213,5.2843,5.3804,5.4629,5.5345,5.618,5.6546,5.6761,5.6761,5.6664,5.6721,5.6831,5.6868,5.7183,5.7747,5.7976,5.8354,5.9017,5.9242,5.9057,5.862,5.8291,5.7962,5.7693,5.7663,5.7453,5.7244,5.8231,5.8334,5.7988,5.8644,5.8882,5.8882,5.8882,5.8991,5.9099,5.9099,5.9099,5.9189,5.9847,6.0296,6.0625,6.1006,6.1477,6.1808,6.2112,6.2304,6.2566,6.3487,6.3648,6.3776,6.4482,6.463,6.4714,6.5281,6.5867,6.6964,6.9772,7.127,7.2512,7.3789,7.4214,7.4103,7.3542,7.3028,7.2282,7.0791,6.9776,6.8883,6.7998,6.7335,6.6999,6.6999,6.6999,6.6999,6.6999,6.6999,6.6999,6.6999,6.6999,6.6999,6.6999,6.6999,6.6999,6.6999,6.7298,6.7448,6.7478,6.7807,6.8315,6.8944,6.9662,7.0141,7.044,7.0769,7.0889,7.0889,7.0889,7.1247,7.1855,7.1855,7.233,7.2922,7.2922,7.2455,7.1855,5.1265,5.1888,5.2542,5.3196,5.329,5.2885,5.1522,5.2337,5.2533,5.1296,5.2017,5.2975,5.3652,5.4422,5.5407,5.6669,5.6761,5.6823,5.6915,5.6654,5.677,5.7151,5.699,5.7088,5.7437,5.8008,5.8607,5.9242,5.9147,5.877,5.8112,5.8231,5.7663,5.6526,5.7154,5.7154,5.6735,5.7842,5.8077,5.7921,5.8456,5.8694,5.8694,5.8694,5.8882,5.9099,5.9099,5.9099,5.9308,6.0535,6.1014,6.1395,6.2732,6.2875,6.2747,6.3659,6.3609,6.3526,6.4309,6.4206,6.4149,6.4764,6.5357,6.609,6.7069,6.7958,6.9223,7.115,7.315,7.4566,7.4478,7.4237,7.3904,7.3496,7.2282,7.0981,6.9579,6.9116,6.8325,6.7091,6.6999,6.6999,6.6999,6.6999,6.6999,6.6999,6.6999,6.6999,6.6999,6.6999,6.6999,6.6999,6.7089,6.7148,6.7148,6.7807,6.8196,6.8315,6.8315,6.8914,6.9991,7.0081,7.041,7.0889,7.0889,7.0889,7.0889,7.0889,7.0889,7.0889,7.0889,7.0889,7.0889,7.0889,7.0889,7.0889,5.1661,5.1827,5.2017,5.2664,5.2788,5.2541,5.177,5.2294,5.2452,5.1682,5.2236,5.2975,5.3652,5.4822,5.5899,5.67,5.6761,5.691,5.7198,5.7228,5.7059,5.6677,5.7661,5.7918,5.7228,5.8321,5.874,5.8261,5.883,5.877,5.8141,5.871,5.856,5.7872,5.853,5.877,5.871,5.889,5.8763,5.8545,5.8634,5.8694,5.8694,5.8694,5.8882,5.9099,5.9099,5.9099,5.9219,5.9967,6.0816,6.1438,6.173,6.2233,6.2961,6.3385,6.3464,6.3636,6.4592,6.4826,6.4764,6.4888,6.6183,6.7726,6.9446,7.0172,7.1121,7.3609,7.4364,7.4478,7.4206,7.4073,7.3394,7.1342,7.0456,6.9579,6.8417,6.7699,6.7213,6.6999,6.6999,6.6999,6.6999,6.6999,6.6999,6.6999,6.6999,6.6999,6.6999,6.6999,6.6999,6.6999,6.7537,6.7837,6.7837,6.8525,6.9153,6.9722,6.9722,6.9812,6.9991,7.053,7.0829,7.0889,7.0889,7.0889,7.0889,7.0889,7.0889,7.0889,7.0889,7.0889,7.0889,7.0889,7.0889,7.0889,5.1765,5.1801,5.1929,5.2606,5.239,5.2052,5.1744,5.2267,5.2483,5.1805,5.2298,5.3129,5.4176,5.5404,5.623,5.6537,5.647,5.6549,5.709,5.695,5.7111,5.7631,5.8023,5.8068,5.7693,5.862,5.877,5.8112,5.877,5.877,5.8141,5.88,5.853,5.7603,5.865,5.889,5.859,5.8949,5.8882,5.8445,5.8555,5.8555,5.8445,5.8664,5.8882,5.9099,5.9099,5.9338,5.9697,5.9997,6.0726,6.1519,6.174,6.2172,6.2695,6.3391,6.3592,6.3776,6.4703,6.5165,6.5472,6.5472,6.7274,6.9189,6.9788,7.0945,7.2381,7.397,7.3741,7.3204,7.3121,7.2526,7.1778,7.0711,6.961,6.8623,6.809,6.7487,6.6999,6.6999,6.6999,6.6999,6.6999,6.6999,6.6999,6.6999,6.6999,6.6999,6.6999,6.7328,6.7358,6.6999,6.8016,6.8375,6.7956,6.9034,6.9692,6.9991,7.032,7.05,7.05,7.0769,7.0889,7.0889,7.0889,7.0889,7.0889,7.0889,7.0889,7.0889,7.0889,7.0889,7.0889,7.0889,7.0889,7.0889]}]]